GFSGBSN_sfc_wetblb_078.txt.gz
Wetbulb
52.39 52.44 51.50 51.76 51.73 52.34 52.64 52.53 52.07 51.94 51.73 51.20 50.93 50.86 50.86 50.96 51.22 51.54 52.21 52.36 52.25 51.69 51.56 51.78 52.19 53.01 49.11 41.73 42.20 50.10 58.94 58.58 58.97 55.44 52.18 50.43 45.45 41.69 38.58 41.16 42.68 42.64 45.02 47.06 47.85 47.23 46.64
51.54 51.83 52.62 52.07 51.71 51.61 51.40 51.41 52.01 51.74 51.75 51.29 51.47 51.51 50.78 50.15 50.16 50.50 51.31 51.79 51.73 51.79 51.35 51.24 51.64 52.31 46.44 35.44 47.35 48.82 48.12 48.97 55.39 50.80 48.65 48.20 47.90 47.08 43.47 42.93 41.87 44.77 45.12 45.93 46.97 46.34 46.70
50.59 50.95 51.36 51.41 51.57 51.81 51.45 50.84 50.67 50.93 51.55 50.70 50.89 51.17 50.83 50.20 49.97 50.28 50.95 51.46 51.14 51.16 50.72 50.80 51.42 49.90 43.69 39.77 47.57 45.99 48.22 47.70 47.77 48.01 46.27 46.56 44.99 41.87 42.53 41.94 46.84 46.00 41.81 44.70 45.43 45.36 44.27
50.55 50.52 50.42 50.57 50.67 51.06 51.03 51.09 50.75 50.44 51.19 50.51 50.00 50.72 51.12 50.59 50.63 50.81 51.12 50.62 50.58 50.76 50.66 50.78 51.54 49.18 40.66 49.95 48.58 48.58 48.09 47.62 49.20 49.47 48.90 49.66 46.99 42.68 41.64 45.41 45.20 41.90 41.25 36.89 43.44 44.88 45.33
50.53 50.42 50.21 50.13 50.35 50.32 50.45 50.94 51.17 50.84 51.09 50.45 50.00 50.42 50.97 50.62 50.63 50.48 50.35 50.16 50.17 50.84 50.81 51.20 48.73 46.14 39.50 53.28 48.89 50.80 49.21 47.02 49.31 49.16 48.39 51.37 45.92 40.90 40.82 38.33 36.11 38.05 34.63 36.30 39.46 44.88 44.08
50.72 50.85 50.59 50.07 49.98 50.28 50.22 50.09 50.86 50.89 50.49 50.40 49.94 49.87 50.40 50.47 50.24 49.99 49.81 49.58 49.29 50.80 50.66 51.29 50.09 44.26 46.19 45.02 48.53 47.36 47.65 50.01 48.69 48.18 45.34 42.99 39.46 34.82 35.87 35.27 30.46 32.89 34.27 34.63 35.94 41.37 44.34
50.19 49.85 49.75 49.85 50.42 49.88 49.97 49.78 49.71 50.55 50.04 50.27 49.83 49.44 49.40 50.20 50.07 49.60 47.29 42.13 42.36 40.08 43.02 41.89 43.32 43.70 46.02 49.80 49.01 45.69 47.05 45.21 47.95 45.17 37.96 40.86 33.79 30.67 32.23 36.55 39.28 39.06 37.52 36.32 39.49 44.23 43.62
49.01 49.06 49.21 49.32 49.56 50.28 49.97 49.58 49.38 49.25 49.35 49.74 49.65 48.83 48.81 49.21 49.53 49.46 44.22 40.05 42.28 45.15 36.55 43.87 43.78 43.30 45.71 46.67 41.54 44.94 46.82 40.45 43.23 38.18 40.21 37.95 32.35 37.55 39.01 39.27 38.35 38.36 36.68 36.34 40.40 44.40 43.65
48.34 48.32 48.64 49.01 49.12 49.59 49.54 49.44 48.98 48.97 48.86 49.01 49.33 48.83 48.49 49.25 48.98 43.92 38.76 40.66 47.04 46.61 35.38 39.13 42.71 41.96 43.06 44.88 40.10 40.50 44.07 40.93 39.86 37.70 38.34 35.59 39.38 42.03 39.32 39.25 38.59 36.61 35.81 35.96 36.13 41.60 43.47
47.44 46.70 46.92 47.74 48.43 48.51 48.47 48.58 48.53 48.47 48.49 48.85 49.18 49.33 49.03 49.20 40.97 40.24 39.75 44.85 45.56 44.64 29.13 33.71 39.40 42.86 45.03 45.35 39.66 45.75 45.90 40.87 39.04 37.69 39.19 37.98 41.93 41.10 39.29 38.21 39.51 34.70 39.90 39.54 38.93 38.24 32.70
47.02 46.21 46.35 46.78 47.13 47.56 47.60 47.69 47.66 47.95 48.02 48.05 48.37 48.06 48.70 48.37 39.94 37.05 40.94 44.40 44.80 42.16 16.56 37.67 41.42 48.61 46.43 42.61 43.20 42.80 45.68 41.98 38.75 38.45 38.80 35.63 37.52 37.68 37.30 38.73 41.24 37.61 41.09 39.86 39.81 36.74 36.08
46.76 46.24 46.04 46.04 46.74 46.84 46.97 47.04 47.20 47.52 47.60 47.61 47.53 47.96 48.28 43.12 39.07 40.59 42.75 43.22 41.70 27.97 18.36 35.17 42.61 40.52 40.99 42.73 43.03 42.45 41.39 44.28 42.81 39.08 39.28 37.64 40.65 40.19 39.09 41.29 42.32 43.11 39.12 38.99 39.63 36.82 29.06
45.60 45.88 46.05 45.93 45.93 46.11 46.25 46.55 46.71 46.81 47.35 47.14 46.88 47.73 45.51 44.36 36.58 40.54 41.50 38.92 26.02 21.64 34.85 34.85 37.88 40.57 40.08 38.66 39.91 39.20 37.02 36.67 33.10 29.75 29.85 34.23 35.45 38.97 41.71 36.91 41.18 39.74 36.53 29.66 27.80 28.23 26.76
45.66 45.48 45.78 45.52 45.54 45.94 46.05 46.01 46.21 46.43 46.85 47.11 46.67 46.47 43.59 43.21 41.22 40.28 41.26 33.96 21.13 28.32 29.55 37.03 36.61 38.95 35.93 38.92 38.58 38.25 34.98 31.97 36.29 34.63 30.61 26.53 25.56 36.42 40.72 37.68 36.59 36.41 37.05 31.42 24.41 26.47 29.72
45.21 44.85 45.28 45.67 45.95 45.78 45.64 45.63 45.81 45.91 46.32 46.24 46.20 38.96 37.95 39.60 41.36 39.69 35.46 24.51 23.44 28.64 34.19 32.66 34.58 33.64 34.64 36.32 36.00 36.41 33.36 32.22 35.15 36.20 29.59 28.94 30.11 38.31 40.54 40.86 40.07 37.60 35.45 40.00 34.70 36.30 30.83
44.70 44.77 44.89 44.75 45.27 45.27 45.30 45.43 45.37 45.48 45.70 45.79 40.23 37.58 36.73 41.20 40.74 39.01 31.33 25.30 27.53 33.58 34.64 33.65 28.02 33.37 29.78 32.33 33.29 33.30 35.30 39.08 37.96 38.91 38.43 35.02 28.18 37.11 40.47 41.65 42.55 39.03 42.13 33.70 34.66 27.08 26.61
44.11 43.92 44.32 44.91 44.91 45.06 45.23 45.34 45.35 45.31 45.22 44.82 36.76 33.42 37.15 40.40 40.19 34.33 22.72 24.46 29.57 34.40 34.91 32.75 30.83 29.53 31.56 31.18 32.03 31.12 35.29 38.11 39.20 37.57 39.58 36.99 33.61 32.90 39.36 37.15 36.55 37.50 36.79 37.81 37.11 34.45 30.67
43.73 43.97 44.47 44.70 44.84 44.93 44.79 44.93 45.07 45.07 44.60 40.59 33.80 27.15 36.72 41.00 30.04 30.42 25.33 28.52 34.06 31.91 35.69 33.64 34.51 33.24 32.47 32.88 31.46 31.72 34.26 37.28 40.09 38.87 34.87 38.45 35.10 28.93 32.02 39.26 42.58 40.99 37.28 38.43 31.46 31.25 34.77
43.39 44.00 44.59 44.57 44.43 44.43 44.54 44.58 44.67 44.77 44.02 37.49 32.70 31.07 36.87 39.90 25.19 24.51 28.74 29.76 31.38 30.20 30.94 32.81 32.65 34.70 35.11 31.89 28.39 33.31 35.86 40.02 40.44 37.68 34.48 35.97 32.73 26.52 28.74 35.12 40.07 36.46 38.47 39.19 39.71 38.00 34.36
43.67 44.21 44.13 44.05 44.20 44.29 44.38 44.34 44.48 44.34 44.31 38.35 32.91 24.73 29.23 31.26 31.03 29.61 26.62 26.68 27.72 34.35 32.86 33.14 32.57 34.88 32.94 31.67 34.31 31.08 34.21 39.13 39.94 39.50 41.11 38.91 32.84 28.95 25.12 30.21 35.10 33.53 35.89 36.48 37.88 32.93 33.08
44.11 43.64 43.35 43.19 43.19 43.59 44.10 44.39 44.37 44.29 43.75 38.99 32.25 23.65 30.96 25.85 27.97 29.67 30.09 29.06 27.85 27.54 33.90 35.43 33.42 32.97 31.56 28.32 30.23 29.13 34.57 36.78 39.41 40.96 38.30 36.41 28.91 31.73 33.28 35.09 35.28 34.87 35.54 36.52 34.73 36.14 34.03
42.77 42.99 43.26 43.41 43.58 43.77 44.10 44.28 44.31 44.34 43.71 37.45 29.83 29.04 32.53 31.72 32.73 30.22 31.69 28.52 29.26 30.71 33.08 31.90 32.14 34.63 34.24 30.77 31.99 29.86 33.49 33.66 33.60 36.16 36.05 36.44 28.07 30.69 29.44 34.38 36.01 34.04 36.13 36.07 36.68 37.31 36.72
43.34 43.36 43.47 43.38 43.68 43.90 44.09 44.22 44.21 44.41 42.49 35.40 36.72 35.53 33.17 29.45 28.70 26.92 27.51 28.47 32.03 34.46 34.36 35.00 34.06 33.33 32.81 35.18 37.54 37.66 37.50 37.27 36.50 35.59 34.74 33.71 32.75 27.80 23.30 32.83 31.98 29.30 34.14 35.89 37.17 40.01 39.91
42.88 42.95 43.20 43.63 43.77 44.17 44.41 44.53 44.53 44.60 43.09 38.85 38.16 36.11 28.75 23.39 27.32 26.99 29.42 30.60 30.93 32.37 31.69 35.26 36.54 33.82 38.29 42.40 40.67 38.79 37.38 37.12 36.35 36.37 37.76 32.30 31.00 29.19 25.16 29.08 22.84 35.69 39.94 41.77 40.66 40.64 43.31
42.96 43.36 43.70 43.95 44.23 44.31 44.38 44.74 45.06 45.12 44.57 39.27 37.65 34.86 31.96 22.70 28.77 28.74 30.19 31.12 32.84 33.77 32.05 34.10 37.17 39.36 40.79 37.66 31.76 28.68 27.74 28.94 31.44 34.96 35.27 35.74 31.15 25.62 22.12 24.60 28.76 34.51 38.31 39.87 34.97 35.55 43.49
42.81 43.05 43.53 43.77 44.29 44.55 44.50 44.63 44.94 44.47 44.79 37.81 35.75 37.08 35.17 27.47 26.65 31.82 29.62 32.08 28.95 29.42 30.99 33.68 39.51 39.92 37.20 31.27 28.11 23.07 21.37 26.54 26.47 30.19 35.50 34.87 33.71 28.04 26.34 23.10 20.77 33.85 40.39 43.62 43.19 32.79 42.47
42.53 42.99 43.53 43.65 44.05 44.38 44.67 45.03 45.39 45.31 44.72 40.02 38.59 37.70 35.54 29.33 29.73 31.18 27.34 27.86 32.57 32.12 30.25 33.65 33.13 34.41 34.81 26.50 22.48 21.94 23.69 31.06 24.25 25.47 26.92 27.01 27.83 26.83 25.76 25.44 29.70 38.80 42.87 44.53 31.96 34.54 42.04
42.75 43.42 43.93 44.01 44.24 44.61 44.87 45.20 45.43 45.06 44.93 42.11 38.00 38.75 35.12 31.33 31.04 33.91 34.67 30.24 30.72 31.63 28.42 32.54 31.97 35.31 32.45 25.00 24.60 24.74 22.58 27.83 27.62 32.63 31.42 28.49 26.63 25.77 27.06 26.14 23.92 43.62 42.10 36.39 39.89 42.50 42.36
43.56 43.80 44.13 44.35 44.76 45.09 45.32 45.42 45.44 45.57 45.39 44.14 36.76 39.03 39.17 33.62 29.64 37.15 37.51 37.64 35.89 36.12 32.80 35.27 33.97 34.18 34.12 29.88 27.97 30.24 27.26 29.51 31.54 27.48 36.49 29.84 32.21 28.12 30.47 30.39 41.22 42.68 42.17 43.62 43.20 40.48 39.56

GFSGBSN_sfc_wetblb_081.txt.gz
Wetbulb
51.75 52.45 52.47 51.49 51.44 51.67 51.68 51.59 51.49 51.91 51.55 51.16 51.05 50.77 50.63 50.80 50.75 50.60 51.06 51.29 50.93 50.85 50.85 50.98 51.23 51.49 48.45 40.96 40.45 47.81 56.37 52.74 55.54 55.29 52.90 49.83 44.16 40.56 37.16 38.66 40.54 41.00 43.53 44.62 45.66 45.29 44.17
50.73 51.27 51.45 51.72 51.72 51.78 51.80 51.25 50.74 50.79 51.20 51.49 50.96 50.42 50.35 50.61 50.63 50.22 50.52 51.04 51.31 51.10 50.53 50.52 50.55 50.95 44.86 35.24 45.72 47.22 46.74 47.51 49.11 51.81 49.57 48.03 47.04 45.93 41.77 40.15 38.70 41.92 42.74 43.13 44.47 44.65 45.09
49.97 50.31 50.53 50.89 50.78 50.63 50.52 51.32 50.86 50.87 50.70 51.31 50.77 50.81 50.41 50.26 50.19 49.76 50.61 50.89 50.79 50.78 50.36 50.30 50.65 48.16 43.08 39.31 46.81 45.99 46.98 46.40 47.17 47.45 44.30 45.99 44.60 40.98 41.41 39.12 44.13 44.41 40.26 41.99 42.74 41.72 41.76
50.33 50.15 50.18 50.20 50.20 50.17 49.98 50.81 51.15 51.32 51.11 51.25 50.79 50.25 51.06 50.57 50.45 50.41 50.60 50.41 50.34 50.87 51.25 50.95 50.86 47.61 39.92 49.42 47.07 47.19 46.57 46.60 48.00 48.10 47.25 48.30 46.93 42.38 39.39 41.65 42.00 39.65 39.13 34.59 40.12 42.93 43.55
49.87 50.17 50.20 50.02 49.90 50.27 50.31 50.23 50.16 49.95 50.89 50.78 50.49 50.47 50.66 50.32 50.22 50.08 49.86 49.60 50.07 51.21 51.86 50.48 47.62 45.28 39.21 51.74 48.18 50.61 48.47 45.61 47.35 48.23 46.95 50.03 44.45 40.12 38.81 34.99 33.11 35.22 32.28 33.91 37.08 43.61 42.15
50.70 50.17 49.87 49.76 50.06 50.16 49.87 50.04 50.32 49.62 49.70 49.76 50.21 50.30 50.08 50.03 49.88 49.29 48.99 49.56 49.94 50.23 50.36 50.21 49.44 42.97 44.83 43.56 49.18 48.82 47.81 48.20 46.14 46.96 44.66 42.12 37.93 33.94 33.96 32.65 26.44 30.11 32.19 31.79 32.64 39.64 40.75
49.46 49.27 49.13 49.09 49.26 49.60 50.48 50.12 49.55 49.24 49.18 49.38 49.80 49.74 49.07 49.59 49.34 49.23 46.83 42.36 40.24 39.77 41.75 39.47 41.91 42.90 44.57 48.50 49.40 45.84 46.73 44.55 45.77 43.85 37.51 39.54 33.20 29.59 31.77 34.88 36.10 36.29 35.10 34.07 36.45 41.10 39.95
47.99 48.02 48.40 48.68 48.97 49.18 49.80 49.91 49.20 49.05 49.05 48.84 48.90 48.95 49.03 49.26 49.29 49.28 40.58 38.39 39.71 41.02 33.92 42.07 43.01 42.66 45.38 46.58 40.66 43.96 46.90 39.99 41.95 37.41 39.37 36.91 31.78 36.96 37.71 36.46 34.83 34.71 32.79 32.58 37.60 41.34 40.49
47.72 47.18 46.77 47.48 48.36 48.68 48.73 48.77 48.64 48.40 48.45 48.41 48.39 48.45 48.44 48.95 49.30 41.29 37.57 39.22 43.41 42.68 35.18 38.49 42.11 41.20 42.37 44.01 38.83 39.54 43.37 40.53 38.95 37.32 37.56 34.14 38.00 41.98 38.05 35.51 35.06 35.44 34.23 33.77 34.20 38.72 40.11
46.98 45.76 45.96 46.53 46.95 47.70 47.91 47.89 47.82 47.79 47.78 47.98 48.16 47.91 48.44 48.72 39.56 38.70 35.56 41.93 43.39 43.77 29.52 31.77 37.24 40.18 42.81 42.84 37.11 44.10 44.37 40.84 36.84 36.13 37.32 36.62 40.67 39.99 37.64 37.23 38.15 33.28 39.69 38.48 36.36 35.19 29.14
46.98 45.51 45.65 45.83 45.94 46.59 46.77 47.08 47.23 47.32 47.35 47.76 47.77 47.64 48.50 47.69 39.54 36.06 39.19 42.43 43.55 40.37 14.37 34.54 39.12 46.94 44.16 39.22 41.34 39.31 44.42 40.31 35.39 38.13 37.93 34.70 36.81 36.31 35.81 37.09 39.89 35.23 40.89 38.38 37.38 34.01 33.56
45.61 45.76 46.05 45.86 45.57 45.75 45.93 46.25 46.53 46.67 46.68 47.50 47.15 47.09 47.43 42.23 37.89 38.74 40.67 41.36 40.41 26.03 16.12 31.46 40.92 38.77 37.96 40.56 41.02 40.26 39.75 42.34 42.06 38.57 37.54 35.99 39.19 39.19 37.69 39.94 40.27 41.48 38.75 37.05 35.72 34.83 28.18
45.09 44.95 45.23 45.76 45.28 45.41 45.85 46.07 46.10 46.23 46.36 46.83 47.09 46.85 45.06 43.70 35.39 39.68 40.10 37.12 24.44 19.09 31.81 30.62 33.07 36.46 36.87 36.94 38.30 37.83 35.95 34.97 32.23 29.51 29.86 33.02 34.51 37.46 40.66 35.48 39.01 38.02 34.77 24.76 22.92 25.10 24.74
44.54 45.32 44.64 44.83 45.28 45.94 45.76 45.74 45.69 45.79 45.97 46.32 46.41 46.10 43.34 42.47 39.93 39.57 37.55 29.99 18.30 25.32 26.78 34.77 34.04 34.40 32.51 37.48 37.27 36.21 33.36 30.41 34.33 32.59 29.08 26.49 24.63 34.24 39.62 36.41 34.03 35.21 34.71 27.50 22.62 23.14 27.65
45.22 44.93 44.23 44.87 44.71 45.27 45.34 45.47 45.59 45.57 45.55 45.68 44.63 37.84 37.12 38.19 40.05 38.78 31.48 22.12 21.57 25.80 31.60 30.21 32.54 31.17 31.58 34.52 34.05 34.60 32.13 32.08 34.22 35.24 29.16 28.05 29.05 36.85 39.20 39.59 38.60 36.39 33.52 37.89 33.70 34.13 31.07
45.82 44.64 43.82 44.47 44.60 45.05 44.93 45.19 45.33 45.57 45.52 45.00 37.84 37.36 34.99 38.66 40.12 36.06 26.80 23.12 26.43 32.37 32.08 30.80 26.55 31.29 27.11 29.62 30.85 31.72 32.29 37.99 36.44 37.50 37.35 33.90 27.81 35.75 39.74 40.00 40.52 37.67 41.05 33.94 32.85 25.19 25.30
44.72 43.61 43.57 43.57 44.65 44.74 44.85 45.00 45.08 45.17 45.13 44.19 34.10 28.22 34.57 39.27 38.92 33.52 22.57 23.28 27.88 32.87 32.97 30.02 29.21 29.07 30.38 28.98 31.03 29.96 34.21 37.32 38.43 37.58 39.04 36.43 32.92 31.59 38.15 36.22 34.18 37.14 34.31 35.80 36.47 33.65 28.99
43.85 43.22 43.43 44.49 44.54 44.69 44.84 44.75 44.57 44.93 44.27 39.59 31.82 19.71 36.38 39.57 27.06 27.20 24.98 27.40 31.76 30.13 33.21 30.83 32.63 31.91 30.00 31.01 29.28 31.55 33.10 37.29 40.63 39.98 34.93 37.24 35.03 28.27 30.15 37.18 40.43 38.85 36.36 37.52 32.13 31.89 33.91
42.64 42.92 43.45 44.27 44.50 44.48 44.43 44.58 44.69 44.56 43.41 35.21 29.35 31.10 35.09 35.94 22.42 25.47 28.24 28.54 29.93 28.62 28.97 29.36 30.48 33.35 33.56 30.31 26.89 32.65 35.42 39.72 39.48 37.31 34.58 35.43 32.18 24.31 25.75 33.01 38.95 36.92 37.85 37.65 37.78 36.56 31.38
42.95 43.08 43.87 44.54 43.89 43.80 43.79 44.18 44.38 44.53 43.63 37.45 32.28 23.37 25.45 30.23 25.73 22.29 24.09 26.51 25.69 31.78 31.02 32.24 30.76 31.95 29.92 29.26 32.28 31.25 34.17 38.40 39.10 38.33 40.93 38.20 31.56 27.95 23.21 25.97 33.54 30.65 34.70 36.06 34.13 31.36 32.95
43.26 43.97 43.64 43.33 43.19 43.17 43.26 43.79 44.42 44.49 43.49 36.72 32.39 23.26 26.06 15.66 24.10 27.22 25.74 23.83 24.88 25.02 31.47 32.06 30.08 31.34 29.92 28.07 29.37 29.22 34.76 36.54 38.12 40.45 37.23 34.08 27.22 30.47 31.39 32.59 33.14 32.62 32.78 34.09 32.85 33.34 30.66
43.25 42.71 42.84 42.98 43.27 43.51 43.63 43.98 44.12 43.71 43.68 36.07 26.81 27.29 29.36 24.93 30.69 28.40 27.70 28.38 27.96 27.75 31.36 29.61 29.23 32.56 33.22 30.31 31.57 30.02 32.95 32.31 32.89 35.34 34.91 35.38 27.75 29.88 28.23 31.60 32.53 31.35 32.61 34.49 34.59 35.34 35.64
42.99 43.38 43.66 43.70 43.53 43.61 43.86 44.12 44.39 44.53 41.84 35.78 35.71 34.99 33.63 26.55 26.94 26.09 26.27 27.88 27.97 31.09 33.74 34.59 33.45 32.11 31.49 33.68 36.24 36.25 35.95 35.83 35.18 34.47 33.30 33.26 30.33 27.50 21.15 28.70 28.66 25.69 32.35 35.21 36.36 37.73 35.99
42.51 42.48 42.84 43.04 43.36 43.91 44.08 44.27 44.55 44.67 42.92 34.86 34.63 36.44 30.91 22.06 26.44 26.34 28.63 29.34 30.37 32.04 31.66 35.32 35.79 33.31 36.34 41.07 39.45 37.81 36.03 35.66 35.22 35.24 36.66 31.65 30.61 28.01 22.54 25.52 14.84 31.92 38.92 38.77 37.62 38.97 40.20
42.68 42.69 43.09 43.43 43.81 44.07 44.34 44.58 44.75 44.92 44.61 39.73 37.01 34.36 32.16 22.66 27.75 28.23 29.19 29.98 31.73 32.61 32.80 33.97 36.96 39.21 40.31 36.56 30.47 28.32 27.41 28.55 30.52 33.81 35.07 34.67 30.59 24.61 19.98 20.83 25.41 30.82 36.86 36.42 34.85 35.73 39.73
42.68 42.53 43.09 43.18 43.54 43.88 44.15 44.48 44.67 44.96 45.11 41.30 38.46 37.47 33.50 26.02 23.29 30.80 27.76 30.64 27.48 29.33 31.18 33.14 36.92 38.53 36.88 30.87 28.65 23.50 21.66 26.21 25.84 29.19 34.22 33.46 31.72 26.91 24.44 19.40 16.69 30.68 38.99 41.45 39.76 31.89 40.45
42.41 42.69 42.72 42.89 43.66 43.83 44.15 44.37 44.65 45.06 45.42 42.09 38.77 37.92 32.89 28.59 28.65 30.39 26.50 26.92 32.07 30.27 28.88 33.25 31.08 34.69 34.10 26.67 23.49 22.39 23.20 29.43 24.06 24.30 26.12 26.99 28.02 25.98 24.25 21.69 26.69 36.94 42.47 42.73 30.85 32.95 40.64
41.73 42.34 42.72 43.23 43.92 44.03 44.23 44.56 44.83 45.16 45.49 43.05 38.21 37.91 33.89 26.93 29.82 33.38 33.99 29.00 29.47 29.03 22.05 29.05 28.08 30.91 31.51 26.74 25.42 24.95 22.79 26.96 25.96 28.63 28.04 26.69 24.98 24.72 24.82 23.18 21.09 41.28 41.07 33.56 38.33 40.98 40.78
42.27 42.81 43.45 43.92 44.45 44.45 44.38 44.71 44.95 45.21 45.53 44.11 36.85 39.67 37.51 32.55 28.60 36.19 37.47 36.34 34.48 33.96 30.09 31.95 28.96 31.56 32.78 28.89 27.10 30.09 26.61 26.69 27.56 23.21 35.18 28.26 30.90 28.01 29.62 28.07 38.70 40.55 41.39 42.29 40.29 38.83 38.73

GFSGBSN_sfc_wetblb_084.txt.gz
Wetbulb
51.10 51.27 52.24 52.22 51.84 51.94 51.91 51.67 51.24 50.93 50.89 50.78 51.45 50.99 50.93 50.94 50.75 50.40 50.84 51.06 50.51 50.43 50.52 50.76 50.77 50.64 46.17 39.39 39.12 46.16 53.76 51.06 53.08 54.44 50.58 49.36 43.17 39.91 36.51 37.93 38.68 39.09 41.75 43.51 44.29 44.04 43.16
49.92 50.38 50.72 50.92 50.96 51.02 50.81 51.18 51.37 50.90 50.86 51.07 51.19 50.96 50.60 50.46 50.37 49.91 50.43 50.66 50.84 50.66 50.35 50.71 50.76 50.31 43.10 32.67 44.58 45.06 45.77 46.21 46.87 51.01 48.91 49.08 46.55 44.24 39.95 39.15 37.64 39.64 39.41 40.73 42.34 42.99 43.21
49.81 49.72 49.66 50.00 50.14 50.06 49.81 50.44 50.71 51.09 51.45 51.38 50.96 50.64 50.52 50.39 50.15 49.54 49.73 50.31 50.26 50.43 50.62 51.19 51.24 47.98 41.86 37.59 46.31 46.60 47.13 44.59 45.05 48.61 45.21 44.96 44.79 40.35 39.74 37.12 41.42 42.00 38.26 40.29 41.06 41.13 41.02
50.82 49.79 49.43 49.36 49.37 49.95 49.95 50.13 50.10 50.01 50.01 50.20 50.70 50.64 51.19 50.50 50.03 50.09 50.01 49.47 49.91 50.79 51.90 52.26 51.44 46.48 38.94 48.75 48.53 46.92 45.76 45.83 46.61 46.63 45.84 46.93 45.88 42.47 38.57 40.52 40.10 37.71 36.73 32.26 38.76 40.53 42.44
49.90 49.77 49.76 49.86 49.54 49.69 49.71 49.76 49.69 49.54 49.45 49.29 49.34 49.81 50.60 50.27 49.92 49.58 49.36 49.41 49.62 51.25 51.32 50.92 46.26 43.83 37.59 51.11 47.18 50.33 48.21 45.44 45.98 45.62 45.35 48.89 43.60 39.71 37.90 33.98 30.80 32.50 28.55 31.46 35.72 41.53 40.53
50.37 50.05 49.43 49.20 48.88 48.94 50.11 49.93 49.75 49.14 49.26 48.95 48.91 48.97 49.15 49.93 49.78 49.21 48.98 47.80 48.67 49.86 49.43 49.60 48.32 41.17 43.31 42.25 49.11 49.33 48.48 48.23 45.40 45.75 42.97 41.68 37.48 33.29 32.41 31.09 24.57 27.38 29.67 27.87 30.79 37.77 38.57
48.97 48.50 48.07 48.26 48.39 48.54 49.13 50.02 49.51 49.00 48.96 48.85 48.65 48.59 48.55 48.81 48.93 49.09 44.52 39.20 37.58 37.03 39.31 36.41 38.14 41.63 43.04 47.48 49.02 45.71 47.49 45.01 44.38 43.96 37.33 38.30 32.47 28.15 31.33 33.86 33.81 33.75 32.13 30.41 32.09 38.01 37.22
47.47 47.45 47.53 47.62 48.15 48.49 48.82 48.84 48.72 48.39 48.24 48.24 48.24 48.21 48.01 47.91 47.92 48.05 38.72 36.80 37.48 38.38 31.84 38.82 39.11 39.37 42.71 44.82 39.43 43.18 46.70 40.18 41.62 37.53 39.44 36.93 31.03 35.31 36.20 34.83 33.54 32.15 29.86 29.40 33.97 38.04 37.15
47.78 47.27 46.26 46.58 46.96 47.78 48.15 48.17 47.83 47.76 47.55 47.57 47.70 47.90 47.96 48.08 47.86 40.16 35.56 37.34 41.15 41.62 31.63 36.12 40.49 39.72 41.02 43.07 37.83 39.08 42.99 39.94 37.58 37.34 37.38 34.36 37.13 40.91 37.31 35.45 32.91 32.17 31.18 31.96 33.08 37.30 37.33
47.52 46.02 45.57 45.70 45.80 46.43 46.82 47.03 47.06 47.15 47.09 47.25 47.67 47.41 47.50 48.31 39.22 38.06 33.85 40.37 41.40 40.67 28.59 30.13 36.03 39.05 41.53 42.09 36.40 43.21 44.09 40.50 36.59 35.41 37.52 35.77 38.94 38.78 36.16 34.53 34.36 30.97 38.17 37.63 35.30 32.67 26.29
46.94 45.84 45.32 45.44 45.37 45.56 45.66 46.18 46.29 46.65 46.65 46.81 47.38 47.22 47.06 47.12 37.77 35.04 38.11 40.64 41.67 38.71 14.49 31.31 36.19 44.88 42.48 37.34 38.58 38.60 43.34 39.42 34.43 36.32 37.83 33.77 36.63 36.88 35.62 36.63 38.75 34.93 39.81 37.31 36.21 32.33 31.75
45.28 44.94 44.86 45.13 45.40 45.25 45.31 45.65 45.80 45.99 46.24 46.30 46.53 47.08 46.89 41.22 37.13 37.53 39.47 39.66 38.51 25.49 14.68 28.43 36.94 36.09 35.60 38.35 38.97 38.72 38.00 42.27 40.76 38.24 37.19 35.06 38.66 37.93 36.61 38.75 39.40 40.01 36.82 35.89 34.80 34.80 25.71
44.86 44.22 44.17 44.89 44.98 45.04 45.08 45.37 45.42 45.61 45.69 45.89 45.97 46.47 44.65 42.95 34.56 38.57 38.91 35.67 22.58 17.45 29.69 26.53 30.25 33.33 34.07 33.22 36.62 35.92 34.71 34.58 32.11 28.91 29.65 33.15 34.59 37.69 40.17 34.86 37.98 36.20 32.40 23.28 22.55 26.27 23.67
43.61 44.63 44.16 43.77 44.51 45.04 45.52 45.36 45.23 45.27 45.43 45.54 45.46 44.71 42.56 41.48 38.64 38.94 35.82 28.41 16.39 23.59 24.09 32.31 31.00 32.91 31.81 33.94 34.24 36.18 32.75 29.89 33.27 31.82 28.47 26.16 24.43 33.78 38.68 35.30 33.06 34.13 32.80 26.66 20.88 22.66 25.91
43.69 44.57 43.93 43.97 44.39 44.41 44.94 44.95 44.96 45.31 45.48 45.28 44.67 36.32 35.26 36.88 38.32 37.25 28.34 19.65 19.75 23.91 29.15 27.59 28.96 29.32 29.48 33.18 32.17 31.98 31.07 30.08 32.97 34.23 28.01 27.27 27.40 35.89 38.16 38.24 37.73 35.42 31.78 36.30 31.72 31.64 29.09
45.01 45.49 43.34 43.15 43.35 44.41 44.56 44.73 44.83 44.96 45.10 44.57 35.25 33.18 32.91 37.36 38.72 34.16 25.29 21.09 24.37 29.90 30.10 29.98 23.46 30.19 26.41 28.76 29.59 29.21 30.69 35.65 34.04 36.18 35.64 32.47 26.84 34.69 38.07 38.62 38.41 36.37 40.31 33.10 32.90 21.92 22.29
43.65 44.02 42.74 43.04 43.16 44.21 44.37 44.53 44.61 44.63 44.45 43.50 32.76 27.65 32.39 37.54 37.62 33.54 19.23 22.63 25.46 30.54 30.74 27.86 26.48 25.32 27.95 27.51 30.06 29.02 32.38 36.74 36.92 35.76 37.46 35.40 31.86 31.04 36.88 34.64 32.86 35.84 34.15 35.72 34.91 33.58 26.16
42.77 43.31 42.46 42.88 44.00 44.31 44.42 44.25 44.38 44.45 43.57 38.19 29.99 21.21 34.24 38.24 26.69 26.51 18.43 26.19 30.83 28.66 31.91 29.23 30.29 29.30 27.72 29.07 27.47 29.34 31.13 36.09 38.91 38.36 34.54 37.29 33.41 27.37 29.95 35.34 38.82 37.21 34.79 35.31 31.17 28.31 31.86
42.69 42.46 42.41 42.89 43.76 44.11 43.83 44.12 44.27 44.22 43.00 33.18 28.01 27.14 33.74 33.85 12.09 17.15 28.12 27.36 29.56 27.91 28.19 27.96 27.48 30.03 33.32 28.25 24.94 30.09 32.84 39.50 40.69 37.43 36.18 36.49 31.01 23.69 24.84 31.57 37.27 35.99 37.15 37.22 35.06 35.19 31.06
42.36 42.61 42.60 43.26 44.27 43.50 43.19 43.07 43.61 43.99 43.42 35.03 26.15 22.67 24.48 31.92 24.71 22.41 23.70 23.85 24.36 30.96 29.29 30.12 29.14 30.66 28.80 27.33 29.63 27.62 30.50 36.64 39.70 38.79 40.69 37.47 30.85 26.85 22.46 24.69 30.48 27.14 32.39 34.66 34.29 27.89 27.26
42.08 42.37 43.50 43.92 43.26 42.95 42.69 42.92 43.16 43.44 42.67 35.97 28.99 20.96 25.01 19.01 21.75 23.35 27.42 25.75 23.60 23.70 29.26 30.71 27.92 27.78 27.02 25.90 28.87 29.10 32.62 35.38 38.37 39.45 36.91 33.10 27.64 29.71 29.67 31.12 31.33 30.72 30.44 31.69 30.92 31.89 28.55
42.91 43.13 43.15 42.95 42.55 42.74 43.03 43.42 43.64 43.07 42.80 36.25 25.17 26.95 30.40 22.84 26.77 24.98 26.47 24.47 24.64 27.28 29.49 27.23 27.19 28.87 30.34 28.41 30.19 29.79 31.34 32.78 33.45 35.19 33.83 34.93 27.16 29.36 27.68 29.95 29.87 29.13 30.50 30.00 30.19 31.52 32.22
41.94 42.53 43.17 43.54 43.55 43.72 43.55 43.74 44.03 43.39 42.57 34.82 35.97 35.66 31.78 26.16 25.36 21.28 23.20 25.51 27.09 29.65 31.01 31.82 31.87 31.34 30.51 33.13 34.71 36.57 37.15 36.37 35.36 33.19 31.66 31.90 28.23 25.14 19.53 26.66 27.07 23.08 28.85 32.31 33.01 35.62 35.23
42.57 43.30 42.54 42.55 42.98 43.18 43.45 43.89 44.09 44.26 42.88 36.07 32.66 33.88 27.69 20.29 24.51 25.28 27.43 28.81 28.19 29.89 28.26 35.18 34.67 33.04 35.60 40.06 39.28 36.79 35.40 34.57 34.24 34.51 35.10 30.50 29.60 27.58 23.27 24.30 12.57 27.18 37.31 37.77 34.92 36.14 36.94
43.33 42.92 42.69 42.54 43.02 43.37 43.86 44.26 44.52 44.35 44.37 39.09 34.41 32.35 30.02 21.32 27.01 26.20 27.87 28.37 30.08 30.91 30.77 33.01 34.40 36.67 39.03 36.70 29.30 27.52 26.23 27.28 28.95 32.37 33.82 32.93 30.05 24.40 19.16 20.32 24.19 28.31 35.52 33.57 31.72 31.84 38.68
43.34 43.45 42.82 42.46 43.07 43.22 43.68 44.06 44.40 44.55 44.83 41.17 38.82 37.40 32.73 23.88 22.91 29.24 27.45 28.09 26.06 28.03 28.44 32.12 35.07 37.92 36.33 29.85 27.59 22.80 20.30 24.95 24.50 25.86 33.37 32.83 31.07 26.69 23.91 19.22 13.44 25.69 37.51 40.82 39.93 28.94 36.84
42.36 42.36 42.31 42.73 42.83 43.18 43.50 43.96 44.23 44.54 44.88 42.31 39.20 39.18 35.00 26.57 28.19 29.16 25.65 26.82 31.75 29.70 27.79 29.56 29.85 32.03 33.04 25.93 22.83 21.40 22.49 28.36 23.36 23.90 25.88 27.35 27.90 25.08 23.62 22.94 25.09 34.20 39.19 41.59 29.41 30.32 34.95
42.39 42.00 42.07 42.13 42.73 43.09 43.67 44.09 44.33 44.55 45.10 42.71 39.15 39.44 35.66 29.29 27.59 31.94 32.78 28.14 28.87 27.77 23.68 28.47 27.39 28.47 30.25 26.69 26.28 25.02 23.52 26.60 26.55 28.17 27.36 26.23 25.46 24.95 26.68 23.66 19.86 38.08 39.48 33.60 37.28 36.56 34.17
41.33 41.65 42.13 42.63 43.02 43.77 44.02 44.15 44.26 44.67 45.10 44.00 37.16 39.66 38.79 32.32 28.09 33.31 35.37 35.67 33.45 32.78 29.60 31.06 29.43 31.62 32.39 30.40 29.19 29.70 26.40 26.67 26.63 22.25 31.64 26.60 30.71 28.04 28.82 28.08 35.45 35.43 35.42 36.53 36.33 34.08 35.96

GFSGBSN_sfc_wetblb_087.txt.gz
Wetbulb
51.51 51.42 51.75 52.14 51.85 51.21 51.31 51.47 51.27 51.16 51.10 51.12 51.60 51.14 51.08 51.13 50.94 50.41 50.33 50.56 49.63 49.69 50.21 50.80 51.23 51.32 47.35 38.69 38.32 47.06 51.43 50.66 52.94 54.23 50.24 49.79 44.02 42.04 39.45 40.53 41.87 42.58 43.97 45.94 46.60 46.93 46.49
50.53 50.61 50.56 50.56 50.37 50.19 49.99 50.30 50.51 50.86 51.18 51.41 51.14 51.09 50.84 50.55 50.40 49.91 49.59 50.24 49.99 49.90 50.25 50.99 51.41 50.54 43.97 33.05 45.50 46.92 47.71 48.11 46.04 52.98 50.63 51.11 47.82 46.07 42.60 41.34 40.85 42.66 42.66 43.46 44.78 45.00 45.58
50.68 50.37 50.04 49.76 49.54 49.70 49.70 50.31 50.00 49.74 49.91 49.57 49.50 49.67 49.90 50.29 49.80 49.50 49.30 49.88 49.78 50.44 50.97 52.58 52.08 48.54 41.96 38.90 46.84 47.97 47.75 46.89 46.87 47.07 48.52 50.43 50.61 44.58 43.97 40.44 43.62 43.25 39.63 42.76 43.92 45.43 44.67
51.15 50.54 49.61 49.52 49.30 49.14 49.44 49.52 49.52 49.59 49.45 49.06 49.26 49.20 49.50 49.55 49.38 49.20 49.40 49.64 49.98 49.77 51.96 52.11 52.00 47.02 39.81 48.80 49.98 48.47 48.68 47.14 48.24 47.73 46.33 48.19 47.63 45.07 43.13 44.05 41.84 39.61 40.26 35.80 42.09 43.44 44.79
50.85 50.30 49.96 50.27 49.61 48.96 49.61 49.54 49.63 49.39 49.19 49.06 48.80 48.63 48.59 48.97 49.00 49.10 49.23 49.51 49.37 50.25 51.28 51.49 46.94 44.08 38.24 50.71 46.86 50.77 49.65 46.41 47.21 47.19 46.84 48.68 46.75 43.41 41.23 38.30 35.46 35.93 32.58 34.82 38.17 44.00 43.55
51.30 50.88 50.01 49.22 48.57 48.19 48.81 50.37 49.82 49.01 48.85 48.72 48.29 48.37 48.23 48.37 48.90 48.75 48.79 48.16 48.29 50.33 48.14 49.68 47.80 40.29 43.45 42.62 48.22 49.48 50.00 48.86 46.03 44.69 43.03 43.33 41.76 38.88 37.31 36.04 28.07 30.68 32.08 34.90 35.91 41.14 41.84
50.35 49.20 48.75 48.27 47.80 47.85 48.38 48.96 48.83 48.45 48.22 48.24 48.03 48.09 48.26 48.03 48.51 48.90 44.78 41.04 37.45 37.01 37.92 33.64 35.69 36.63 38.83 42.69 47.61 46.52 48.38 46.03 44.79 44.87 37.27 40.59 36.30 32.97 35.64 37.95 36.97 36.06 34.71 33.59 36.27 39.65 37.96
48.46 48.28 47.83 47.98 48.05 48.31 48.48 48.20 48.01 47.72 47.53 47.44 47.62 47.94 47.92 48.05 48.18 47.15 40.82 36.71 36.43 37.19 31.20 38.26 38.01 38.38 41.12 42.63 36.87 41.56 46.72 40.77 41.40 37.76 40.70 37.95 33.98 38.21 38.62 37.78 36.65 35.65 33.29 33.03 36.77 39.04 39.32
48.33 47.81 47.14 46.74 46.61 46.61 46.95 47.10 46.90 46.86 46.98 47.16 47.42 47.73 47.61 47.62 46.85 41.47 38.18 38.13 42.25 40.67 32.41 34.85 39.25 38.76 39.87 41.59 36.54 37.61 42.43 41.21 38.74 37.29 38.43 35.49 38.02 41.00 37.32 35.68 33.83 34.34 33.27 33.81 34.39 39.01 41.05
48.52 46.88 46.41 45.89 45.53 45.97 46.12 46.43 46.47 46.54 46.50 46.31 46.70 47.38 47.37 47.72 39.76 39.68 36.26 41.09 41.82 41.21 28.52 29.92 35.35 39.72 41.79 42.59 36.80 43.98 43.83 41.64 38.57 35.80 38.87 38.07 41.20 39.54 37.29 36.16 36.94 32.54 38.49 37.70 37.18 35.46 30.46
47.39 46.75 46.13 45.54 44.99 45.02 45.05 45.18 45.71 45.83 45.77 45.86 45.99 46.50 46.94 46.02 40.10 36.78 39.70 41.90 42.14 39.93 15.13 32.19 35.80 45.87 42.96 38.29 39.53 40.18 44.33 41.00 36.41 37.24 39.17 35.60 37.85 37.31 36.35 37.60 38.92 36.51 40.85 38.55 37.49 35.33 34.37
46.99 46.45 45.77 45.18 45.05 44.70 44.47 45.40 45.54 45.37 45.43 45.67 45.72 45.98 46.38 41.67 39.30 39.85 40.86 40.80 40.27 25.67 15.07 27.88 35.48 33.48 33.32 37.33 38.92 39.93 39.29 42.47 41.21 39.02 39.48 37.21 41.73 40.65 39.65 40.77 41.47 41.62 37.95 37.57 37.50 35.48 27.84
45.69 44.95 44.65 45.15 44.50 44.55 45.20 44.91 45.22 45.09 45.16 45.30 45.60 45.64 43.78 43.46 36.12 40.44 40.56 37.56 24.46 16.84 29.73 26.36 28.38 31.47 31.44 34.21 36.48 37.01 34.67 33.13 33.26 29.29 30.83 35.34 36.73 40.00 41.57 37.26 39.90 38.68 34.88 28.54 26.60 26.10 25.80
44.65 44.62 44.76 43.55 44.26 44.56 44.76 44.70 44.70 44.99 45.27 45.55 45.43 44.80 41.12 41.86 40.66 40.38 37.86 29.79 15.82 23.64 24.55 31.42 29.69 30.49 28.46 33.63 34.31 34.60 33.46 30.49 36.33 34.24 31.25 28.73 26.64 36.28 40.48 38.05 35.53 35.80 34.86 29.33 21.77 24.46 28.33
44.03 45.08 44.58 44.38 44.37 43.81 44.22 44.38 44.43 44.78 45.16 45.05 44.07 37.29 36.56 38.47 40.10 38.57 31.41 19.04 20.13 25.32 27.96 26.21 28.61 26.67 28.96 31.32 31.72 32.11 31.13 32.16 35.51 36.45 30.89 28.87 29.48 37.91 39.51 40.18 40.23 36.16 32.70 38.01 31.52 32.97 28.82
43.94 44.61 44.36 43.33 42.69 43.68 43.75 44.02 44.55 44.59 44.59 44.24 36.97 34.49 33.93 38.55 40.19 36.55 26.41 21.03 24.25 28.64 28.87 28.01 21.89 28.20 23.14 26.17 25.65 28.19 29.17 36.04 35.07 37.89 39.06 34.66 29.40 36.78 38.74 40.78 40.37 38.62 41.02 31.92 32.41 22.92 22.56
43.00 44.07 43.20 42.72 42.68 43.24 43.64 43.90 44.05 44.19 43.93 42.96 34.48 29.77 34.48 39.47 39.94 32.95 20.81 22.76 26.23 30.59 30.62 26.61 24.84 23.63 24.68 24.13 27.48 26.36 28.65 35.71 38.67 37.46 39.07 37.42 34.75 33.08 38.55 35.92 34.55 36.25 34.37 34.92 35.23 33.29 27.47
41.98 42.33 43.04 42.01 42.64 43.76 43.67 43.67 43.82 43.91 43.19 37.99 31.95 22.75 35.69 39.04 26.97 27.98 23.89 26.88 30.46 28.70 31.31 28.69 29.08 27.48 25.46 26.55 27.51 27.11 27.61 31.15 35.45 38.21 35.57 38.09 34.44 29.64 31.69 37.47 40.61 39.29 36.14 35.85 29.54 27.92 32.06
42.47 42.52 42.08 41.61 42.71 43.64 43.43 43.46 43.34 43.52 42.68 34.26 28.61 28.18 35.39 35.72 18.60 21.70 26.21 26.67 28.27 27.34 27.90 27.84 26.99 29.08 29.64 26.50 22.86 27.23 30.44 36.22 35.39 35.65 36.88 38.17 32.42 25.92 29.51 34.83 38.62 35.63 36.74 34.80 33.58 32.42 29.47
42.68 42.21 41.96 42.00 42.85 43.95 43.22 42.65 42.43 43.28 43.36 35.27 27.60 20.27 26.64 32.91 27.67 25.00 23.69 24.00 24.50 30.43 29.20 30.04 28.55 30.44 27.37 25.68 29.09 26.59 27.72 34.06 35.04 38.91 40.42 39.46 32.91 28.78 24.90 27.84 32.43 29.65 32.73 33.89 33.73 28.44 28.61
42.43 41.74 42.04 42.94 43.83 43.24 42.57 42.22 42.21 43.11 43.63 35.13 28.53 23.41 26.87 19.88 24.43 26.47 25.46 24.71 23.46 23.84 29.60 30.46 27.57 27.54 26.53 23.69 27.63 26.82 31.45 32.89 35.79 38.74 38.46 36.28 29.82 31.80 31.73 32.44 32.48 31.62 31.48 32.73 30.93 31.83 27.53
42.56 42.53 42.94 43.36 42.83 42.43 42.43 42.84 43.13 43.45 43.14 34.68 28.05 26.55 30.54 27.03 26.71 22.34 25.31 23.58 24.13 26.47 28.37 26.58 26.99 28.22 29.02 25.72 28.88 27.83 32.04 32.49 32.35 36.67 35.97 36.90 29.52 31.16 28.65 31.46 31.26 29.13 31.60 31.98 31.58 32.05 32.05
42.49 42.15 42.13 42.35 42.76 43.19 43.27 43.48 43.48 43.70 42.08 35.81 35.94 36.09 30.74 25.92 26.04 23.44 22.98 24.86 26.77 29.45 30.44 31.13 29.82 29.68 28.52 31.04 35.36 36.49 36.93 36.98 36.50 34.47 34.11 33.03 31.21 28.65 24.22 28.74 29.00 24.71 29.74 31.90 33.25 35.67 36.02
41.94 41.97 42.66 42.84 42.56 42.93 42.83 43.13 43.55 44.07 42.26 37.17 34.77 34.19 28.08 21.81 25.18 25.10 26.73 27.65 27.12 28.59 26.54 30.47 34.17 31.36 35.40 39.82 39.43 38.43 37.59 36.51 36.13 35.89 36.74 31.83 30.20 29.71 24.96 26.28 17.03 29.94 35.66 37.04 35.80 36.50 37.47
41.78 42.28 43.03 42.43 42.30 42.53 43.04 43.66 44.03 44.22 44.29 39.16 36.13 34.02 29.48 23.05 26.58 25.91 26.37 27.34 28.74 30.13 30.07 31.29 31.90 35.22 37.76 37.08 32.01 28.66 28.72 29.93 31.35 33.39 34.68 34.88 31.97 26.90 23.61 23.24 26.73 30.51 36.48 34.90 34.17 32.91 35.07
42.45 43.03 43.40 42.60 42.51 42.79 43.11 43.53 43.86 44.17 44.32 41.10 38.40 38.38 34.24 25.76 24.01 28.70 27.41 27.97 25.43 27.25 27.79 30.31 34.39 37.30 35.98 32.24 29.49 23.67 22.11 25.95 25.46 28.83 35.12 34.18 34.00 29.87 25.54 19.78 17.09 27.96 36.65 40.71 40.33 29.58 34.48
42.24 42.77 43.53 42.81 42.53 42.87 43.11 43.46 43.71 44.17 44.58 42.31 40.07 40.05 35.37 27.50 29.31 29.81 26.76 26.59 31.18 28.85 26.36 28.97 29.48 32.06 35.44 30.02 26.71 24.21 23.84 29.20 24.02 24.45 26.60 27.66 27.66 25.21 24.61 23.01 26.89 33.78 37.42 41.40 28.79 29.15 34.37
42.62 42.28 42.44 42.29 42.57 42.49 42.80 43.29 43.70 44.11 44.53 42.00 39.81 40.35 35.83 28.96 29.33 32.40 33.52 30.23 30.12 29.27 25.22 29.28 29.21 30.84 31.13 27.73 27.52 26.91 26.03 28.03 28.10 29.65 28.42 27.61 26.22 25.92 26.51 23.90 20.79 34.40 37.23 31.82 35.18 34.51 34.01
42.05 41.83 41.47 41.58 42.09 42.65 43.13 43.80 44.23 44.20 44.61 43.66 37.82 40.46 40.05 33.71 31.27 34.71 36.28 36.37 34.40 34.30 31.77 32.00 30.50 31.91 33.09 28.27 29.73 30.73 26.54 29.17 27.15 24.58 32.15 27.78 29.25 26.09 30.51 28.95 32.39 32.90 31.46 32.86 33.98 32.89 32.89

GFSGBSN_sfc_wetblb_090.txt.gz
Wetbulb
53.28 53.00 52.90 52.51 52.16 51.17 50.78 50.48 50.67 51.13 51.50 51.29 51.06 50.92 51.00 50.76 50.68 50.45 50.19 50.32 49.70 49.54 50.45 51.42 51.96 51.50 50.07 43.20 42.51 48.69 51.34 53.76 54.65 55.12 52.24 50.07 47.41 46.90 43.37 44.91 46.57 45.61 46.50 47.70 48.87 48.86 48.77
52.28 51.94 51.91 51.78 51.13 50.29 49.80 50.35 50.08 49.93 49.77 49.41 49.49 49.57 49.78 49.98 50.11 49.83 49.40 50.08 49.95 49.65 50.55 51.44 52.58 50.80 47.66 39.34 47.34 49.92 49.83 49.61 49.38 53.23 51.23 51.24 49.26 49.17 46.00 45.24 44.14 46.63 46.08 47.12 47.77 47.68 48.21
51.58 51.44 51.34 50.72 50.23 49.99 49.87 49.75 49.35 49.30 49.25 48.93 49.12 48.90 48.92 49.10 49.07 49.01 49.03 49.27 49.53 50.19 50.49 52.86 52.81 51.26 45.97 44.14 50.70 51.42 50.00 48.86 49.37 48.95 49.60 51.60 52.44 49.76 48.30 45.95 48.59 46.78 43.59 46.32 47.21 47.84 47.30
51.57 51.27 50.88 50.29 50.07 49.77 49.34 49.15 49.19 49.04 48.82 48.96 48.95 48.75 48.55 48.73 48.93 48.78 49.10 49.62 49.91 49.89 51.75 52.18 52.77 50.34 43.36 51.55 53.50 52.17 53.65 51.88 51.64 50.00 48.30 49.26 50.28 49.13 48.07 47.89 45.39 42.47 43.17 39.10 44.37 46.27 47.17
51.98 51.16 50.83 50.46 50.24 49.34 49.14 50.00 49.63 48.99 48.73 48.66 48.51 48.31 48.38 48.65 48.55 49.40 49.78 49.81 49.13 50.13 51.74 52.10 50.27 48.06 42.36 51.79 49.40 53.32 53.57 50.17 50.92 50.49 49.54 48.14 48.47 45.79 45.06 41.12 39.25 40.87 36.12 38.38 40.60 46.22 45.86
51.86 51.02 51.34 50.30 49.17 48.33 48.88 50.45 49.36 48.55 47.96 48.09 48.12 47.92 48.32 48.37 48.56 49.23 48.53 48.24 49.15 51.27 49.93 51.21 50.93 43.70 47.01 43.71 46.59 51.14 51.10 51.38 48.55 47.50 45.44 43.67 44.00 41.44 40.58 38.93 32.51 35.22 35.30 36.96 37.81 42.89 44.80
52.01 51.27 50.20 49.21 48.43 48.12 48.45 49.14 48.25 47.62 47.44 47.46 47.62 48.17 48.17 48.11 48.12 48.51 47.69 48.84 43.20 43.22 42.12 38.66 39.87 39.35 40.56 44.77 46.92 44.97 47.62 48.68 48.86 45.32 38.75 40.84 37.88 36.64 39.14 39.51 39.36 38.03 36.97 37.45 40.97 42.99 40.78
50.55 49.87 49.18 48.75 48.88 48.88 48.84 48.21 47.20 46.80 46.77 47.13 47.30 47.88 48.08 48.15 47.94 46.67 47.19 41.24 39.41 40.78 33.85 41.64 41.67 41.50 43.69 44.99 39.29 44.93 46.88 42.71 43.43 40.04 41.61 38.59 35.72 40.44 41.42 40.59 38.75 38.06 35.65 35.74 39.27 41.69 41.45
49.27 48.86 48.46 48.01 47.54 47.24 46.93 46.70 46.31 46.57 46.43 46.43 46.75 47.50 47.69 47.59 46.35 46.57 43.81 41.79 46.17 44.69 35.07 39.10 41.51 41.80 43.18 44.06 40.65 42.45 44.63 42.09 39.88 39.71 40.95 36.63 39.78 41.99 39.76 38.13 36.31 37.37 36.03 36.91 36.92 40.57 43.14
48.95 48.08 47.61 46.86 46.77 46.73 46.54 46.31 45.64 45.71 45.83 45.99 46.18 46.49 47.07 46.93 43.92 44.53 42.68 45.69 47.10 45.88 33.22 34.21 37.98 43.08 43.07 44.73 40.41 46.15 47.24 43.64 39.64 36.59 40.46 40.35 43.47 40.92 40.07 38.11 38.49 34.54 40.38 38.84 37.99 38.12 34.96
48.65 47.43 46.92 46.47 46.00 45.75 45.32 45.37 45.44 45.24 45.42 45.66 45.90 46.08 46.26 45.57 43.89 42.26 43.18 46.82 46.92 44.58 22.02 34.53 37.91 47.82 43.23 38.63 40.65 41.81 47.58 44.03 38.43 38.06 40.56 38.20 39.10 38.64 37.88 39.04 40.72 37.51 42.35 40.90 40.30 39.12 38.20
47.98 47.41 46.77 46.19 45.85 45.19 44.93 45.50 45.16 45.12 45.14 45.35 45.71 45.70 45.45 44.87 45.98 44.78 46.51 46.69 45.92 31.34 21.93 30.95 36.29 36.02 35.88 37.15 39.21 42.89 42.63 44.83 43.59 39.05 40.97 40.49 44.58 42.31 41.58 42.75 42.86 43.77 41.17 40.48 40.26 38.65 32.33
47.49 46.62 45.98 45.98 45.46 45.21 45.60 45.48 45.01 44.70 44.89 45.56 45.55 45.43 44.55 45.91 40.24 46.31 46.28 43.22 29.85 23.31 32.43 29.32 30.80 34.27 33.83 33.99 36.66 39.09 37.59 37.35 34.68 30.85 33.11 38.12 38.94 42.63 43.60 40.02 42.73 41.59 37.35 31.12 30.02 29.82 30.14
46.17 45.63 45.70 44.73 45.19 45.15 45.11 44.85 44.54 44.68 44.92 45.37 45.14 43.34 42.99 44.76 45.98 45.99 44.00 34.48 21.32 27.42 28.18 33.84 32.50 32.57 30.36 34.81 34.46 36.78 35.30 34.09 38.57 37.53 34.74 32.15 29.55 38.22 42.54 40.29 37.37 38.44 38.43 33.00 25.47 28.46 33.45
45.27 45.74 44.96 44.68 44.88 44.60 44.73 44.39 44.41 44.43 44.55 44.77 43.63 45.51 44.18 44.89 46.71 46.03 37.60 24.99 25.67 27.70 29.90 28.41 30.22 27.90 30.05 33.23 32.03 32.78 33.14 32.28 36.77 39.38 32.73 32.13 32.20 40.50 42.02 42.86 42.26 38.20 35.02 40.77 33.99 35.80 32.38
44.73 45.68 45.17 44.24 43.74 44.79 44.42 44.21 44.24 44.04 44.17 44.05 43.52 42.35 41.25 45.65 46.88 43.31 33.68 23.73 26.98 31.10 31.47 30.28 23.88 28.40 25.01 28.97 27.90 29.84 30.46 34.59 35.46 39.66 42.15 37.67 31.18 39.11 40.99 43.34 43.16 41.12 43.14 33.30 35.87 25.54 25.74
44.67 45.68 44.76 43.62 43.01 44.22 44.09 44.25 43.79 43.92 43.76 42.28 42.84 37.30 42.21 46.08 45.48 38.11 27.72 26.66 28.99 33.04 32.71 28.34 26.80 25.87 27.04 25.91 27.97 27.96 29.13 33.16 33.07 35.49 38.32 38.11 37.42 35.92 40.04 38.15 37.30 38.15 36.95 37.73 37.58 35.71 29.33
43.64 44.14 43.96 43.64 43.94 44.19 44.10 44.02 44.02 43.67 43.02 41.96 40.71 32.84 43.06 44.28 33.99 33.87 29.42 28.98 31.53 31.23 33.48 31.41 31.33 30.00 28.17 29.15 28.05 28.50 28.91 32.37 36.72 34.74 30.59 41.01 37.77 32.97 35.03 40.95 43.23 41.34 38.66 38.69 33.09 30.72 34.63
43.11 43.27 43.14 42.83 43.42 43.98 44.23 43.86 43.50 43.54 42.74 42.89 36.47 36.53 42.49 41.96 28.22 30.06 30.35 29.30 30.80 30.42 30.57 29.95 29.23 31.65 32.69 28.40 24.14 29.03 30.54 36.24 36.19 33.71 34.18 40.86 36.39 30.35 31.69 36.29 40.18 37.62 38.53 38.29 36.41 36.37 32.23
43.41 43.26 42.59 42.41 43.20 44.31 43.94 43.35 42.70 43.44 42.74 43.11 37.45 30.97 35.88 38.77 34.63 27.97 26.65 27.23 27.62 32.86 31.62 32.13 30.85 32.91 30.74 28.73 31.34 26.76 28.49 32.93 33.93 33.77 36.97 40.42 36.69 33.48 30.08 32.93 37.27 33.80 36.01 37.84 36.67 32.29 33.11
43.33 43.09 42.87 42.96 43.45 44.32 43.35 42.37 42.47 43.34 43.30 42.71 37.26 31.61 32.55 29.70 30.68 29.95 28.97 27.69 26.53 26.80 31.83 32.75 30.45 30.20 29.06 25.59 27.86 27.57 31.11 32.85 34.33 37.31 39.38 39.96 33.19 35.30 35.15 35.91 35.62 34.71 34.39 35.64 34.48 34.96 30.70
43.49 42.42 42.47 43.17 44.47 43.35 42.73 43.00 43.31 43.88 42.41 41.14 33.18 34.16 33.07 31.48 30.15 28.26 27.43 26.69 26.50 28.36 28.91 28.52 28.72 30.87 30.42 28.50 30.00 25.99 30.56 31.40 33.39 35.93 34.78 38.67 31.89 33.55 30.80 34.07 34.06 31.42 33.78 35.14 35.23 35.40 35.67
43.31 42.94 43.40 43.21 42.92 42.79 43.10 43.22 43.74 43.98 42.92 40.39 40.21 38.34 35.72 30.25 28.99 28.42 28.33 27.60 27.48 30.00 31.01 31.43 31.84 30.22 29.76 32.49 36.04 36.18 37.16 37.29 36.32 34.39 33.68 34.82 33.62 30.64 26.41 31.69 31.32 28.01 32.43 34.01 35.17 37.27 37.40
43.17 43.39 42.75 42.80 43.26 43.98 43.74 43.74 43.61 44.20 43.09 42.91 40.84 38.14 32.20 29.11 29.85 28.94 29.41 29.94 28.46 28.94 28.32 31.69 34.12 31.85 35.08 39.45 40.18 39.64 39.07 38.67 38.10 37.62 38.34 33.86 32.78 32.56 28.43 29.42 19.50 34.64 39.48 39.06 36.40 37.53 36.58
42.97 42.38 42.74 43.59 42.41 43.10 43.31 43.24 43.79 44.22 43.94 43.05 41.62 39.00 34.72 27.53 30.97 29.97 30.32 29.79 29.87 31.84 30.93 31.12 33.26 34.65 36.65 36.66 33.81 30.34 31.37 32.51 34.14 36.54 36.96 38.53 35.03 30.28 27.31 26.47 29.67 34.04 36.64 36.24 34.85 33.57 33.71
42.30 42.26 42.63 43.07 42.82 42.92 43.12 43.57 43.89 44.00 44.61 43.01 39.87 41.49 37.01 31.38 31.89 31.54 30.27 30.37 28.91 27.79 29.82 29.99 36.00 38.40 36.28 35.25 32.81 25.68 24.51 28.14 27.91 32.08 37.56 36.05 36.32 32.22 29.31 20.16 19.56 32.34 37.98 42.20 41.97 31.13 32.74
42.25 42.71 43.39 43.66 43.11 43.04 43.30 43.52 43.60 43.88 44.34 43.42 41.00 41.39 37.63 31.82 35.99 34.20 31.68 30.40 33.39 31.18 28.28 32.18 32.72 35.17 39.21 34.63 30.65 27.75 27.46 31.87 26.96 26.68 28.77 31.00 29.63 27.93 28.71 26.63 31.07 34.31 37.66 41.47 31.26 29.43 33.73
42.68 42.85 43.09 43.96 43.30 43.17 43.25 43.27 43.42 43.84 44.37 44.13 41.17 42.32 38.11 32.37 35.96 36.53 36.71 33.93 33.75 32.85 29.15 32.89 33.73 34.64 33.74 30.25 30.13 30.01 29.74 31.28 30.93 32.23 30.68 29.61 28.95 29.71 28.80 26.09 22.99 32.56 37.76 31.92 32.06 34.16 33.84
41.85 42.76 42.96 43.35 43.31 42.75 42.78 43.15 43.47 44.13 44.59 44.69 39.51 42.25 41.01 35.38 35.74 39.53 39.89 40.66 38.88 37.67 34.34 35.07 33.42 33.27 34.88 31.77 31.70 31.98 30.63 33.97 30.74 28.51 34.67 29.52 29.01 28.69 27.86 26.33 30.75 31.83 31.03 32.57 33.35 31.33 32.29

GFSGBSN_sfc_wetblb_093.txt.gz
Wetbulb
54.42 54.37 53.51 52.83 52.49 52.44 52.05 51.29 50.88 50.82 50.38 49.74 49.57 49.57 49.89 50.34 50.28 50.06 49.89 49.77 49.77 50.01 50.33 51.22 52.15 52.81 52.23 47.49 46.31 52.17 51.94 53.92 55.22 56.83 54.10 51.92 50.05 48.91 46.09 47.99 48.37 47.90 48.66 49.81 51.08 50.69 50.57
53.90 53.41 53.37 53.11 52.55 51.77 50.59 50.57 50.46 49.40 49.14 48.90 49.27 49.22 49.32 49.50 49.69 49.67 49.66 49.60 49.64 49.98 50.37 51.28 52.82 52.55 50.46 43.15 49.42 50.66 50.47 49.83 49.75 52.88 52.66 52.73 50.83 50.98 48.44 47.37 46.48 47.56 47.20 47.75 48.21 48.62 49.65
53.73 52.96 52.75 52.39 51.71 50.77 50.71 50.47 49.79 49.10 48.89 48.64 49.13 48.98 49.10 49.30 49.53 49.60 49.64 49.70 49.66 50.33 50.71 52.03 53.51 52.91 48.45 46.70 52.37 53.04 52.05 50.66 50.07 49.58 48.30 51.75 53.01 50.86 50.52 47.33 50.03 48.95 45.50 47.32 47.83 47.82 47.52
52.84 52.37 52.06 51.40 50.79 50.36 49.95 49.83 49.79 49.18 48.74 48.67 48.78 48.86 48.75 48.84 49.15 49.13 49.67 50.25 49.91 50.20 51.24 52.74 53.53 52.81 45.88 52.18 54.01 51.90 54.41 53.25 53.39 50.94 48.88 50.35 52.38 50.93 49.84 50.83 47.96 43.34 44.21 40.10 45.05 46.26 47.21
52.42 51.93 51.69 51.02 50.74 50.35 49.86 50.20 49.80 49.43 48.50 48.37 48.41 48.30 48.39 48.92 48.90 49.54 49.84 49.98 49.67 50.77 52.16 52.53 53.09 50.46 45.26 51.60 50.99 52.98 53.73 50.84 52.21 52.93 52.05 49.08 48.11 45.93 46.32 42.74 40.70 42.42 36.20 38.03 41.73 46.21 45.45
52.39 51.93 51.25 51.12 50.82 49.63 49.18 50.69 50.11 48.67 47.88 47.95 47.91 48.04 48.35 48.55 48.97 49.36 49.33 48.93 50.26 51.44 51.66 52.29 52.00 46.09 49.08 45.11 47.17 47.23 49.66 51.27 49.68 50.15 48.43 45.64 44.27 41.84 42.22 40.73 34.02 36.43 36.20 38.90 38.47 43.14 44.50
52.70 52.15 51.46 51.40 50.10 49.08 49.73 49.90 48.93 47.71 47.18 47.25 47.66 48.13 48.42 48.53 48.36 49.10 48.78 49.90 45.63 46.26 45.58 41.75 42.67 42.59 42.94 47.54 50.84 48.50 48.74 45.89 46.69 47.73 42.67 45.09 38.97 37.23 39.87 42.13 41.28 39.94 38.53 38.20 39.97 43.64 43.39
52.05 51.90 51.44 50.26 49.30 48.84 49.56 49.21 47.65 46.67 46.51 46.77 46.97 47.53 47.84 47.80 47.82 48.47 49.98 44.19 42.42 43.48 38.24 44.35 44.08 43.87 46.06 47.45 43.01 47.22 49.30 42.28 42.83 40.42 44.22 42.08 37.23 41.60 43.12 42.71 40.75 39.12 37.93 37.82 40.28 42.14 41.40
51.80 50.72 50.05 49.57 49.40 49.38 49.04 47.55 46.74 46.54 46.09 46.27 46.46 46.61 47.17 47.28 47.82 48.47 46.55 44.27 48.34 47.81 39.16 41.97 44.14 44.40 45.55 46.53 43.62 44.99 47.33 45.32 41.08 39.04 39.93 39.41 41.46 43.42 41.24 40.62 38.31 38.79 37.94 37.79 37.73 40.41 43.24
50.16 49.48 49.17 48.62 48.21 47.76 47.36 47.21 46.45 45.62 45.76 45.87 46.18 46.18 46.49 46.36 45.10 47.33 45.29 47.46 49.03 48.93 36.01 38.22 39.30 44.29 45.43 45.29 41.28 48.46 46.92 45.84 43.25 39.01 38.89 40.18 43.99 41.91 41.53 39.59 39.84 35.00 41.15 39.33 38.62 37.62 32.93
49.41 48.64 48.16 47.45 47.18 46.84 46.48 45.98 45.73 45.19 45.28 45.51 45.72 46.01 46.02 46.11 45.83 44.92 45.26 48.83 49.23 46.86 25.73 37.11 40.02 49.42 44.99 40.17 40.73 41.83 47.87 45.14 39.66 40.61 41.31 36.54 37.89 40.10 39.53 40.20 41.57 37.75 41.99 40.61 40.09 37.37 37.15
48.69 48.01 47.53 46.86 46.15 45.95 45.79 46.09 45.35 44.95 44.69 45.71 45.75 45.74 46.23 46.77 48.12 46.90 48.50 49.03 47.40 35.17 25.82 33.95 38.10 38.17 38.10 39.66 39.27 40.99 42.33 46.83 45.01 40.59 41.56 40.51 42.37 43.05 42.32 44.11 43.38 43.41 41.37 41.38 40.63 38.77 32.65
48.31 47.56 47.12 46.56 46.20 45.63 45.74 45.76 45.34 44.79 44.86 45.58 45.42 45.26 45.92 47.39 43.38 48.37 48.80 45.32 33.47 27.81 35.73 32.29 33.43 36.59 35.59 34.80 35.78 38.08 38.89 38.94 36.64 33.42 33.86 38.50 38.29 42.15 44.34 40.43 43.38 41.77 39.00 31.13 29.58 30.48 29.01
47.87 47.35 46.48 46.33 45.98 45.89 46.22 45.67 44.92 44.74 44.86 44.90 44.95 43.88 43.62 46.92 49.17 49.09 45.98 37.76 25.32 31.31 31.28 36.67 34.77 34.04 31.33 34.44 35.22 36.46 35.88 34.50 39.69 37.79 35.16 31.32 28.92 39.29 43.68 41.32 38.82 38.85 38.39 32.02 26.07 28.40 33.19
46.83 46.34 46.08 45.73 45.82 45.46 45.31 45.04 44.86 44.54 44.50 44.67 44.49 46.83 47.44 47.68 49.70 48.20 40.65 29.62 29.97 31.11 33.39 31.21 31.97 29.88 31.22 34.45 32.69 33.88 34.15 34.10 37.17 37.19 32.02 32.46 32.12 41.46 43.46 43.63 42.76 38.40 35.75 41.12 35.51 36.81 33.76
46.39 46.12 45.21 45.58 45.25 44.98 44.87 44.66 44.61 44.12 44.20 44.45 45.65 44.48 43.60 48.58 49.45 45.38 38.25 27.59 30.57 33.70 33.53 32.75 26.48 30.17 26.82 30.24 30.23 30.92 31.18 36.05 34.88 36.61 36.76 37.78 30.37 38.79 41.66 43.45 43.19 41.06 42.61 33.97 36.46 27.07 26.77
45.37 46.04 45.38 44.77 44.54 45.03 44.77 44.67 44.34 44.20 43.74 43.74 44.18 40.24 44.65 47.82 47.53 41.15 32.00 31.06 31.74 35.26 34.65 30.51 29.14 28.19 29.18 28.44 30.43 29.91 30.26 34.93 35.67 34.83 35.80 36.31 37.38 36.31 40.85 38.26 36.89 37.88 37.08 38.24 38.57 36.89 30.48
45.14 45.79 44.98 44.13 43.94 44.79 44.59 44.65 44.32 43.82 43.68 41.85 44.12 37.47 46.11 47.06 37.25 37.85 32.71 31.27 33.58 33.36 35.97 33.78 33.53 31.26 29.82 30.65 29.08 29.01 29.12 33.56 36.98 35.93 31.59 36.10 37.00 32.30 35.99 41.90 43.01 41.81 39.33 39.44 33.06 31.84 35.83
44.80 44.88 44.48 44.26 44.83 44.66 44.68 44.34 43.90 43.79 43.56 45.52 41.51 40.21 45.96 44.83 32.08 34.02 33.13 32.10 33.21 32.51 32.98 32.55 31.09 32.99 33.48 30.33 25.95 30.47 31.95 37.48 37.23 34.37 33.58 35.07 34.71 30.54 31.00 37.54 41.85 38.93 40.58 41.11 39.40 38.41 33.78
43.94 44.16 43.90 43.49 44.19 44.80 44.65 44.11 43.39 43.57 43.74 44.03 41.37 34.25 38.49 41.09 37.44 31.60 29.58 30.00 30.07 35.59 33.95 34.35 33.14 34.83 32.44 30.15 33.55 29.85 31.24 34.54 35.61 34.93 38.00 36.43 32.43 34.06 29.19 34.60 38.85 35.08 37.75 39.79 38.44 33.41 33.78
44.06 43.81 43.28 43.16 43.76 44.55 44.26 43.41 42.71 43.19 44.22 42.77 41.51 35.17 36.47 33.46 33.02 32.77 30.89 29.63 28.98 28.56 34.22 35.01 32.40 32.25 30.52 27.51 29.78 30.01 32.57 33.53 35.75 36.82 36.56 34.75 34.69 36.39 37.28 38.88 39.27 38.10 37.38 38.07 36.14 36.83 32.56
43.78 43.44 43.33 43.40 43.79 44.59 43.66 42.89 42.86 43.77 44.05 42.48 36.81 37.09 36.95 34.80 32.57 28.78 31.09 28.91 28.73 29.85 30.29 30.06 29.67 32.20 32.63 29.73 30.87 27.74 30.93 32.37 32.81 37.00 34.97 37.41 33.32 36.72 33.89 37.22 37.04 34.51 35.91 36.55 36.76 36.78 36.79
43.96 43.05 42.99 43.50 44.78 43.85 43.11 43.40 43.98 44.23 43.42 39.99 43.52 41.89 38.98 31.97 33.41 31.79 32.32 29.85 29.92 32.45 32.85 33.76 32.71 31.78 31.73 34.07 37.46 37.67 38.73 37.31 36.47 34.95 34.71 34.90 35.85 34.21 28.36 34.38 33.15 29.61 33.90 35.24 36.24 39.12 37.80
44.00 43.44 43.67 43.94 43.70 43.40 43.52 43.84 44.17 44.25 43.63 42.72 42.96 42.37 35.04 32.59 33.54 32.62 32.17 33.01 31.06 30.99 29.38 33.41 34.71 32.12 36.05 40.27 39.49 40.44 39.26 38.14 38.56 37.65 38.32 35.12 34.66 34.64 27.66 30.61 23.83 34.97 40.98 39.93 38.02 37.86 38.68
44.36 43.82 43.83 43.25 43.35 43.96 44.18 44.15 43.91 44.49 44.37 42.92 44.34 39.54 35.01 30.32 34.63 33.15 32.91 33.15 34.62 34.44 33.21 33.19 35.10 36.45 39.01 35.93 32.00 32.01 32.59 34.32 35.40 37.60 37.18 39.23 35.51 30.28 28.61 30.00 32.33 35.40 37.41 36.85 35.89 32.75 35.36
43.53 43.49 43.05 43.07 43.54 43.26 43.81 43.56 44.13 44.61 44.63 44.41 44.47 45.56 40.36 33.15 34.34 35.22 33.45 34.83 32.57 31.15 31.64 32.80 39.46 41.39 38.07 35.24 33.28 26.98 26.10 29.97 28.98 32.07 38.27 37.79 38.19 33.96 31.52 25.81 22.94 32.12 38.23 41.91 40.76 28.07 33.42
43.26 43.11 43.14 43.69 43.51 43.24 43.34 43.81 44.08 44.17 44.81 44.87 45.16 43.65 39.36 35.54 38.45 37.43 34.25 32.81 36.31 34.78 33.27 35.82 36.28 37.38 40.81 34.51 31.58 29.50 28.79 34.05 28.43 28.45 29.67 32.32 32.97 30.62 29.90 29.80 31.54 33.48 38.55 40.51 30.83 26.43 32.81
43.02 42.58 43.52 43.82 43.91 43.58 43.74 43.81 44.12 43.95 44.13 45.32 43.42 45.09 40.66 37.64 38.15 39.48 39.63 36.27 36.71 36.46 32.44 35.95 36.90 36.87 35.53 31.20 30.81 31.50 30.86 32.95 32.67 33.87 31.37 30.84 29.55 30.47 31.09 28.83 25.61 33.39 37.27 30.05 30.44 34.11 34.30
43.04 43.23 43.37 43.74 43.98 43.89 43.76 43.68 43.78 43.90 44.30 44.95 40.56 44.72 43.28 36.69 38.47 42.69 42.49 43.11 41.32 40.20 37.29 37.87 34.72 35.54 36.73 32.12 32.39 33.25 32.51 34.54 32.91 28.86 36.33 30.21 30.39 28.53 28.61 26.67 31.86 32.39 31.25 32.59 33.96 32.02 32.57

GFSGBSN_sfc_wetblb_096.txt.gz
Wetbulb
55.55 55.53 55.04 54.68 53.61 52.95 52.77 52.80 52.32 51.36 50.87 50.04 49.72 49.78 49.83 49.83 49.96 50.24 50.04 50.12 50.36 50.59 50.76 51.11 51.91 52.93 52.33 48.36 48.35 53.11 56.49 55.43 53.10 55.27 53.67 52.09 49.49 48.29 43.88 45.16 46.07 45.81 47.13 48.75 50.28 50.43 50.31
55.44 54.81 54.86 53.81 53.44 53.03 52.69 51.98 51.50 50.85 49.95 49.18 49.45 49.51 49.53 49.64 49.81 50.08 50.12 50.08 50.46 50.29 50.57 51.10 52.18 53.23 48.78 42.97 51.03 51.60 50.82 49.88 49.34 49.16 51.86 51.63 49.68 50.48 47.52 46.37 45.77 47.23 47.16 46.84 47.99 48.50 48.74
54.42 54.94 54.30 53.40 53.29 52.59 51.80 51.32 50.93 50.22 49.59 49.08 49.29 49.63 49.44 49.22 49.43 49.82 49.84 50.20 50.74 50.50 50.74 51.62 52.90 52.94 48.01 46.88 52.85 53.50 52.00 50.56 50.19 48.27 46.30 49.84 51.41 49.14 49.03 46.41 49.05 47.18 43.62 45.33 46.19 46.45 45.97
54.83 54.45 53.97 53.55 52.61 51.76 50.97 51.05 50.44 50.17 49.93 49.31 49.29 49.33 48.98 49.07 49.44 49.50 49.53 50.42 50.67 50.65 51.22 52.57 53.99 52.01 46.17 53.98 53.59 51.25 51.95 51.86 53.74 52.65 48.76 48.75 49.21 47.76 47.41 49.15 46.86 44.14 44.40 39.43 45.49 46.98 47.51
54.05 53.64 53.49 52.62 51.64 51.06 50.45 50.22 50.24 50.39 50.00 49.03 48.90 48.57 48.83 49.05 49.51 50.04 50.15 50.22 50.55 50.97 52.02 53.10 51.96 51.41 45.12 52.72 48.09 53.30 53.43 50.60 52.15 52.57 52.74 51.17 46.86 44.04 45.87 42.47 40.24 41.83 37.00 38.87 41.23 45.20 44.33
54.04 53.45 52.68 52.02 51.07 50.74 50.32 49.86 50.82 50.40 49.26 48.53 48.16 48.14 48.73 48.86 49.53 49.41 49.54 49.74 51.11 50.63 52.01 52.89 52.54 45.81 49.17 46.04 47.88 49.19 49.90 47.92 47.60 47.36 48.17 47.71 43.87 39.57 39.85 38.61 32.80 36.09 36.88 38.75 38.64 42.56 43.12
53.53 52.48 52.12 51.64 51.03 50.99 49.91 50.46 50.67 49.26 48.02 47.63 47.61 47.79 48.21 48.13 48.61 48.97 48.46 50.13 45.26 45.36 48.42 43.09 43.56 46.54 46.34 47.10 48.92 48.31 50.44 48.30 46.01 42.92 39.38 45.08 39.00 35.12 37.98 39.94 39.73 39.63 38.90 38.03 40.93 43.04 41.99
52.52 51.77 51.68 51.45 51.63 50.38 49.65 50.33 49.37 48.16 47.01 47.06 47.04 47.11 47.38 47.58 47.78 48.97 48.51 44.53 43.38 43.64 36.99 44.03 44.07 44.19 45.61 46.10 42.32 46.72 50.19 43.35 41.73 37.08 40.12 40.16 37.57 41.68 41.93 40.58 40.07 39.56 37.86 37.72 40.61 42.56 41.19
51.57 51.65 51.41 51.96 50.76 49.80 49.43 50.03 48.34 47.17 46.62 46.42 46.56 46.72 47.01 46.89 47.09 46.70 46.81 44.16 48.38 48.38 38.18 41.51 45.57 43.85 44.78 46.48 43.12 44.43 47.24 45.19 41.79 38.86 38.64 36.21 39.40 43.34 41.69 39.71 37.71 38.83 37.95 37.60 37.21 40.22 41.12
51.11 51.83 51.66 50.71 49.99 49.80 49.70 48.47 47.64 46.71 45.94 45.77 46.10 46.38 46.65 47.07 44.23 47.25 45.97 47.62 49.08 49.69 34.09 38.83 40.10 43.41 46.08 45.98 40.71 47.19 48.09 44.48 40.76 37.70 39.59 38.83 41.45 38.81 38.75 39.02 39.43 34.99 41.13 40.09 38.55 36.68 31.60
51.23 51.17 50.24 50.03 49.41 48.61 47.84 47.50 46.62 45.81 45.31 45.20 45.90 46.38 46.63 46.66 45.89 44.84 45.71 48.62 48.92 47.45 25.86 39.26 41.04 49.42 45.98 41.13 41.33 41.27 45.96 41.98 36.64 37.69 38.78 36.06 37.99 38.13 36.07 38.38 41.65 38.25 42.00 39.97 39.28 36.57 35.77
50.59 49.71 49.13 48.44 47.90 47.20 46.71 46.20 46.08 45.57 44.71 45.17 46.07 46.11 46.34 47.01 47.88 47.50 48.40 48.42 46.69 33.49 26.17 35.24 39.20 38.63 38.10 39.97 39.59 40.68 40.26 42.39 41.63 38.42 39.68 38.01 41.59 40.32 39.86 40.04 42.00 43.37 40.25 39.53 39.02 36.72 29.24
49.13 48.57 48.03 47.59 46.67 45.88 45.97 46.28 45.48 45.03 44.54 45.64 45.63 45.89 45.17 46.48 43.36 48.61 48.65 44.70 32.85 27.76 36.95 33.57 34.48 37.10 35.78 34.34 35.76 36.85 35.57 34.66 32.81 30.51 31.12 35.71 37.17 41.27 42.20 36.56 41.54 41.26 36.99 28.37 26.98 27.86 27.00
48.36 47.87 47.40 46.73 46.01 45.61 45.48 45.74 45.25 44.53 44.51 45.09 45.24 45.23 47.31 46.97 48.80 49.25 46.18 37.52 25.76 33.70 33.26 36.35 35.03 34.09 31.39 34.66 35.71 36.36 34.97 32.61 36.97 35.07 30.39 28.52 27.76 37.29 41.73 39.55 36.57 37.96 37.51 30.25 23.47 25.57 29.65
48.26 47.55 46.79 46.21 45.75 45.73 46.29 45.61 44.90 44.52 44.59 44.69 44.92 45.55 46.53 47.64 49.66 48.40 40.21 29.70 30.62 31.66 33.73 31.59 32.44 30.16 30.75 33.51 33.79 33.86 33.23 32.20 35.17 36.54 28.44 27.93 29.68 40.72 41.55 41.23 39.64 37.58 34.22 40.16 33.41 34.26 29.64
48.22 47.24 46.61 46.27 45.85 45.68 45.54 44.86 44.54 44.27 44.23 44.48 42.16 43.97 43.46 47.74 49.06 44.95 37.01 30.28 32.00 35.24 34.64 33.08 26.41 30.48 26.35 29.32 29.42 30.18 30.68 34.68 34.03 37.37 37.28 31.90 25.50 37.99 40.06 41.61 40.69 39.65 41.88 32.87 34.38 26.66 25.14
46.92 46.66 45.77 45.87 45.67 45.33 44.97 44.67 44.46 44.09 44.02 43.95 41.64 39.35 44.73 47.82 47.42 40.02 31.35 32.16 32.83 35.91 35.01 30.97 29.25 28.00 28.59 27.59 29.51 28.78 29.69 34.01 36.34 36.16 36.47 34.41 31.19 31.99 37.92 34.80 35.11 37.78 35.48 36.71 36.54 34.39 26.98
46.61 45.78 45.74 45.43 45.16 44.97 44.39 44.75 43.92 43.86 43.67 42.01 42.98 36.26 45.35 46.82 36.81 36.74 32.88 32.36 34.90 33.79 36.25 34.30 33.63 31.63 29.64 29.81 28.04 28.40 28.31 32.29 37.84 36.99 30.37 34.92 34.14 27.96 33.78 40.37 41.83 40.37 37.96 37.65 31.15 30.43 34.65
45.56 46.02 45.10 44.45 44.53 45.00 44.37 44.15 43.90 43.61 43.46 43.04 39.68 39.12 44.76 45.13 32.07 32.72 34.29 33.07 34.09 33.46 33.73 33.49 31.97 33.42 33.92 30.13 25.77 30.14 31.48 36.69 36.91 34.30 31.49 34.44 30.45 26.52 29.44 35.61 40.78 37.45 38.81 39.23 38.14 37.77 32.36
45.57 45.50 44.47 44.60 44.58 44.81 44.56 44.24 43.31 43.23 43.68 41.98 40.60 34.24 38.31 40.48 37.11 32.88 30.31 31.18 30.74 36.17 34.44 35.56 33.46 34.68 32.17 29.80 32.58 29.15 31.22 35.59 37.45 36.57 37.84 36.26 29.79 26.74 24.12 31.35 37.68 34.81 37.54 38.85 37.34 32.12 32.19
45.05 44.44 44.11 44.21 44.54 45.27 44.53 43.80 42.52 42.73 43.67 41.72 41.07 36.25 37.28 32.37 33.45 33.27 32.19 30.76 29.62 29.25 34.27 34.70 32.37 32.52 30.68 26.98 29.06 28.90 32.24 32.82 35.31 37.02 36.84 34.98 28.75 31.47 32.50 33.29 38.65 36.84 36.28 36.20 34.59 36.10 31.97
44.20 44.26 44.44 43.69 44.37 44.77 44.29 43.08 42.48 43.10 43.54 41.98 36.31 36.39 36.28 34.82 34.96 31.84 32.76 30.29 29.59 30.87 30.73 29.83 30.03 31.71 31.26 28.66 30.30 28.39 31.28 31.32 31.96 36.18 35.46 36.33 31.64 33.22 30.94 36.28 37.28 33.91 34.78 36.21 36.86 36.81 36.25
44.14 43.73 43.40 43.55 44.40 44.84 43.61 43.18 43.25 43.45 43.51 40.86 42.34 41.70 38.25 34.05 33.73 32.56 32.78 31.21 31.16 33.46 33.59 34.33 32.61 31.23 30.37 33.27 35.58 35.99 36.84 36.88 36.67 34.19 34.79 33.97 32.66 32.76 28.05 34.49 34.47 29.41 34.51 36.08 36.53 36.17 35.46
44.26 43.63 43.56 43.91 44.72 44.17 43.26 43.54 43.71 43.66 43.59 42.59 41.95 40.90 36.27 31.71 33.34 33.14 33.13 34.28 32.87 33.12 30.18 34.03 35.28 32.63 36.19 39.97 38.39 38.57 37.64 37.09 37.26 37.51 38.58 33.91 33.26 34.41 28.25 31.85 23.71 34.19 40.34 39.79 34.45 33.21 33.69
44.43 43.62 44.12 44.54 43.82 43.52 43.72 43.76 44.13 43.76 43.79 43.07 43.08 39.98 36.04 31.81 34.96 34.28 33.64 34.12 35.82 35.51 35.13 35.05 36.32 38.38 40.74 36.71 32.34 30.81 31.93 33.36 35.29 37.40 37.08 38.06 36.35 32.12 28.62 28.31 30.85 33.76 35.40 35.47 34.76 29.59 32.23
44.69 44.42 43.96 43.67 43.67 44.20 44.54 43.91 43.52 43.67 43.86 44.15 44.23 44.79 39.06 33.64 33.23 36.54 34.12 35.74 32.47 33.00 34.81 35.40 40.95 43.46 39.40 34.42 32.50 27.73 24.98 28.99 28.42 32.06 38.56 37.82 38.56 34.47 32.26 26.08 23.04 28.70 33.62 39.40 39.44 25.15 32.07
44.46 44.42 44.27 43.40 44.10 43.52 43.73 43.73 43.83 44.01 44.25 44.50 44.80 46.08 40.59 34.48 38.05 37.69 33.44 32.72 36.80 35.04 33.07 36.46 36.84 37.55 40.62 32.94 31.29 28.35 27.90 33.78 27.22 27.57 29.70 32.42 33.29 30.50 29.29 28.80 28.04 29.97 35.15 39.65 28.10 25.14 31.91
44.17 44.01 43.91 44.06 44.30 43.39 43.44 43.96 44.01 44.15 43.91 44.44 43.42 45.96 40.79 36.52 37.76 39.96 40.08 36.38 36.74 36.05 31.32 35.53 36.12 36.49 34.18 30.65 29.65 29.65 30.09 32.19 31.48 32.69 30.76 27.69 27.85 27.31 30.26 27.11 22.42 31.09 33.51 26.83 30.32 33.07 32.47
43.50 43.44 43.71 43.60 44.04 43.93 43.91 43.89 43.98 43.96 43.74 44.71 41.64 44.50 44.67 38.31 37.34 41.54 41.88 43.03 41.26 40.14 36.65 37.18 35.37 35.64 35.67 30.80 31.58 32.11 30.79 33.78 32.16 27.15 34.54 26.45 29.59 27.84 26.75 25.80 30.53 30.84 30.12 31.75 32.23 30.07 30.28

GFSGBSN_sfc_wetblb_099.txt.gz
Wetbulb
58.20 57.88 57.04 56.44 55.62 55.34 54.65 53.66 53.02 52.61 51.63 51.19 50.23 49.76 50.02 50.22 50.30 50.12 50.43 51.03 50.85 50.98 50.79 50.94 51.58 52.35 50.59 44.12 46.40 52.04 57.19 56.10 54.90 52.89 49.97 48.73 46.68 45.12 40.81 40.65 41.56 40.93 42.63 45.20 46.63 46.94 47.13
57.32 57.07 56.57 55.87 55.39 54.51 53.79 53.46 53.14 52.06 51.37 50.27 49.48 49.58 49.89 49.96 49.89 49.85 50.15 50.76 50.67 50.38 50.91 51.37 51.70 52.53 47.65 37.94 50.20 51.76 51.00 48.59 48.27 46.31 48.82 49.82 47.22 47.12 44.24 43.55 41.18 43.29 43.40 43.43 44.89 45.27 44.63
57.34 56.63 55.71 55.06 54.66 53.82 53.38 53.16 52.05 51.60 50.82 49.76 49.51 49.64 49.59 49.70 49.53 49.78 49.95 50.10 50.49 50.42 51.05 51.46 52.17 51.32 45.69 42.91 51.05 49.19 49.79 46.36 46.85 46.43 43.26 44.74 44.74 42.14 43.70 41.94 45.99 45.00 40.69 43.14 43.23 42.26 42.00
57.10 55.51 55.08 54.74 54.17 53.51 53.20 52.14 51.64 51.16 50.37 49.88 49.68 49.42 49.28 48.94 49.31 49.51 49.81 50.54 50.61 50.44 51.04 52.05 52.91 49.50 41.84 53.14 49.66 49.02 47.97 47.50 48.92 48.18 47.32 46.47 45.45 41.82 39.91 42.96 42.87 40.12 39.65 34.85 41.66 43.43 44.40
56.73 55.86 54.57 54.98 53.82 53.39 52.11 51.60 51.42 50.63 50.52 50.15 49.42 49.13 48.64 49.08 49.46 49.98 49.98 50.13 50.48 50.69 51.10 52.62 48.84 46.88 44.00 53.60 48.06 47.81 47.53 46.67 46.99 50.04 48.69 50.69 45.70 39.28 38.34 34.31 33.57 35.80 31.50 34.25 37.82 42.96 42.54
56.53 55.63 55.09 54.13 53.35 52.52 51.44 50.82 50.57 50.66 50.79 49.93 48.77 48.38 48.25 48.58 49.16 49.24 49.24 49.60 49.99 50.91 50.46 51.31 49.62 43.84 48.01 45.53 46.19 47.12 46.97 47.89 44.55 42.91 41.50 41.99 41.07 36.33 32.15 30.19 26.37 28.93 31.66 34.15 34.69 40.43 41.03
56.26 55.63 54.90 53.23 52.94 51.63 51.08 50.63 50.29 51.27 50.25 48.64 47.76 47.50 47.68 47.86 48.26 48.86 46.86 43.09 40.28 40.64 44.30 42.36 43.08 43.41 45.78 46.78 45.41 43.85 47.49 46.24 44.86 40.09 32.66 36.92 34.38 32.27 31.86 34.03 35.17 34.70 33.64 32.47 35.99 39.91 38.84
55.47 55.00 54.33 53.22 51.63 51.27 51.31 50.42 50.66 50.27 49.07 47.65 47.04 46.97 47.09 47.24 47.51 48.35 45.54 39.94 40.38 40.00 33.39 41.83 41.57 41.64 43.98 44.41 40.20 42.43 46.63 41.81 39.84 33.98 35.86 32.96 30.09 36.79 40.06 38.18 36.11 34.91 32.33 31.91 36.19 39.68 39.00
54.54 54.07 53.45 52.08 51.29 51.25 50.99 50.89 50.31 48.84 47.64 46.80 46.27 46.63 46.74 47.02 47.32 45.19 42.79 41.52 45.51 45.32 32.69 38.47 43.00 42.75 44.22 43.99 39.67 41.00 44.69 42.49 38.76 35.93 36.11 32.41 35.29 39.88 38.33 37.37 36.23 35.68 33.24 33.10 33.65 37.73 37.30
53.75 52.66 52.24 52.00 51.23 51.12 50.46 50.13 49.47 48.01 46.94 45.79 45.96 46.06 46.72 47.50 44.47 44.58 41.83 45.32 45.61 45.23 28.49 36.77 39.81 42.72 45.51 44.96 39.83 44.77 45.24 41.15 38.71 34.89 35.79 34.52 39.11 37.98 36.23 35.22 35.74 31.38 38.22 36.99 35.47 34.66 28.12
52.54 51.88 51.63 51.67 51.79 50.78 50.28 49.64 48.46 47.20 45.86 45.23 45.49 46.16 46.75 46.30 40.92 41.17 43.29 45.49 45.12 43.20 23.42 39.39 40.28 48.02 45.43 40.28 40.34 40.49 43.31 39.39 33.51 33.62 33.85 30.97 33.20 33.84 33.23 34.78 37.70 34.37 38.79 37.80 36.43 34.57 30.47
51.60 51.60 51.55 51.54 50.47 49.92 48.87 48.22 46.94 45.85 45.21 44.89 45.82 46.21 46.58 44.62 42.12 43.74 45.68 45.32 42.77 31.67 23.63 34.35 40.23 38.74 37.15 38.20 37.42 38.77 38.50 40.25 38.72 34.11 34.08 32.99 38.21 36.59 35.92 38.13 38.13 38.85 37.16 37.31 35.90 32.95 24.98
51.17 51.62 51.19 50.00 48.81 48.11 47.38 46.36 45.99 45.39 44.63 44.69 45.43 45.72 44.18 44.81 39.55 45.21 44.44 40.20 29.85 25.06 36.81 31.64 32.20 34.27 33.02 32.13 33.86 35.29 35.04 32.64 28.89 25.04 26.22 32.37 33.54 37.34 39.14 34.68 37.77 36.49 33.15 24.45 23.53 24.16 22.78
51.10 50.22 48.97 48.11 47.10 46.29 46.31 46.30 45.62 44.82 44.36 44.48 44.93 45.53 43.98 45.44 44.61 45.25 42.27 33.69 22.43 32.29 29.89 33.94 32.25 32.46 29.65 32.79 32.91 33.01 31.47 28.69 33.44 32.39 27.80 24.47 22.30 32.56 38.17 34.22 32.95 33.29 33.38 26.19 19.50 21.58 25.39
48.92 48.41 47.48 46.78 46.40 45.88 46.04 45.85 44.92 44.60 44.29 44.05 44.58 41.35 42.13 44.22 45.07 43.95 36.77 26.30 26.15 29.40 31.87 29.83 30.38 27.32 28.20 30.58 29.92 29.81 28.84 28.41 32.08 34.77 25.92 24.47 24.19 34.29 35.18 38.28 38.68 33.32 30.09 34.52 29.46 32.66 27.74
48.35 47.77 46.97 46.03 45.71 45.36 46.04 45.23 44.49 44.18 43.85 43.87 39.22 40.49 39.98 44.23 44.90 41.31 33.26 28.95 30.97 33.75 32.97 31.49 24.49 28.27 23.15 26.22 26.15 26.83 27.76 32.57 31.68 35.55 35.67 30.55 22.36 32.17 35.88 38.24 39.67 37.09 39.12 29.62 31.48 23.88 22.42
47.49 46.80 46.41 46.04 45.47 46.43 45.62 44.62 44.69 44.28 43.91 43.54 37.55 35.02 40.79 44.03 43.73 36.91 25.78 29.86 32.23 34.50 34.47 29.98 27.59 26.02 26.86 25.63 27.26 25.75 27.09 31.53 32.75 34.36 34.68 31.21 28.59 27.80 34.07 33.71 32.80 34.02 32.50 33.86 34.62 32.03 26.99
47.01 46.81 46.08 45.76 45.58 45.28 44.61 44.57 44.29 44.04 43.51 40.84 37.38 31.12 41.76 43.20 32.98 33.70 27.65 32.02 35.07 33.15 35.56 33.22 32.15 30.58 28.01 28.25 26.31 26.02 25.71 29.83 35.92 34.06 28.42 33.11 30.05 24.33 27.91 36.18 39.11 38.24 34.28 35.03 26.86 28.06 31.98
46.16 46.33 46.18 45.65 45.07 44.48 44.39 44.44 44.19 43.50 43.63 38.82 35.29 33.74 41.01 41.60 26.92 27.33 32.20 32.28 33.66 32.63 32.38 31.85 31.02 32.56 31.66 28.18 23.69 28.23 29.52 35.73 36.16 32.75 29.92 32.75 28.07 19.50 23.95 33.65 37.33 34.74 36.61 37.30 37.20 34.39 30.87
46.07 46.38 45.02 44.76 45.38 44.84 44.30 44.18 43.37 43.25 43.75 38.84 35.97 29.17 33.23 36.06 32.82 29.74 27.92 29.90 29.41 35.27 33.11 33.46 31.10 32.11 30.45 28.23 30.68 27.54 28.68 33.75 36.14 34.46 37.74 35.09 29.92 24.37 19.72 27.18 31.59 29.47 33.41 38.13 36.40 29.93 31.72
46.31 45.34 44.70 44.37 44.61 44.58 44.38 43.77 43.05 42.88 43.72 38.85 36.35 32.33 34.08 28.25 27.72 28.82 29.60 30.09 28.35 27.80 33.13 32.84 30.20 30.86 28.79 24.77 26.19 25.95 29.34 29.82 34.01 36.12 35.75 33.47 27.49 29.05 29.12 30.58 31.69 31.03 32.17 35.71 34.95 33.90 31.16
45.18 44.69 44.95 44.79 44.78 45.29 44.42 43.42 42.60 43.15 43.69 38.23 31.74 32.55 30.79 30.90 32.41 27.21 29.48 27.90 28.05 29.90 29.68 28.31 28.49 29.90 29.93 26.03 28.73 27.16 29.66 30.17 30.13 35.17 34.90 35.34 28.48 32.43 30.70 34.40 34.43 33.35 35.38 34.34 32.80 32.54 32.27
44.54 44.23 44.84 44.52 44.86 44.84 43.89 42.87 42.89 43.59 43.06 37.44 38.13 36.77 33.75 31.39 29.19 27.28 28.37 30.11 28.82 29.46 32.07 33.47 30.97 31.13 29.24 31.16 34.09 34.12 34.79 34.48 33.30 31.30 30.60 33.30 31.26 30.42 27.19 32.92 32.63 29.17 31.74 30.78 29.57 30.06 30.89
44.50 43.82 43.69 44.06 44.95 44.52 43.44 43.64 43.98 43.93 43.20 39.76 37.75 35.82 30.52 25.89 28.26 30.67 32.83 32.86 31.44 31.30 23.06 33.08 34.70 31.51 34.97 39.42 38.32 37.52 35.36 34.05 34.28 34.62 36.38 32.91 32.74 31.68 26.62 29.77 21.81 30.19 34.82 33.00 28.89 28.21 29.42
44.42 43.73 44.01 44.13 44.62 43.69 43.54 43.98 44.12 43.98 43.93 40.07 39.94 35.95 31.89 25.50 32.14 32.92 32.76 32.93 33.42 32.83 30.20 32.22 34.50 36.95 37.89 36.69 31.80 29.51 30.69 31.57 34.00 36.66 36.32 36.94 33.82 29.30 26.55 26.58 29.13 28.88 29.82 28.27 30.93 25.94 29.07
44.10 43.79 44.85 44.56 44.61 44.53 44.51 44.44 43.95 43.58 43.98 40.83 41.18 40.25 35.18 26.35 28.86 35.23 31.35 33.68 27.06 25.80 29.10 34.22 36.93 39.85 37.77 33.77 31.02 25.34 24.35 28.80 27.81 32.09 38.11 37.82 36.29 30.71 28.25 23.64 20.13 25.30 28.88 33.38 33.45 20.05 28.91
44.63 44.73 44.59 44.17 44.53 44.97 44.87 44.08 43.90 44.00 44.08 41.36 40.35 41.22 35.81 28.04 34.25 34.37 28.15 27.79 32.90 30.03 27.23 31.87 32.49 34.34 36.96 29.40 28.21 26.91 26.64 32.64 26.64 27.43 26.93 28.45 28.77 25.28 26.02 23.79 25.01 26.75 29.58 33.72 17.08 22.00 28.77
44.48 44.48 44.27 44.13 44.58 44.65 44.46 44.18 43.97 44.15 44.46 41.56 39.84 41.25 37.95 32.67 32.55 36.63 38.10 31.63 32.04 30.36 24.07 30.02 30.28 31.95 29.29 26.06 25.98 27.12 28.65 30.62 30.41 29.94 28.77 25.09 24.96 23.15 24.97 21.23 18.00 28.44 29.06 23.03 29.39 30.32 29.29
44.30 44.15 44.08 44.30 44.33 44.11 44.37 44.42 44.24 44.12 44.07 44.03 39.81 41.75 41.79 33.11 32.16 36.99 37.66 38.85 37.45 36.25 31.86 31.85 34.61 31.85 30.57 26.61 27.54 28.72 29.18 30.47 30.03 23.73 32.53 24.28 29.85 24.20 25.13 22.53 28.58 28.88 27.51 29.27 29.27 27.64 28.22

GFSGBSN_sfc_wetblb_102.txt.gz
Wetbulb
59.28 59.23 58.90 58.19 57.26 56.64 55.46 55.01 55.28 54.32 53.43 52.54 51.57 50.48 50.45 50.63 50.77 50.61 50.41 50.91 50.68 50.77 50.89 51.38 51.87 52.13 49.37 43.27 44.03 51.94 58.41 58.39 53.17 51.02 47.72 46.92 44.46 42.67 39.19 39.82 39.01 37.76 40.26 42.16 43.71 44.84 44.95
58.89 58.53 58.32 57.90 57.14 56.55 55.22 55.52 54.79 54.09 53.15 52.01 50.99 50.08 50.21 50.44 50.46 50.28 49.92 50.55 50.70 50.34 50.76 51.38 51.77 52.22 46.38 36.24 46.49 52.26 51.27 48.90 48.26 50.03 48.00 47.58 46.91 45.44 42.19 40.93 39.43 42.18 41.57 41.58 42.25 41.54 42.49
59.45 58.52 57.90 57.43 56.68 55.87 55.53 55.09 54.30 53.55 52.44 51.79 50.63 50.05 50.20 50.17 49.98 49.72 49.85 50.04 50.17 50.19 50.91 51.34 52.16 50.66 45.44 40.77 47.87 47.21 49.09 45.19 45.15 44.45 42.47 43.65 42.87 39.56 39.30 37.36 42.16 41.93 37.73 40.40 42.04 40.67 40.45
59.50 58.69 57.94 56.97 55.92 55.21 55.03 54.29 53.45 52.61 52.03 51.25 50.61 50.04 49.83 49.55 49.44 49.68 49.68 49.94 50.10 50.17 50.68 51.28 52.27 48.75 40.62 50.52 48.55 49.00 46.92 46.02 47.00 46.41 45.71 46.09 45.04 41.11 38.40 39.88 38.37 36.31 36.43 31.11 38.34 40.50 41.55
59.44 58.98 57.77 56.63 55.41 54.95 54.48 53.97 52.70 52.21 51.63 51.05 50.71 49.78 49.31 48.99 49.24 49.57 49.22 49.55 49.93 50.32 50.87 51.13 47.12 45.94 41.82 54.55 49.71 52.07 47.19 45.18 45.41 46.15 45.56 47.43 45.27 39.78 38.28 31.96 29.09 31.83 29.09 31.13 35.02 39.75 39.61
59.61 58.65 57.33 56.29 55.21 54.95 54.17 52.84 52.26 52.00 51.69 51.46 50.60 49.16 48.49 48.45 49.05 49.15 49.06 49.28 49.04 49.28 49.81 50.42 48.74 42.53 46.51 44.84 44.82 45.91 45.83 46.12 43.69 42.98 41.09 39.01 37.81 35.07 31.03 28.55 23.13 24.08 28.01 28.61 30.64 37.24 38.23
59.82 58.58 57.01 56.14 55.31 54.95 53.76 52.86 51.75 50.96 50.76 51.10 49.59 48.27 47.82 47.75 47.97 48.56 46.23 41.47 37.33 37.21 41.74 41.17 42.02 42.59 44.87 46.28 44.76 43.48 45.45 44.64 43.18 39.61 32.61 34.82 28.99 26.34 31.66 32.19 34.14 32.47 30.35 28.76 32.47 36.81 35.64
58.97 58.05 56.81 56.00 55.23 54.42 53.80 51.97 50.44 50.39 51.06 50.38 47.95 47.00 47.13 47.23 47.41 48.13 43.98 38.23 39.69 38.48 32.51 40.66 40.29 42.56 45.79 45.35 39.78 42.21 44.26 39.60 39.24 33.68 35.55 31.55 27.35 32.82 36.26 36.63 34.10 32.53 29.89 29.43 33.53 36.49 35.44
58.59 57.37 56.18 55.39 54.93 54.50 52.61 50.77 50.62 50.81 50.50 48.48 47.00 46.31 46.60 47.11 47.45 44.73 40.12 40.03 45.17 43.04 31.13 37.18 41.14 40.94 41.78 43.39 39.23 39.02 42.31 40.64 37.35 34.55 34.77 30.60 33.71 38.43 36.57 33.95 32.47 32.77 31.43 31.67 31.71 35.64 36.71
57.20 55.79 55.21 55.11 54.34 53.15 51.26 51.09 50.84 50.32 48.83 47.41 46.30 45.72 46.47 47.10 43.82 42.43 40.15 44.00 43.69 43.72 29.80 35.74 39.35 42.99 45.25 44.52 38.67 43.74 41.41 39.16 35.00 31.75 33.35 32.50 36.62 35.77 33.49 32.07 33.58 28.54 35.12 34.61 33.32 31.29 26.51
56.70 55.25 54.24 53.80 52.99 51.65 51.38 51.25 50.70 49.13 47.88 46.40 45.50 45.79 46.35 46.11 39.13 38.57 42.80 43.56 43.53 42.83 20.87 38.75 40.33 47.28 44.97 39.05 38.23 39.51 41.54 37.85 31.55 31.98 31.26 29.24 30.89 30.07 29.71 31.30 33.92 30.59 36.37 34.37 33.93 30.82 29.99
55.03 54.12 53.50 52.32 51.55 51.30 50.87 50.72 49.01 47.85 46.46 45.59 45.54 45.84 45.76 43.36 41.09 41.96 43.46 43.41 42.22 30.71 21.86 34.16 37.97 34.68 34.49 35.90 36.03 37.19 37.45 39.77 37.44 32.76 32.48 31.22 33.96 31.94 31.86 36.02 36.22 37.51 34.36 34.20 34.74 31.28 23.01
53.89 53.13 52.38 51.56 51.38 50.86 50.53 48.89 47.52 46.51 45.89 45.37 45.56 45.15 43.24 44.31 38.11 43.08 42.66 39.97 29.84 24.20 35.56 29.77 29.81 33.12 32.19 30.91 32.86 33.20 31.57 29.38 26.85 23.51 24.08 30.52 31.63 34.51 36.71 31.70 34.93 33.70 29.05 22.30 19.36 21.94 21.19
52.33 51.78 51.46 51.51 50.85 50.20 48.57 47.32 46.54 45.80 45.20 45.18 44.67 44.20 42.89 43.42 42.14 43.42 41.16 33.04 23.28 30.47 28.79 33.08 31.18 31.35 28.51 30.10 30.28 30.32 28.89 25.58 30.58 29.18 25.79 22.63 20.49 30.50 34.88 31.30 28.14 28.53 30.35 23.11 16.85 19.25 24.10
51.77 51.44 51.33 50.27 49.08 47.62 47.07 46.71 46.10 45.39 45.05 44.57 44.00 38.91 38.67 41.86 44.09 42.91 36.02 22.72 24.84 28.87 31.03 28.84 30.20 26.41 26.36 29.04 28.17 27.66 26.71 26.12 29.99 32.57 24.58 24.25 23.76 33.38 34.07 34.74 35.49 32.00 28.83 33.62 26.81 28.47 24.98
51.41 49.75 48.79 47.84 47.16 46.98 46.67 45.86 45.26 45.12 44.34 44.03 37.88 39.54 39.15 42.70 43.89 40.79 32.17 29.24 28.70 32.94 32.62 31.37 24.32 27.67 22.22 25.08 24.64 25.08 25.92 30.54 29.61 33.02 33.78 29.44 21.16 30.71 33.07 35.17 36.04 35.08 38.01 25.43 27.87 19.29 19.56
48.78 47.95 47.13 46.48 46.18 46.25 46.22 45.12 44.76 44.33 43.80 43.77 37.93 35.01 40.59 42.51 42.53 36.13 25.97 29.52 31.21 34.64 34.38 29.85 27.17 25.69 25.95 24.71 25.54 23.61 26.01 29.82 31.16 32.54 34.16 30.47 26.65 25.80 30.75 31.33 31.13 33.69 31.76 32.31 31.71 30.01 23.21
47.17 46.62 46.19 45.63 45.90 46.60 44.98 44.93 44.64 44.52 43.97 40.80 37.06 31.00 40.72 42.18 31.89 32.50 27.95 31.64 35.31 33.02 35.06 32.61 31.32 29.81 27.38 26.81 25.06 24.84 25.00 28.35 34.12 32.68 26.55 32.20 27.60 22.24 25.63 33.18 35.67 36.33 33.55 32.99 24.70 26.15 30.47
46.55 46.23 45.98 46.48 46.20 45.22 44.71 44.82 44.54 43.92 44.16 38.89 34.82 32.81 39.71 40.64 24.00 25.58 31.77 32.47 33.71 32.32 32.14 31.27 30.13 30.82 30.26 26.14 22.95 27.45 28.94 35.00 35.09 32.04 28.98 32.25 24.57 19.43 21.52 31.60 35.63 33.43 35.20 35.54 35.25 33.40 30.05
46.44 46.14 45.84 45.76 45.17 44.81 44.88 44.56 43.71 44.20 44.19 38.89 35.62 26.26 31.45 34.70 31.48 29.73 28.12 28.89 29.25 34.50 32.72 32.56 30.62 31.16 29.34 26.65 29.53 25.05 26.69 31.76 34.64 32.73 37.05 35.23 27.55 23.95 19.57 25.32 30.22 28.21 31.39 34.08 34.46 28.83 28.33
46.49 46.05 45.66 45.05 44.21 44.52 44.44 43.69 43.54 43.64 44.03 39.06 32.56 28.82 33.04 25.73 27.52 28.99 28.86 29.31 27.91 27.21 32.61 31.95 29.23 29.98 27.35 24.22 25.18 24.84 28.49 28.24 31.42 35.04 35.19 33.36 27.89 29.09 27.84 28.96 29.55 29.00 32.39 33.34 32.23 32.44 27.75
45.47 45.75 45.85 45.57 44.57 44.44 44.13 43.54 43.12 43.46 43.68 37.15 30.30 29.60 31.96 30.18 29.90 26.15 29.00 27.76 27.34 29.00 28.72 27.84 27.21 29.39 28.82 25.60 26.23 24.03 28.42 27.92 27.54 33.89 33.86 32.85 27.60 30.09 27.23 31.08 30.33 29.70 32.56 30.15 29.78 30.65 30.03
45.45 45.51 45.39 45.42 45.11 44.59 43.80 43.23 43.55 43.87 43.02 36.16 36.45 35.93 32.39 31.37 28.56 26.78 26.93 29.52 28.22 28.43 31.19 32.48 30.59 30.02 29.76 31.59 33.64 33.93 34.00 33.52 32.44 29.61 28.80 29.16 29.41 29.64 26.93 31.80 32.15 25.06 27.81 27.20 26.83 27.85 27.26
45.40 45.11 45.13 45.39 44.87 44.15 43.46 43.82 44.36 44.56 43.04 38.05 36.44 34.62 29.47 25.26 27.27 28.88 32.92 32.38 30.73 29.89 20.95 32.77 32.61 31.84 34.35 39.00 38.43 37.05 34.87 34.22 33.59 32.90 33.85 30.28 30.67 32.02 27.75 29.66 17.97 27.63 32.10 30.00 26.16 26.40 27.23
44.99 44.51 44.64 45.00 44.59 43.71 44.07 44.26 44.34 44.53 44.79 38.82 38.02 34.19 30.35 25.53 30.34 31.62 32.17 31.65 31.64 30.48 27.07 27.47 33.59 35.45 36.92 35.85 31.52 28.30 30.34 31.23 32.96 33.89 35.42 35.65 32.67 29.02 26.93 24.80 26.66 27.54 27.10 25.82 27.33 22.77 27.21
44.60 44.51 45.02 45.11 44.60 44.09 44.39 44.22 44.22 44.38 45.02 40.31 38.77 38.04 33.98 27.98 27.99 33.87 29.95 30.65 25.81 23.98 26.74 29.97 35.59 37.88 35.34 33.24 29.68 23.89 24.94 28.69 27.65 31.23 36.01 34.96 35.68 30.70 28.61 22.06 18.41 23.86 26.12 30.93 31.40 17.22 27.41
44.60 44.89 45.15 44.44 44.63 44.79 44.32 43.97 44.36 44.36 44.89 40.14 38.20 39.14 34.03 25.73 31.02 32.54 27.66 27.08 31.18 27.85 25.35 28.69 30.28 32.43 33.58 26.23 23.31 23.86 26.75 31.52 24.76 26.36 25.96 26.79 28.05 23.83 25.30 22.40 23.75 24.63 27.78 32.72 18.03 18.82 27.29
44.77 44.82 44.77 44.63 44.94 44.99 44.27 44.24 44.82 44.70 44.75 40.46 37.62 39.31 34.26 24.56 29.86 34.97 36.43 30.29 29.38 28.45 22.58 28.36 28.40 29.75 28.19 24.09 25.07 25.21 27.53 29.88 28.02 28.61 27.81 24.71 23.63 21.40 23.35 19.91 17.51 26.36 26.85 22.52 26.03 28.44 27.23
44.54 44.65 44.46 44.66 44.82 44.68 44.37 44.70 44.60 44.27 44.56 42.89 35.76 40.09 38.83 30.84 29.65 35.39 35.74 36.24 35.59 34.90 30.28 30.18 32.55 29.36 28.15 25.75 27.24 28.26 26.82 28.29 27.24 23.27 31.24 22.82 27.27 22.58 23.24 20.72 26.84 27.13 25.55 27.96 28.94 26.93 27.14

GFSGBSN_sfc_wetblb_105.txt.gz
Wetbulb
60.35 59.97 59.28 58.74 58.98 58.13 57.54 56.85 55.82 55.19 55.17 54.10 53.10 52.42 51.55 50.94 50.79 50.90 50.76 50.25 50.27 50.77 50.96 50.99 51.88 52.26 48.33 41.06 41.91 48.60 59.80 59.57 53.01 50.24 45.52 44.08 41.71 40.67 37.62 39.14 39.58 36.72 38.68 39.97 41.51 41.84 42.06
59.99 59.61 59.14 58.79 58.71 58.14 57.66 56.64 55.73 55.18 54.55 53.82 52.97 51.93 50.87 50.67 50.77 50.72 50.14 49.86 50.03 50.20 50.50 51.03 51.60 52.18 45.84 35.10 44.14 49.36 50.33 47.51 46.46 47.15 45.71 45.95 44.77 44.45 38.64 37.23 35.47 39.98 39.52 39.16 40.99 40.84 39.70
60.37 59.59 58.94 58.42 58.35 57.75 57.15 56.08 55.59 55.30 54.47 53.63 52.70 51.58 50.59 50.61 50.31 50.11 49.90 49.83 49.81 49.69 49.94 50.86 51.50 50.34 44.86 39.09 45.59 45.33 46.97 44.52 44.06 44.69 41.05 42.01 42.42 38.22 37.85 35.77 39.08 38.31 35.38 38.10 40.38 39.37 39.08
60.47 60.03 59.41 58.38 57.84 57.04 56.27 55.54 55.61 55.24 54.35 53.16 52.48 51.41 51.03 49.90 49.77 49.49 49.37 49.20 49.07 49.22 50.09 50.75 51.73 49.09 39.38 48.62 47.27 48.34 46.81 46.00 46.15 44.31 43.72 44.56 43.06 39.84 36.90 37.90 36.91 34.47 33.61 30.79 37.53 38.61 40.47
60.36 60.09 59.73 58.73 57.63 56.94 56.01 55.26 55.28 54.82 53.92 52.80 52.26 51.61 50.62 49.50 49.26 49.21 48.84 48.74 49.09 49.92 50.41 50.67 46.59 43.50 38.54 52.37 48.83 50.53 49.29 45.11 44.56 44.61 43.65 46.35 42.86 38.15 36.58 31.38 28.35 29.68 26.20 28.18 31.70 37.87 37.34
60.87 60.31 59.70 58.95 57.77 56.87 55.91 55.26 54.43 54.14 52.99 52.26 52.12 51.34 49.60 48.93 48.60 49.05 48.87 48.54 48.66 48.59 49.52 49.46 48.12 40.29 42.68 42.40 44.44 43.58 44.81 45.05 42.21 42.22 41.19 38.64 36.80 33.20 30.72 29.80 21.67 23.50 25.23 25.42 27.20 33.23 34.23
60.82 60.44 59.84 58.98 57.94 56.98 56.31 55.57 54.36 53.35 52.87 52.60 51.64 50.48 48.89 48.09 47.50 48.22 45.22 39.79 35.23 35.42 41.69 39.22 40.18 39.86 43.12 44.54 44.45 42.16 44.25 42.24 41.22 38.42 32.43 34.96 29.26 26.56 30.83 32.91 33.78 32.01 29.84 28.93 32.72 36.05 33.23
59.19 59.51 59.48 58.99 57.96 57.02 56.32 55.40 53.80 52.86 51.98 51.07 51.17 49.20 47.98 47.51 46.90 47.39 43.02 36.67 37.19 37.67 30.25 38.59 39.80 42.30 45.22 45.15 39.53 42.95 42.95 37.39 37.61 32.52 33.56 30.68 26.69 32.32 33.95 34.03 33.11 32.22 29.51 28.54 32.18 35.15 33.82
57.72 57.95 58.99 59.21 58.15 56.91 56.09 55.18 53.54 52.29 50.52 50.00 50.53 48.47 47.04 46.59 46.92 43.23 38.61 38.98 43.72 40.86 28.91 35.07 39.68 39.14 40.43 41.49 37.14 38.54 41.40 39.30 36.02 32.42 32.69 29.23 32.75 37.21 34.05 32.21 30.62 30.32 28.76 28.66 29.18 33.40 33.82
57.32 57.15 57.67 58.21 57.88 56.33 55.40 54.57 53.01 50.73 50.13 51.02 48.60 47.34 46.13 46.13 41.16 39.95 39.56 42.93 42.11 42.85 27.90 33.58 37.58 41.40 43.47 42.76 38.62 43.04 41.51 36.90 33.70 30.60 31.13 29.31 34.02 32.38 29.93 29.03 30.42 25.74 31.79 31.61 30.38 28.35 23.29
56.59 56.52 56.45 57.15 56.59 55.04 54.15 53.28 51.35 50.68 50.70 49.03 47.34 46.18 46.30 45.78 38.36 38.19 41.27 42.28 42.01 40.63 18.28 37.47 39.07 43.71 40.88 37.77 37.48 38.08 40.56 36.80 31.77 31.80 30.25 27.85 29.25 28.63 27.32 29.06 31.57 28.49 32.48 31.70 31.54 28.27 27.62
56.32 56.09 56.41 56.29 55.08 53.97 52.66 51.58 51.10 50.46 49.23 47.63 46.44 46.21 45.85 43.38 39.79 40.78 42.18 42.31 40.90 27.67 18.80 31.89 35.10 34.25 34.97 36.21 35.56 36.10 35.90 38.02 36.58 31.89 31.17 29.37 32.86 30.37 29.52 33.27 33.65 35.49 32.07 31.41 30.52 28.06 20.70
55.62 55.68 55.82 54.80 53.80 52.26 51.58 51.26 50.60 49.12 47.67 46.47 46.10 46.16 43.84 43.15 37.43 40.76 41.40 38.81 28.18 22.87 33.87 28.02 29.32 33.08 31.98 30.21 32.14 32.28 31.03 29.23 25.26 22.14 22.79 28.25 29.20 32.53 34.94 29.71 32.18 30.60 26.52 18.35 14.93 17.78 18.43
55.40 55.24 54.62 53.25 52.03 51.45 51.13 50.44 49.07 47.42 46.78 45.91 46.03 44.81 43.14 43.28 42.20 42.68 38.96 30.74 20.93 28.98 27.67 32.11 30.86 31.42 27.26 29.85 29.58 29.58 27.52 23.99 29.57 28.00 23.79 21.07 19.18 28.36 33.10 29.70 26.62 26.86 26.24 20.09 14.55 16.24 20.20
55.38 54.59 53.44 52.12 51.32 51.02 50.24 48.91 47.82 46.71 45.44 45.36 44.84 38.92 39.27 41.84 42.20 42.03 34.50 20.50 22.96 26.73 30.30 28.87 29.54 26.44 26.00 28.62 26.77 26.55 25.12 24.15 27.61 29.33 21.65 22.39 22.57 31.31 32.07 32.94 31.32 28.91 21.97 29.53 24.53 25.99 21.41
54.77 53.57 52.10 51.18 50.60 49.89 48.64 47.95 46.54 45.70 45.35 44.99 38.39 38.58 39.43 43.07 42.87 38.62 29.28 27.47 27.42 32.30 32.18 31.31 24.75 27.48 22.42 24.32 24.24 23.72 23.74 28.53 27.72 30.16 32.37 27.86 19.91 28.98 31.07 32.87 32.51 31.55 33.35 22.33 25.49 18.35 15.67
53.71 52.31 51.24 50.39 49.08 48.25 47.83 46.79 45.90 45.20 44.47 44.74 38.65 34.76 39.45 41.98 42.18 34.45 24.91 28.06 30.47 34.14 34.14 30.02 26.94 25.68 25.22 23.92 25.19 23.68 25.25 28.59 28.85 30.12 31.50 28.38 25.61 25.01 29.13 26.83 25.52 30.33 30.09 30.79 29.62 27.39 19.44
51.34 49.90 48.80 48.35 47.84 47.39 46.18 45.49 45.07 44.35 44.64 41.57 37.24 30.20 40.19 41.77 31.69 31.78 27.71 32.27 35.18 32.81 34.79 32.47 31.26 29.63 27.02 26.34 24.75 24.38 24.40 27.38 31.79 31.17 25.83 29.81 24.58 21.23 23.58 30.78 33.16 31.52 29.29 33.04 26.47 24.35 28.16
48.07 47.81 47.63 47.43 46.72 45.36 44.92 44.56 44.73 44.59 44.40 37.74 33.05 32.85 39.16 39.97 25.11 27.22 31.89 31.87 33.35 31.77 31.24 30.39 29.46 30.05 29.50 25.88 22.67 26.66 27.12 33.58 33.59 30.29 28.01 30.36 24.57 16.81 21.23 30.26 33.30 31.54 33.25 33.20 35.28 33.46 26.80
46.83 46.81 46.97 46.14 45.71 45.07 44.92 44.85 44.86 44.41 44.65 39.44 33.47 26.30 31.82 34.55 31.29 29.34 27.80 28.24 28.84 33.39 31.65 31.63 29.77 30.45 28.11 26.12 28.11 24.14 26.73 30.08 32.95 31.45 36.63 33.27 25.25 21.78 16.90 22.99 29.12 26.53 29.37 31.41 32.24 28.44 25.63
46.68 46.58 46.79 46.10 45.45 45.69 44.88 44.60 44.21 44.80 44.55 39.52 33.79 28.54 32.38 26.22 27.74 28.63 28.93 28.79 27.33 26.45 31.72 30.81 28.71 29.10 27.08 23.55 24.70 24.05 26.41 26.34 29.77 33.08 32.96 33.13 25.71 27.52 27.34 28.14 28.79 29.28 30.14 31.14 29.91 31.93 24.84
46.61 46.22 45.54 45.30 45.47 44.61 44.00 43.74 43.94 44.58 44.37 37.08 32.17 29.34 32.37 29.15 29.81 28.04 28.73 27.51 27.07 28.51 28.52 27.52 26.72 28.67 27.74 25.13 26.01 22.97 26.56 26.67 25.16 30.40 32.94 33.60 24.08 28.12 25.38 29.73 30.60 25.87 26.69 26.81 28.57 29.31 28.50
45.04 44.76 45.06 45.42 44.86 44.13 43.52 43.33 43.69 44.10 43.36 35.30 35.40 35.18 33.03 30.02 27.13 26.82 26.17 28.82 28.52 28.21 30.99 31.69 29.31 27.56 27.84 30.24 33.14 33.07 33.75 33.08 32.72 30.17 29.33 29.17 26.57 26.74 25.12 29.59 27.03 17.53 24.52 24.63 25.03 25.58 26.24
46.03 45.95 45.33 44.78 44.16 43.86 43.37 44.22 45.19 44.93 42.74 36.92 35.95 34.37 28.41 24.88 27.23 28.50 32.10 31.57 29.56 29.13 22.71 31.30 31.19 30.27 33.82 36.66 35.83 34.97 33.58 33.27 33.41 33.26 33.95 28.71 28.58 28.62 26.83 28.43 15.84 25.68 30.32 28.10 24.42 24.78 25.50
45.50 45.38 45.31 44.50 43.94 43.81 44.34 44.61 45.24 45.73 44.47 38.50 36.92 34.14 30.94 25.86 29.05 30.75 31.98 31.01 30.34 29.75 26.70 25.24 32.16 34.50 34.99 32.87 30.87 26.87 27.06 29.82 31.42 33.76 35.15 34.35 30.12 28.78 25.93 22.13 24.78 27.88 25.37 24.66 25.54 21.74 25.45
45.51 45.54 45.52 44.08 43.83 44.16 44.30 44.49 44.99 45.76 44.97 39.28 37.84 37.23 33.36 28.78 27.44 33.18 28.72 29.78 25.74 23.66 26.40 28.93 33.60 34.95 33.40 31.46 29.52 23.38 24.00 26.69 26.56 30.47 34.01 33.40 33.38 30.50 26.77 21.82 17.79 22.58 24.78 29.12 29.67 15.46 25.20
44.88 45.25 44.61 43.98 44.35 44.25 44.04 44.37 44.95 45.59 44.61 39.28 37.24 37.16 33.20 28.05 30.92 31.77 27.29 27.18 29.63 26.93 24.97 27.47 29.35 31.09 31.40 25.39 26.28 24.18 25.46 30.25 22.79 23.29 26.12 26.83 27.85 23.47 24.51 21.93 22.26 23.13 25.58 31.65 17.52 18.42 24.83
45.07 44.92 44.55 44.73 44.73 44.33 44.18 44.71 44.90 45.35 44.73 39.52 36.65 38.75 33.78 27.42 30.17 34.70 34.88 28.49 27.83 27.39 22.31 27.38 25.91 28.02 27.10 23.80 25.17 24.28 24.19 27.37 26.30 27.68 26.40 23.40 22.10 20.58 22.79 20.32 17.51 24.98 25.93 22.13 25.09 26.90 25.01
44.76 44.78 44.76 44.84 44.65 44.64 44.91 44.57 44.71 45.12 44.85 41.61 35.31 38.92 37.11 31.07 30.27 33.94 34.67 34.45 33.03 32.61 29.19 31.10 27.63 28.27 26.12 25.58 27.33 27.97 24.39 25.46 23.64 18.07 28.84 21.64 24.50 21.23 21.67 19.02 24.61 25.98 25.21 28.03 28.40 25.40 24.31

GFSGBSN_sfc_wetblb_108.txt.gz
Wetbulb
61.00 60.71 60.22 59.65 59.26 58.86 59.22 58.19 57.13 56.18 55.41 55.34 55.11 53.86 53.12 52.48 51.17 51.06 51.06 50.74 50.29 50.38 50.65 51.05 51.75 52.65 47.25 37.20 38.49 45.16 59.23 58.53 54.05 48.96 43.22 42.57 40.43 39.24 35.79 36.67 36.92 35.20 37.07 38.11 39.83 40.38 39.47
60.82 60.38 60.08 59.50 59.18 58.87 59.35 58.35 57.18 55.97 55.36 55.29 54.53 53.37 52.67 51.59 50.92 50.85 50.57 50.20 49.93 49.99 49.99 50.35 51.71 52.27 43.31 32.24 41.72 48.00 49.67 49.66 46.30 45.65 44.74 44.56 43.85 43.27 36.27 35.03 33.07 36.87 35.68 36.25 37.44 38.95 39.13
61.28 60.51 59.76 59.27 58.93 58.53 58.64 57.82 57.01 56.05 55.48 55.35 54.31 53.55 52.52 51.04 50.51 50.48 50.20 49.56 49.37 49.39 49.50 49.95 51.03 49.96 43.19 36.99 44.40 44.83 47.13 43.47 43.44 44.95 40.80 42.12 41.09 36.87 36.35 35.31 37.16 36.16 32.47 34.03 35.81 35.61 36.68
61.29 60.86 60.17 59.27 58.55 58.11 57.79 57.67 56.76 56.22 55.48 55.25 54.31 53.45 52.35 50.75 50.07 49.78 49.46 49.14 48.86 48.81 49.60 50.07 50.86 48.08 37.87 47.43 45.98 47.56 46.00 46.46 45.73 43.84 42.00 43.03 41.87 39.03 36.39 37.39 36.25 32.19 30.27 26.40 33.24 36.02 36.41
60.78 60.68 60.42 59.62 58.49 58.04 57.55 57.39 56.58 55.97 55.65 54.94 54.12 53.38 51.87 50.71 49.58 49.17 48.61 48.47 48.49 49.65 50.56 50.03 46.14 41.91 35.75 49.58 47.04 49.63 48.06 45.14 43.91 43.16 42.00 45.90 41.16 36.71 35.15 30.80 27.79 27.61 22.66 24.41 28.98 33.76 33.88
60.48 60.46 60.29 59.91 59.21 58.30 57.91 57.42 56.30 55.71 55.38 54.63 53.75 52.72 51.60 49.92 49.43 48.86 48.55 48.24 48.31 48.32 48.78 49.30 47.91 38.22 40.00 40.50 44.17 42.68 47.23 43.44 40.79 40.68 40.00 37.18 34.32 31.04 29.94 28.66 21.01 22.30 23.07 22.53 24.24 32.31 33.37
58.86 58.94 59.95 59.93 59.52 59.10 58.48 57.82 56.35 55.14 54.82 54.15 53.08 51.79 51.23 49.29 48.44 48.16 44.63 40.39 34.15 33.55 41.47 36.95 37.25 37.21 40.77 44.86 44.73 40.39 42.91 40.62 39.96 37.38 32.36 32.96 27.91 25.62 30.35 31.45 31.50 28.73 27.57 27.01 29.71 33.95 31.70
58.27 58.37 58.73 58.66 59.20 59.25 59.18 58.08 56.07 54.94 54.43 53.61 52.37 51.70 50.32 48.77 47.24 47.08 42.80 37.09 36.51 36.10 30.09 37.19 40.96 41.31 43.95 43.66 39.17 41.64 41.90 36.42 36.09 30.87 32.05 29.24 25.61 31.87 32.02 31.80 31.17 29.29 26.98 25.91 30.01 33.15 31.78
57.28 57.43 58.03 58.60 58.75 58.98 58.82 57.84 55.85 54.68 53.82 52.97 52.07 51.01 49.27 46.68 46.41 43.81 39.73 38.60 42.13 38.71 27.33 32.85 38.03 37.17 37.93 40.96 36.05 36.27 39.66 37.04 34.23 31.77 31.25 28.14 31.78 35.04 32.41 29.63 28.76 28.10 26.59 26.78 27.77 29.39 30.51
56.49 56.46 56.90 57.52 57.98 58.18 57.94 57.24 56.19 54.39 53.10 52.22 50.26 49.89 47.90 46.17 40.45 41.12 38.47 42.34 42.03 40.60 25.98 31.07 35.36 39.02 40.58 39.96 35.89 40.05 39.93 37.40 34.21 31.17 31.49 29.63 33.10 32.06 29.51 27.84 29.43 23.47 30.86 30.33 28.24 25.31 21.35
55.85 56.13 56.29 56.62 56.83 56.27 56.73 56.59 55.46 53.81 52.48 50.24 50.47 48.66 46.37 45.10 40.00 38.30 40.59 42.42 42.85 39.29 19.04 35.02 35.88 41.60 39.41 36.85 35.71 35.68 39.22 36.09 31.86 32.24 31.65 28.85 29.34 28.52 26.80 28.77 30.62 26.95 31.41 28.99 27.96 25.07 24.54
53.40 55.55 56.09 56.39 56.01 55.97 55.79 55.22 54.04 52.49 51.17 50.85 48.81 47.36 45.86 44.12 40.35 41.19 42.73 41.50 41.53 26.60 18.93 30.66 34.05 33.03 33.11 34.09 33.24 34.30 34.65 36.90 35.34 30.97 30.34 29.77 32.55 31.11 30.22 32.06 32.19 33.33 30.30 29.39 27.84 24.33 17.64
52.50 53.18 55.39 55.73 55.42 55.53 55.60 54.12 52.10 51.11 50.96 49.29 47.67 46.48 44.48 43.78 38.20 42.50 42.25 39.90 27.34 22.20 32.44 26.92 28.19 31.51 29.57 28.35 30.00 31.64 29.81 27.06 24.58 23.05 23.13 28.04 28.48 30.32 33.46 27.81 30.72 29.35 24.38 16.18 13.56 17.24 16.19
52.27 52.54 52.79 55.38 55.30 55.03 54.29 52.40 51.20 50.67 49.43 47.69 46.58 46.07 44.57 43.85 42.23 43.02 40.65 32.40 20.87 27.61 26.84 30.62 29.40 29.24 25.23 28.12 27.65 28.69 27.74 24.93 30.17 26.55 22.51 20.82 18.18 26.93 31.54 28.95 24.95 24.12 24.82 19.05 12.41 15.00 17.80
52.16 52.39 52.29 54.94 54.84 54.18 52.61 51.26 50.32 49.04 47.75 46.42 45.61 39.48 39.36 41.33 41.90 42.00 33.68 22.87 21.81 25.36 29.26 28.14 28.61 24.65 24.21 28.12 27.16 26.63 24.75 24.14 28.15 28.09 20.37 20.60 21.44 29.58 31.45 32.01 30.31 25.96 21.87 27.41 21.78 23.08 18.19
52.29 52.73 52.91 54.53 53.94 52.38 51.26 50.30 48.77 48.09 47.02 45.46 38.84 38.53 38.62 41.81 42.75 38.26 29.59 26.49 25.31 30.63 31.10 30.25 24.92 26.10 21.74 23.57 24.06 23.89 23.24 28.63 27.92 30.33 30.85 27.51 19.87 28.18 30.27 31.51 30.88 28.36 31.85 21.04 24.44 12.84 14.60
53.49 53.09 53.82 53.87 52.42 51.03 50.07 48.87 48.01 47.10 46.10 44.78 39.67 34.23 38.75 42.51 41.88 33.16 21.32 26.80 29.96 33.39 33.34 29.81 26.62 24.77 25.12 23.81 24.37 23.36 24.72 28.47 29.66 29.84 31.60 27.55 25.02 23.66 27.72 25.42 22.85 27.24 26.36 26.80 26.05 25.04 17.83
53.00 52.92 53.55 51.99 51.01 49.85 48.73 47.82 47.09 46.68 45.70 43.11 37.15 26.56 39.04 40.99 31.05 29.79 26.40 31.76 34.95 32.04 34.47 32.21 31.44 29.39 26.55 26.13 24.28 24.46 24.56 27.03 31.67 30.85 24.72 27.57 24.14 20.80 22.64 30.13 31.94 29.07 26.78 27.07 20.55 24.25 26.71
52.87 53.19 51.78 50.91 49.40 48.40 47.63 46.95 46.05 45.49 45.16 39.02 33.65 33.21 39.15 39.51 26.43 26.75 31.06 31.18 33.14 31.53 31.05 30.27 28.73 29.83 29.30 25.58 22.07 25.80 27.19 32.46 32.40 28.75 27.34 29.79 23.92 15.89 20.61 27.83 33.13 29.79 31.74 33.19 31.12 29.17 27.06
52.31 50.96 49.78 49.01 48.21 47.37 46.64 45.97 45.32 45.90 44.62 39.77 32.85 26.22 32.94 35.97 30.70 29.83 28.17 29.02 28.09 33.36 31.31 31.18 29.63 30.08 27.61 25.83 27.72 24.08 26.48 29.51 31.58 30.21 35.45 31.62 24.92 19.73 15.99 21.88 26.70 24.27 28.01 30.76 29.53 24.18 23.69
48.58 48.05 47.48 46.98 46.69 46.22 45.32 44.36 44.96 45.69 45.17 39.66 33.07 26.98 32.78 27.47 26.28 29.39 29.69 29.68 27.35 26.75 31.36 30.51 27.91 28.53 26.83 23.36 24.58 23.82 25.70 25.10 28.21 32.15 30.51 28.94 23.64 24.98 25.96 27.29 27.96 28.04 26.65 26.26 29.50 30.41 25.11
46.75 46.46 46.23 45.86 45.64 44.99 44.00 44.45 45.13 45.24 45.08 36.82 31.52 30.11 31.84 29.51 31.02 29.21 30.05 27.62 27.25 28.23 28.39 26.67 26.40 27.77 27.41 24.97 25.48 22.08 26.34 25.70 24.02 28.36 31.15 34.37 23.83 26.33 22.85 27.76 29.58 23.83 25.43 24.55 24.22 26.81 24.52
46.21 45.79 45.52 45.35 44.83 44.32 44.76 45.48 45.67 45.58 43.59 35.37 35.27 35.61 32.25 28.53 27.56 26.56 26.47 28.37 28.16 28.15 30.25 30.77 28.52 27.52 27.35 28.86 31.68 31.42 32.82 31.94 32.11 30.36 29.67 28.89 26.53 24.85 22.76 26.69 25.90 19.97 23.16 23.84 23.02 24.05 25.50
45.36 45.58 45.51 44.97 44.81 44.31 44.50 44.93 45.05 45.08 43.12 37.07 35.40 33.92 29.47 25.16 27.27 28.27 30.60 30.89 28.64 27.98 21.82 30.50 30.41 28.67 31.98 34.76 34.20 33.26 31.90 31.24 31.82 31.93 33.43 28.72 27.43 27.33 24.10 25.54 15.80 23.30 29.99 26.82 22.75 22.95 24.66
45.10 45.19 45.12 44.82 44.36 44.12 45.15 45.43 45.64 45.55 43.69 37.24 35.40 33.45 29.86 23.42 28.38 30.76 31.29 29.86 29.73 29.89 26.67 25.95 31.14 33.40 33.84 31.29 30.33 26.60 27.62 29.55 30.88 33.40 33.97 32.34 29.43 25.31 24.74 21.27 22.27 26.02 24.26 23.70 24.34 20.43 24.03
44.82 44.98 44.60 44.46 44.93 45.64 45.81 46.41 46.11 45.00 43.97 38.22 36.60 35.72 33.15 28.98 27.66 32.48 29.12 29.12 25.79 24.03 26.51 28.56 32.16 33.38 30.96 28.95 28.35 20.02 19.64 25.46 26.56 29.98 33.95 33.97 32.95 28.39 26.94 21.04 16.44 21.41 24.26 27.79 28.35 14.99 24.11
44.82 44.60 44.29 44.16 44.89 45.17 45.69 46.25 46.07 45.32 44.14 38.85 36.35 36.09 34.03 28.00 31.09 31.21 27.16 27.19 29.25 26.98 24.62 27.07 28.51 29.51 30.04 23.56 20.93 22.94 23.67 29.01 22.41 22.26 25.18 26.62 27.64 24.01 24.79 21.07 20.93 22.80 24.62 29.45 18.87 17.00 23.50
44.53 44.56 44.68 44.66 44.84 44.98 45.41 45.93 45.80 45.05 43.89 39.06 35.96 36.84 33.29 28.14 30.28 34.31 33.75 29.06 27.98 26.42 21.34 26.62 24.73 26.23 26.19 22.79 24.38 23.49 23.30 23.72 25.94 26.14 24.91 22.30 21.56 20.15 22.55 20.89 17.26 24.18 26.31 22.70 23.28 24.79 23.09
44.49 44.57 44.62 44.75 44.92 44.99 45.29 45.60 45.39 45.10 44.21 40.59 33.80 36.76 36.18 32.14 30.94 33.97 34.27 33.56 30.70 31.08 28.79 30.43 26.54 27.53 24.83 24.98 27.44 25.64 24.63 26.95 22.07 16.90 27.53 21.58 22.84 20.56 20.17 18.27 23.55 25.18 24.98 26.99 26.82 23.74 22.60

GFSGBSN_sfc_wetblb_111.txt.gz
Wetbulb
61.73 61.51 60.97 60.38 60.03 59.87 60.01 59.27 58.44 57.61 56.88 56.47 55.77 55.77 54.93 53.67 52.77 51.66 51.34 51.23 50.68 50.38 50.65 50.62 51.68 52.78 48.57 38.96 39.22 47.18 58.80 58.89 55.23 50.61 46.24 45.23 43.94 43.16 40.11 41.14 41.26 39.75 41.24 41.62 42.51 41.73 41.93
61.55 61.12 60.84 60.38 60.06 59.86 59.87 59.35 58.53 57.46 56.67 56.17 55.48 55.49 54.36 53.35 52.35 51.43 50.98 50.67 50.27 49.99 49.95 50.17 51.19 52.32 44.89 34.89 45.56 48.20 49.94 52.07 49.22 48.49 47.19 48.32 46.40 46.01 40.91 39.24 38.92 40.88 39.60 39.55 40.48 41.38 41.61
61.82 61.26 60.60 60.12 59.78 59.58 59.55 58.83 58.24 57.67 56.91 56.17 55.58 55.23 54.27 53.25 51.71 51.02 50.82 50.23 49.88 49.46 49.39 49.82 50.66 50.19 43.45 38.47 48.13 48.31 48.79 47.19 46.52 48.34 44.86 47.12 46.17 41.93 40.91 38.30 40.38 39.05 36.25 38.02 40.06 41.23 40.80
59.89 60.25 60.99 60.11 59.28 58.73 58.52 58.25 58.04 57.99 57.14 56.33 55.76 55.06 53.84 52.93 51.47 50.52 50.14 49.64 49.10 48.85 49.80 50.23 50.38 48.57 38.54 47.91 48.56 48.26 49.01 48.68 48.91 47.09 45.36 45.94 44.98 43.13 41.64 41.85 39.95 36.96 35.27 32.68 37.78 38.92 39.43
59.71 59.84 60.38 60.28 59.44 58.71 58.23 58.04 57.77 57.84 57.42 56.31 55.60 54.70 53.46 51.78 50.69 49.94 49.41 48.99 48.55 49.84 51.09 50.54 47.66 44.16 37.21 49.75 46.37 50.52 50.23 46.28 46.40 45.70 45.39 46.00 44.72 40.90 39.95 36.78 34.34 33.38 31.07 30.39 33.83 39.11 37.93
58.30 59.38 59.44 59.64 59.60 59.00 58.52 57.92 57.56 57.42 56.84 56.11 55.47 54.40 53.09 51.29 50.14 49.37 48.74 48.26 48.19 49.21 49.67 49.91 48.39 39.82 41.32 41.38 46.20 45.09 50.37 46.98 43.82 43.65 42.70 41.23 39.91 37.73 35.77 35.58 28.61 30.08 29.92 30.37 31.56 36.84 38.13
57.64 58.17 58.92 59.20 59.21 59.30 59.36 58.88 57.62 56.91 56.55 55.97 55.33 54.19 52.12 50.74 48.86 47.50 45.68 42.27 38.63 37.24 43.71 38.37 38.32 37.40 40.72 46.72 47.22 43.52 45.50 43.54 43.29 41.53 37.22 37.07 35.03 32.66 35.35 36.16 35.32 33.43 31.41 30.99 34.26 37.38 34.97
57.26 57.22 58.09 58.44 58.36 59.03 59.39 59.23 57.90 56.77 56.27 55.73 54.70 53.14 51.57 49.89 48.52 47.00 44.62 39.41 39.10 40.24 33.91 39.31 41.72 41.86 44.13 45.88 40.59 43.59 44.57 39.80 39.35 35.15 36.31 34.82 31.77 36.03 35.38 34.54 33.33 32.46 30.72 30.81 33.89 36.01 35.02
55.85 56.38 56.83 57.86 58.19 58.30 58.41 58.82 57.67 56.65 55.89 55.27 53.83 52.51 50.71 48.58 46.58 44.16 41.28 40.25 44.55 42.65 32.23 34.36 37.98 37.97 39.12 42.92 38.61 39.03 41.30 39.02 37.26 34.00 34.09 32.41 34.66 36.36 34.43 33.17 31.51 31.42 30.22 30.05 29.82 32.96 34.04
53.28 53.69 55.73 56.82 57.35 57.61 57.81 58.01 57.78 56.91 55.75 54.58 52.97 51.61 48.82 46.12 40.61 42.12 40.54 43.99 44.92 44.80 29.16 32.05 34.42 38.96 39.91 40.51 36.44 41.23 40.95 39.93 35.85 33.82 34.08 33.20 35.02 33.58 32.39 30.58 31.83 27.54 33.04 31.99 30.26 28.52 25.11
52.81 52.89 53.37 54.51 56.05 56.20 56.32 56.61 57.06 56.81 54.99 53.64 51.91 50.07 47.70 45.56 40.92 40.95 41.89 43.81 45.66 42.62 19.25 35.50 36.74 43.20 41.11 37.39 37.30 37.17 40.59 38.72 33.39 32.93 33.87 31.20 31.42 31.19 30.17 31.46 32.66 30.51 33.48 31.56 31.38 29.17 28.14
52.60 52.46 53.01 53.33 54.45 55.49 55.59 55.49 55.95 55.51 54.38 52.41 50.93 49.05 46.23 43.50 42.09 43.52 43.74 45.39 44.20 29.47 19.04 31.34 34.80 34.10 34.05 34.68 34.42 36.31 36.49 38.77 37.18 33.35 32.80 32.14 35.70 34.25 33.23 34.28 33.96 34.69 32.30 31.75 31.39 28.59 20.78
51.88 51.60 52.00 52.73 53.08 54.78 55.55 55.16 55.21 54.75 52.76 51.48 49.98 48.21 44.90 43.50 38.66 43.72 44.52 41.91 27.57 21.95 33.50 28.38 29.62 32.39 31.09 30.00 31.08 32.38 30.94 29.79 29.06 26.34 25.91 29.34 30.61 34.26 35.39 31.56 32.86 31.79 27.96 21.48 19.50 19.85 19.60
51.27 51.32 51.54 52.19 52.54 53.04 54.96 55.06 54.54 53.16 51.54 50.33 48.58 46.13 44.76 44.31 43.60 44.36 43.79 34.09 21.04 28.97 28.98 31.27 30.79 30.65 27.43 29.44 29.02 30.03 28.35 26.69 31.39 29.11 25.03 23.03 22.05 30.75 33.16 31.38 27.89 28.16 26.87 21.56 14.09 17.38 21.35
50.98 51.25 51.27 51.71 52.17 52.31 53.69 54.65 52.54 51.42 50.13 48.78 46.31 41.77 42.17 42.71 44.22 44.16 37.51 24.70 24.85 28.45 31.02 29.28 29.80 26.74 25.68 28.42 28.28 28.15 27.17 26.59 30.21 30.15 24.17 22.73 22.47 32.35 32.42 32.70 31.76 26.99 23.99 30.47 23.64 25.02 20.29
50.31 50.83 50.98 51.25 51.78 52.11 52.87 53.75 52.07 50.33 48.72 46.09 39.11 38.98 37.58 43.31 44.84 41.21 32.26 27.11 28.44 31.96 32.14 31.40 26.60 27.74 23.59 25.36 25.68 26.12 25.84 29.94 29.21 32.02 32.14 27.85 21.15 29.66 31.14 33.46 32.78 30.55 33.11 24.29 25.19 16.21 15.53
49.48 50.25 50.60 51.18 51.38 51.71 52.75 51.97 50.06 48.51 46.60 44.89 39.14 33.31 40.97 43.86 43.34 35.37 25.55 27.11 29.76 33.51 33.80 30.01 27.28 25.61 26.16 24.98 26.40 25.42 25.97 29.19 31.44 31.73 33.48 30.82 26.30 24.80 29.62 27.51 26.27 27.65 26.37 28.00 27.77 25.32 20.68
49.16 49.65 50.01 50.48 51.01 51.50 52.46 50.36 48.69 47.05 45.41 43.39 38.34 29.88 41.30 42.96 33.01 31.63 27.51 31.42 34.73 32.23 34.72 32.27 32.13 29.42 27.37 27.52 26.05 25.73 25.45 28.26 33.00 32.79 27.30 30.80 27.39 21.85 24.48 31.31 33.64 30.78 28.52 28.17 22.67 21.93 25.77
48.77 49.26 49.72 50.13 50.97 51.65 50.71 49.22 47.62 45.92 45.81 40.79 33.77 33.96 40.21 39.76 26.05 27.60 31.58 31.59 33.05 31.64 31.67 30.99 29.28 31.06 30.33 27.20 23.65 27.03 27.88 33.06 33.52 31.95 29.58 32.10 26.10 19.08 22.35 28.98 33.03 28.86 30.66 31.01 31.62 28.51 22.81
48.40 48.98 49.79 51.73 52.45 50.93 49.27 48.04 46.32 45.86 46.86 40.29 34.19 27.85 33.73 36.52 33.31 30.71 29.63 29.27 28.36 33.57 31.56 31.87 30.03 31.20 29.04 26.83 28.74 25.46 27.16 31.16 32.99 32.27 35.57 34.33 27.21 22.45 18.85 23.41 27.28 24.31 27.69 29.97 29.25 25.05 25.17
48.61 49.36 51.91 52.17 51.21 49.61 48.13 46.62 45.90 46.67 45.89 40.10 35.02 29.98 33.42 27.36 28.82 30.65 31.51 30.80 27.64 27.03 31.58 31.49 28.63 29.28 27.85 23.96 25.28 25.03 27.49 28.20 29.63 32.73 32.95 31.66 23.87 25.26 26.17 27.40 27.79 27.89 26.44 26.50 23.08 27.75 25.88
50.94 51.81 51.74 50.52 49.08 47.99 47.22 46.13 46.33 46.34 45.20 39.06 31.21 30.79 33.27 31.63 31.83 30.27 31.52 29.01 28.14 28.77 29.59 27.24 27.75 29.17 29.11 25.94 26.94 24.47 27.18 27.52 27.10 30.83 31.42 32.58 25.29 25.77 21.78 28.16 28.56 23.45 25.30 25.72 24.05 26.04 23.70
50.59 49.34 48.39 47.91 47.37 46.82 46.17 45.61 46.34 45.78 43.55 37.05 36.50 36.83 34.02 32.28 30.45 29.20 28.76 29.51 29.38 30.41 30.96 32.20 31.10 29.47 27.92 29.92 32.59 32.74 33.92 33.40 33.00 30.42 30.83 29.76 27.38 25.25 22.24 26.63 25.68 22.14 23.74 23.90 23.66 25.16 26.02
46.84 46.50 46.20 45.83 46.01 46.03 45.47 45.92 45.97 45.69 42.37 38.59 36.69 36.04 31.42 26.51 29.43 29.49 30.57 31.08 29.30 29.82 27.14 31.73 32.36 30.98 33.54 36.78 35.95 34.67 33.38 32.55 32.65 32.41 33.91 29.85 28.17 27.70 24.20 25.47 17.96 24.71 28.74 26.65 23.38 23.27 25.71
45.44 45.62 45.72 45.54 45.03 44.62 45.18 45.76 45.54 45.69 43.74 38.43 37.35 35.23 31.30 26.71 30.59 30.91 31.14 30.33 31.29 31.57 30.02 30.00 32.37 35.02 36.50 35.32 30.64 27.49 27.92 28.50 29.69 32.05 33.11 32.10 29.87 25.11 24.53 22.22 22.84 25.07 25.56 25.24 24.39 21.01 24.50
44.67 45.04 45.17 44.63 44.37 44.56 45.17 45.41 45.83 46.35 43.81 38.62 37.07 37.16 34.48 30.57 28.99 33.45 30.08 31.43 28.13 27.52 28.32 30.73 34.15 36.18 35.08 31.74 28.31 23.20 22.49 25.06 26.38 30.63 35.22 33.77 31.95 26.96 25.65 20.60 17.51 23.14 24.83 28.05 28.38 20.30 24.34
44.08 44.63 45.01 45.41 45.55 45.87 46.11 46.22 45.97 45.05 44.02 39.04 36.84 36.71 35.23 29.87 31.92 32.92 29.60 29.39 30.47 29.13 27.44 29.42 31.18 31.94 33.23 28.05 26.23 25.13 25.13 29.39 23.43 22.42 24.50 26.57 27.57 25.02 26.21 22.10 21.59 23.61 25.34 29.22 21.42 21.21 23.84
44.87 45.29 45.60 45.92 45.87 45.90 45.75 45.62 45.29 44.24 43.02 38.94 36.13 36.91 35.46 31.45 32.48 35.41 34.51 30.82 30.07 29.39 26.52 28.81 29.84 29.67 29.26 26.28 27.02 26.13 24.62 27.24 26.77 26.10 25.16 23.12 21.73 21.97 24.31 21.18 18.41 24.88 27.18 24.36 24.69 25.10 23.22
44.52 44.87 45.15 45.34 45.60 45.53 45.61 45.66 45.31 44.43 43.34 39.99 35.48 37.43 37.19 34.23 33.15 35.47 35.80 36.02 34.79 33.40 32.01 31.66 29.58 29.80 30.96 28.33 28.63 28.77 25.93 27.86 25.11 21.85 28.12 23.01 23.68 21.47 20.81 20.12 24.20 26.20 26.04 28.23 27.65 24.26 23.14

GFSGBSN_sfc_wetblb_114.txt.gz
Wetbulb
62.20 62.09 61.60 60.98 60.45 60.08 60.29 60.13 59.08 58.34 57.84 57.52 57.30 56.58 56.48 55.54 54.27 52.61 51.17 51.02 51.29 51.11 50.52 50.79 51.39 52.75 51.97 43.59 42.55 51.10 57.37 58.68 56.46 52.71 48.81 47.29 45.76 44.90 42.31 43.23 44.10 43.20 43.88 45.03 46.89 46.32 46.03
60.43 61.35 61.33 61.07 60.63 60.35 60.54 59.90 59.18 58.10 57.61 57.23 56.87 56.21 55.99 55.76 54.23 52.30 51.10 51.08 50.93 50.76 50.13 50.11 50.92 52.23 47.17 39.81 48.02 50.39 53.26 55.24 52.90 51.05 48.78 48.64 46.67 47.15 44.59 43.71 43.20 44.18 44.71 44.42 44.77 44.80 45.20
60.10 60.10 60.73 60.57 60.24 60.09 60.01 59.33 58.97 58.36 57.83 57.31 56.69 56.06 55.80 55.22 53.89 52.03 51.13 50.93 50.67 50.12 49.66 49.79 50.49 50.94 45.16 43.55 49.96 52.18 51.44 51.30 51.46 50.80 48.50 49.89 49.79 46.84 45.11 42.28 44.43 43.23 40.08 42.21 43.15 43.82 43.01
58.16 59.36 59.55 59.25 59.41 59.08 58.97 58.88 58.59 58.61 57.99 57.55 57.27 56.00 55.18 54.43 53.45 51.74 50.61 50.33 50.03 49.41 49.89 50.82 50.19 49.94 41.86 48.78 51.81 50.20 50.30 50.94 52.35 51.42 49.79 49.45 49.22 47.35 45.44 45.75 43.72 41.44 41.06 37.23 42.00 42.42 43.11
57.80 58.11 58.77 59.18 58.84 58.99 58.63 58.43 58.29 58.32 58.26 57.62 57.12 56.09 54.70 53.50 52.14 50.94 49.89 49.18 48.94 50.35 50.97 51.03 49.52 47.55 41.15 50.47 47.88 51.72 51.07 47.21 50.16 50.06 50.27 48.33 48.29 45.95 45.07 41.98 39.93 40.41 35.90 36.79 37.96 42.06 41.48
57.89 57.96 57.80 58.58 58.88 58.92 58.88 58.45 57.96 57.96 57.64 57.39 56.81 55.81 54.28 52.78 51.01 49.89 48.08 47.96 48.01 50.29 51.36 51.78 50.78 42.38 45.70 42.14 49.21 48.54 54.01 50.62 47.35 47.29 45.61 45.75 45.31 42.34 42.38 40.40 34.03 36.31 35.60 37.37 36.56 39.76 41.26
57.15 58.11 57.83 57.66 58.25 58.70 59.10 59.17 58.26 57.37 57.17 57.23 56.39 55.55 53.78 51.97 50.03 48.08 46.94 44.79 44.73 44.27 46.55 44.28 42.89 41.74 43.41 49.86 50.64 46.64 49.21 47.30 47.19 45.61 40.80 43.46 39.83 37.66 40.50 41.36 40.36 38.35 36.91 35.91 38.87 41.46 39.38
55.25 56.19 57.37 57.76 57.65 58.36 58.90 59.15 58.27 57.31 56.81 56.77 55.91 54.93 52.99 50.94 49.10 48.06 46.06 40.47 40.77 42.60 40.48 44.91 44.15 44.60 46.28 48.63 43.67 45.58 48.41 43.37 42.93 39.62 42.56 40.10 37.10 41.63 41.79 40.26 38.28 37.85 35.90 36.15 38.77 39.70 38.80
53.70 54.25 54.64 55.80 56.93 57.55 58.12 58.28 57.70 56.97 56.59 56.33 55.37 53.86 52.16 49.94 48.57 44.56 42.25 42.31 48.10 45.62 39.10 41.26 42.18 41.60 43.06 45.80 40.99 42.98 45.54 43.84 40.73 38.89 39.33 37.35 39.23 40.05 39.18 38.01 36.29 36.96 35.61 35.79 35.10 37.32 38.45
53.28 53.24 53.63 54.05 54.71 55.82 56.61 57.13 57.23 57.03 56.45 55.67 54.47 52.53 50.26 47.91 44.49 41.74 39.23 44.70 49.21 47.65 31.19 39.33 37.31 40.25 42.31 43.77 39.11 44.06 44.43 42.92 39.99 36.52 38.45 38.05 40.46 38.02 37.45 36.04 37.08 33.47 38.16 35.55 34.36 33.69 31.16
51.91 52.75 53.10 53.22 53.45 53.69 54.33 55.71 56.43 56.75 56.21 55.47 53.20 51.00 48.44 50.38 42.59 41.41 45.32 46.03 48.39 45.47 26.69 38.49 39.06 46.61 43.51 40.17 40.62 39.73 43.58 42.05 38.29 37.72 38.02 35.76 35.65 35.70 34.98 35.84 37.05 34.37 36.81 35.63 34.95 33.22 33.05
50.86 51.52 52.69 52.99 52.77 52.87 53.33 54.49 55.20 55.53 55.59 54.51 52.11 49.46 48.24 44.43 45.65 45.52 45.47 47.30 44.89 32.40 26.27 34.25 38.92 38.05 38.40 38.67 38.17 39.77 40.19 42.68 41.30 37.61 38.13 37.78 39.35 37.66 37.49 37.34 37.31 37.84 35.51 35.69 35.47 33.36 26.69
49.66 50.24 51.14 52.10 52.16 52.21 52.89 53.45 54.98 55.15 54.91 53.20 50.82 49.14 48.13 45.83 42.01 45.71 45.86 42.42 30.17 28.63 36.63 33.28 34.66 37.17 38.16 35.09 35.26 36.75 36.44 36.04 34.88 31.20 32.53 35.10 35.52 37.76 37.83 33.76 37.12 35.98 32.60 27.21 25.82 26.09 25.79
48.94 49.23 50.01 51.12 51.83 51.67 52.19 52.81 54.22 54.50 53.87 51.91 49.69 47.68 44.57 44.73 46.19 45.80 45.12 35.09 25.96 33.57 33.25 34.94 35.18 35.80 34.35 34.44 33.61 33.65 32.79 33.17 35.49 34.48 32.57 30.36 28.20 34.05 37.04 34.82 33.11 33.45 32.54 27.13 20.15 23.79 27.83
48.55 48.74 49.34 50.03 50.85 51.39 51.75 52.38 52.71 53.93 52.40 50.03 46.80 43.60 43.08 43.97 45.85 46.45 37.27 26.59 34.17 35.58 37.15 34.10 34.09 32.81 31.89 32.57 32.91 32.65 31.69 33.24 34.74 35.26 29.47 28.92 27.71 35.42 35.66 36.17 34.52 31.52 27.96 34.41 27.45 29.13 25.00
48.13 48.56 48.77 49.29 50.33 51.09 51.47 51.97 52.59 52.78 49.79 47.81 41.49 40.09 40.93 44.94 46.97 43.06 33.46 31.19 35.06 35.85 35.91 36.33 31.58 34.44 31.27 31.52 30.64 30.94 31.72 33.98 32.76 35.10 35.59 30.98 24.78 32.48 34.47 35.90 36.25 32.94 35.72 26.21 28.06 18.53 19.12
47.39 47.77 48.30 48.74 49.37 50.31 51.03 51.76 52.26 50.53 48.14 47.28 40.07 35.85 39.83 45.82 46.27 37.60 29.18 31.66 35.02 36.69 36.93 34.27 33.38 30.98 32.39 30.43 31.71 30.73 30.56 32.66 34.26 34.07 35.84 33.50 29.11 28.00 31.58 30.09 30.43 31.18 29.35 30.54 31.50 29.00 23.05
46.67 46.99 47.36 48.06 48.61 49.78 50.76 51.51 51.75 48.97 47.91 45.20 40.16 30.50 40.35 44.85 33.91 34.81 32.60 35.58 37.51 35.85 37.31 34.91 35.53 33.73 32.77 32.29 30.49 30.00 29.38 31.63 36.06 35.98 30.03 33.78 30.31 25.37 28.50 34.54 36.22 34.63 32.15 32.25 25.55 24.96 28.78
46.57 46.86 47.17 47.71 48.23 49.32 50.34 51.08 50.63 48.20 48.49 42.97 35.31 34.05 42.38 41.85 29.91 31.43 35.67 34.73 36.18 34.68 35.07 34.54 33.40 34.48 33.94 31.29 28.42 31.26 30.40 35.01 36.56 34.82 32.07 34.55 29.20 23.67 25.78 31.01 34.90 31.39 32.67 33.02 32.26 31.13 26.62
46.33 46.92 47.19 47.77 48.20 49.31 49.92 50.88 49.57 47.93 48.94 42.36 36.74 30.51 34.25 36.57 39.26 35.55 33.64 33.38 31.95 36.73 35.57 35.54 33.13 34.32 32.48 31.33 32.96 28.92 29.64 33.29 35.86 35.36 35.55 36.32 29.97 25.66 24.65 27.20 30.73 27.23 30.33 32.18 30.21 26.78 28.01
46.09 46.56 47.13 47.66 48.12 49.18 49.84 50.44 48.50 48.38 48.21 42.15 39.55 33.92 37.06 30.48 32.58 35.60 36.08 34.66 31.70 30.51 34.74 35.12 31.28 33.09 32.56 28.18 29.09 27.60 31.05 31.78 33.41 34.80 35.44 34.29 26.15 28.97 29.02 30.54 31.05 29.78 29.11 29.87 27.07 27.87 24.94
46.70 46.67 46.55 47.43 48.30 49.03 49.63 49.98 47.75 48.59 47.56 41.40 36.28 35.60 38.06 36.23 36.34 34.86 34.70 32.52 31.28 31.13 31.50 31.12 32.06 33.61 33.65 29.22 30.30 28.04 31.11 31.40 31.49 34.50 32.88 34.36 26.88 29.22 26.35 31.58 30.93 27.83 27.29 29.31 27.10 25.07 26.11
45.49 45.57 46.27 47.05 48.04 48.93 49.73 49.25 47.74 47.77 46.65 40.24 40.84 43.84 40.85 34.76 34.91 33.39 33.58 32.49 32.39 33.96 34.31 36.09 35.24 33.04 30.75 33.19 36.08 36.32 37.57 36.50 36.07 33.57 32.30 32.17 29.29 28.09 24.78 28.23 28.08 24.07 24.90 25.75 25.95 27.46 27.36
46.13 46.06 46.81 47.33 48.08 49.42 49.45 47.47 47.40 46.78 45.05 42.23 43.03 43.37 38.60 30.63 33.79 32.80 33.52 34.15 33.49 35.07 33.57 35.27 36.47 34.14 36.79 40.85 39.87 38.68 37.68 36.71 35.90 34.80 35.85 31.63 29.95 30.50 26.65 27.43 20.87 26.00 30.21 29.25 26.17 26.37 28.57
48.72 47.53 48.09 48.19 49.70 48.03 47.14 46.91 46.17 44.81 44.45 42.07 42.83 42.32 37.27 30.63 33.13 33.19 33.92 34.24 35.95 36.05 33.96 34.80 36.32 39.04 41.31 38.11 33.06 29.99 30.06 29.41 30.74 33.31 34.03 33.95 31.74 28.45 25.79 25.65 25.32 26.95 28.14 27.84 26.52 23.76 27.85
49.29 49.51 49.31 48.44 46.95 46.65 45.94 45.87 45.75 44.24 44.30 43.54 41.62 44.77 41.03 33.71 32.39 37.09 35.24 35.86 33.24 33.44 33.23 34.43 38.31 41.36 39.93 36.51 31.61 27.30 25.39 28.35 28.76 30.22 34.30 34.72 33.22 29.75 28.52 23.57 20.60 27.23 28.70 31.35 31.59 24.48 27.95
46.11 46.40 46.43 46.08 45.69 45.46 45.75 46.17 46.08 44.45 43.62 43.69 40.96 42.86 42.98 36.37 37.56 39.01 35.23 34.38 37.61 35.73 33.29 34.48 35.58 36.10 38.66 34.06 30.11 29.29 28.39 32.60 27.28 26.87 27.93 30.22 30.73 26.70 27.76 27.12 26.06 27.04 28.63 31.96 23.87 24.59 27.87
44.35 44.64 44.77 45.07 45.14 45.37 45.35 46.19 45.84 45.04 43.74 44.28 40.55 42.36 42.91 38.43 37.10 38.90 38.53 36.15 36.06 37.07 32.49 35.29 34.74 34.41 33.98 31.36 32.58 31.80 29.12 30.51 29.55 29.59 27.74 27.51 27.53 27.74 28.58 26.47 22.34 28.25 29.72 27.15 27.39 28.50 28.08
44.46 44.68 44.79 44.81 45.15 45.40 45.64 45.35 44.88 43.92 42.74 45.27 39.98 42.61 45.73 40.09 35.94 40.35 39.73 40.04 39.88 39.65 38.28 37.48 35.74 35.85 38.22 35.89 35.73 33.53 28.30 29.61 29.10 25.86 30.57 26.23 28.72 29.12 25.70 25.06 26.94 29.09 29.00 31.56 31.51 28.89 28.71

GFSGBSN_sfc_wetblb_117.txt.gz
Wetbulb
60.96 61.77 61.88 61.42 60.96 60.60 60.74 60.41 59.65 58.77 58.43 58.29 57.95 58.00 57.60 56.74 55.91 54.46 52.88 51.94 51.86 51.59 51.22 51.01 51.45 52.33 53.88 49.07 49.28 55.93 58.54 57.56 57.03 54.57 50.33 48.62 47.24 47.40 44.92 46.51 46.69 44.58 46.03 46.94 47.28 47.24 47.42
59.14 60.30 60.32 61.16 61.15 60.80 60.97 60.31 59.63 58.78 58.26 57.76 57.66 57.32 56.95 56.84 56.46 54.79 52.94 51.99 51.83 51.28 51.08 50.45 50.96 51.41 50.33 45.73 50.66 50.83 52.92 54.43 53.97 51.67 49.35 48.61 46.83 48.19 45.87 45.32 45.50 47.14 46.08 46.48 47.07 46.64 46.28
58.40 58.63 59.74 60.01 59.89 60.40 60.41 59.83 59.49 59.13 58.61 57.97 57.58 56.98 56.40 56.34 55.83 54.62 52.63 51.77 51.43 51.03 50.63 50.19 50.69 50.99 48.04 49.52 52.80 52.92 51.61 50.24 52.52 50.99 49.01 50.85 50.86 49.05 47.61 44.78 47.24 45.65 42.42 44.29 45.01 45.56 44.68
58.23 58.32 58.34 58.61 58.67 58.87 59.10 58.99 58.97 58.95 58.79 58.43 57.97 56.99 56.04 55.70 54.89 53.67 52.49 51.30 50.84 50.45 50.06 51.94 51.49 50.63 46.45 52.25 52.50 50.42 50.96 50.75 51.64 51.56 51.18 51.21 51.23 48.48 47.10 47.71 45.67 43.03 43.97 40.30 45.47 44.45 44.88
57.51 57.74 57.98 57.99 57.75 58.22 58.39 58.59 58.49 58.77 58.75 58.19 57.79 57.05 56.02 54.92 53.86 52.43 51.24 50.41 50.16 49.62 52.05 51.70 51.01 50.52 47.50 50.61 47.92 51.89 51.71 47.80 50.22 51.35 51.88 50.71 49.65 46.42 46.80 43.27 41.59 43.22 39.18 41.23 42.80 45.33 43.70
56.08 56.67 57.33 57.88 57.59 57.91 58.54 58.35 58.17 58.05 57.98 57.82 57.41 56.83 55.60 54.14 52.70 51.33 50.07 48.80 49.82 50.15 51.91 53.18 52.41 46.06 49.72 45.15 50.17 50.10 53.66 50.27 48.05 49.09 47.77 47.04 45.75 43.30 43.91 41.69 36.23 40.02 40.53 41.85 40.55 43.69 43.69
54.66 55.35 56.04 57.50 57.91 57.94 58.61 59.07 58.27 57.47 57.38 57.39 57.37 56.87 55.24 53.50 51.91 49.36 47.19 45.08 45.59 48.09 49.92 49.58 50.28 48.67 47.54 50.87 51.76 48.76 53.18 51.03 48.29 46.62 42.14 45.19 41.60 39.72 42.56 44.26 43.66 42.22 40.42 39.04 41.44 43.70 42.14
54.69 54.35 54.32 55.29 56.61 57.87 58.33 58.47 57.98 57.33 57.13 57.25 57.02 55.95 54.42 52.90 50.74 48.82 47.40 40.30 46.73 47.83 46.84 51.46 49.24 49.02 50.03 49.55 45.01 48.06 50.28 45.37 45.26 41.67 44.54 42.87 39.48 43.88 44.24 43.57 42.11 40.83 38.58 38.40 41.22 43.11 41.72
52.70 54.02 53.97 53.63 54.02 55.44 56.78 57.58 57.28 57.11 56.80 56.66 56.17 55.35 53.31 51.27 49.55 46.50 45.02 43.55 50.56 49.27 45.35 48.72 50.96 48.68 48.63 47.79 44.09 44.96 47.98 45.78 43.25 41.56 42.20 40.43 43.13 43.84 41.20 40.85 39.49 39.18 37.78 38.16 38.00 40.64 41.49
51.72 52.26 53.11 53.74 53.93 54.46 54.76 55.53 56.40 56.75 56.42 56.03 55.55 53.72 51.26 49.51 46.14 44.65 41.39 49.23 50.27 50.47 39.13 44.46 42.67 43.60 44.85 45.58 41.87 48.21 47.99 46.21 43.24 39.84 41.13 40.64 43.55 41.10 40.60 38.62 39.74 36.03 40.76 39.50 37.74 36.15 32.90
50.30 51.00 51.84 52.88 53.55 53.50 53.59 53.79 54.32 55.97 56.38 55.69 54.53 52.20 49.35 51.24 45.94 41.62 49.26 51.52 51.07 49.95 28.79 43.52 41.06 47.19 45.60 41.91 42.56 42.32 46.53 43.77 39.49 40.67 40.31 38.34 39.57 38.67 37.45 38.46 40.85 37.70 40.87 38.15 37.71 35.85 35.18
50.09 50.28 50.92 51.57 52.26 52.99 53.06 53.24 53.34 54.22 55.52 55.21 53.20 50.80 49.88 45.99 46.36 46.56 49.13 48.84 46.36 34.75 29.41 39.47 42.27 40.65 40.61 41.80 41.66 42.94 42.34 45.00 44.50 40.85 41.56 40.32 42.94 40.67 40.14 41.09 40.08 40.73 38.03 37.43 36.80 34.23 27.54
48.30 49.63 50.03 50.37 50.82 51.87 52.64 52.76 53.08 53.35 54.74 54.75 52.11 50.33 50.23 49.57 42.99 48.84 49.05 44.37 33.65 31.11 41.32 38.40 38.28 40.83 40.59 38.49 39.48 40.16 39.45 38.98 37.61 33.94 34.88 38.95 39.27 41.29 40.18 37.72 40.49 38.35 35.01 28.48 27.42 27.97 27.46
48.30 48.14 48.81 49.55 49.89 50.69 51.74 52.20 52.57 52.78 54.12 53.79 51.28 50.02 49.04 47.65 48.24 49.75 45.50 36.92 29.02 38.17 39.74 39.84 39.00 39.50 37.71 39.81 38.75 38.63 38.32 37.07 40.22 38.18 35.44 32.10 30.06 38.88 40.76 37.81 36.17 36.68 35.82 29.02 21.93 24.47 28.74
47.87 47.88 48.17 48.43 49.27 49.63 50.57 51.52 52.01 52.49 53.20 52.66 49.79 45.37 44.63 46.65 47.39 46.01 39.64 31.66 35.22 39.74 42.60 37.85 38.08 36.11 36.86 38.34 37.05 37.52 37.40 37.60 39.88 40.22 33.04 31.72 32.02 38.36 38.36 39.67 37.97 34.79 31.87 36.55 29.50 30.53 26.62
47.38 47.60 47.90 48.17 48.61 49.00 49.64 50.91 51.78 52.35 52.55 48.91 44.47 42.37 41.75 47.04 46.89 43.09 36.57 34.74 39.76 43.60 41.87 40.58 35.24 38.39 35.73 36.66 34.67 35.89 36.50 38.48 37.04 38.44 38.44 34.78 28.07 36.74 37.23 38.27 38.63 35.50 37.53 28.66 29.66 19.87 20.63
46.08 46.79 46.84 47.46 48.22 48.64 49.45 50.56 51.51 52.08 50.04 48.82 44.53 36.73 42.29 47.02 46.03 38.13 34.14 38.81 41.80 43.12 41.62 39.21 38.10 37.42 37.82 37.25 36.71 35.99 34.75 36.54 37.67 37.12 38.21 36.41 32.95 32.52 34.44 33.06 31.94 33.94 31.08 31.86 32.37 30.38 24.42
45.36 45.74 45.94 46.60 47.01 48.20 49.07 50.03 51.29 51.51 49.16 47.11 41.39 32.19 43.19 45.59 33.53 35.22 37.30 40.69 41.87 41.39 40.94 39.30 39.76 39.52 36.86 37.47 34.96 34.78 33.94 35.78 39.08 38.46 33.11 36.77 32.78 28.14 31.24 36.95 38.20 36.55 34.36 33.55 26.28 25.82 29.33
45.32 45.64 46.05 46.46 47.01 47.29 48.15 49.05 50.19 50.34 48.51 43.82 34.55 33.74 41.93 42.78 32.18 35.50 40.46 40.84 41.07 39.64 38.46 38.28 37.06 39.10 38.96 36.64 32.16 35.22 34.69 38.38 37.85 37.08 34.17 36.25 30.61 24.10 27.95 32.78 36.61 33.88 35.62 35.15 34.38 32.94 27.61
45.24 45.62 45.87 46.49 46.76 47.08 47.65 48.37 49.59 49.71 49.18 43.42 35.96 29.57 33.20 35.18 37.29 39.76 38.29 37.10 37.03 41.07 39.29 39.70 38.30 38.79 36.79 34.64 36.68 33.49 34.54 36.20 38.26 37.64 36.70 37.19 31.50 28.08 25.07 27.26 33.31 30.11 32.96 34.56 32.94 27.55 28.81
45.16 45.19 45.62 46.16 46.49 46.76 47.47 48.05 49.24 49.31 49.12 46.68 38.11 34.54 38.45 29.35 31.30 37.14 38.91 39.04 36.56 34.79 39.34 39.51 36.84 36.65 34.95 31.99 34.00 32.79 34.93 34.84 36.03 37.07 36.30 34.94 27.54 30.42 30.66 32.40 32.89 31.71 31.76 32.58 30.39 31.69 27.42
45.35 45.19 45.45 45.62 46.11 46.77 47.19 47.76 48.59 49.01 48.98 45.51 35.85 38.57 40.50 40.80 37.10 35.72 37.32 37.30 36.86 36.72 36.74 35.23 34.50 35.38 36.41 33.78 35.17 31.86 34.27 33.97 31.98 35.58 34.17 36.62 27.99 30.44 26.67 32.95 33.23 30.92 32.41 32.39 31.64 30.45 27.39
45.33 45.47 45.39 45.65 46.01 46.74 47.43 47.41 48.52 48.77 48.14 43.28 43.78 46.94 43.30 39.14 36.15 35.51 37.75 38.64 38.27 38.64 37.64 37.81 35.98 36.31 35.73 37.46 38.67 38.90 39.92 38.96 38.08 35.04 33.33 33.39 31.26 28.73 26.49 31.71 29.72 26.85 29.32 29.50 29.58 28.32 30.18
45.37 45.53 45.71 45.77 46.03 46.70 47.14 47.62 48.35 48.71 48.64 43.51 45.53 44.27 40.77 34.53 37.50 36.78 39.57 39.63 38.45 37.15 34.57 37.08 39.89 37.81 40.03 43.23 42.09 40.54 39.34 39.12 38.08 37.40 38.27 33.65 31.23 31.41 27.89 29.15 21.38 27.46 32.29 31.96 29.77 29.78 31.22
45.08 45.61 46.64 46.35 46.05 46.86 47.08 47.64 48.15 48.58 49.14 46.01 45.77 43.59 42.58 35.96 39.60 38.09 39.50 38.67 38.25 37.61 35.56 38.05 39.65 42.03 43.79 40.44 34.93 31.39 31.17 31.39 33.88 35.65 35.06 36.92 33.14 29.56 26.78 27.13 27.55 27.04 29.26 29.55 27.88 26.72 32.25
45.38 45.22 46.49 46.08 46.65 46.50 46.87 47.69 48.08 48.68 49.08 46.04 43.83 46.99 44.69 40.94 38.15 41.80 38.77 37.60 33.55 34.87 35.73 37.90 41.77 44.36 42.33 37.49 33.09 27.55 27.05 30.70 29.66 31.07 37.06 35.27 34.82 29.92 29.85 24.73 22.18 29.44 33.41 35.96 34.72 25.75 32.30
49.27 45.80 46.33 45.98 45.94 46.50 46.92 47.90 48.46 48.44 47.21 45.17 42.89 46.28 45.62 39.51 40.50 40.50 37.15 35.92 40.04 37.93 35.83 37.42 37.68 38.17 41.47 34.88 29.41 30.54 30.16 35.51 29.59 29.06 29.46 29.95 30.57 27.88 28.07 27.59 27.81 32.47 33.38 34.64 25.53 26.28 32.84
46.05 45.06 45.56 45.79 46.12 46.65 47.42 48.05 46.85 46.12 46.33 44.51 42.41 47.21 45.87 40.89 40.46 41.23 42.69 40.36 40.33 39.77 34.94 38.04 36.56 37.31 35.92 31.63 32.90 33.48 33.08 34.19 32.45 33.72 31.38 30.84 29.82 29.23 30.23 27.91 24.70 32.03 32.84 28.04 30.83 33.07 33.85
45.71 46.21 46.19 46.17 45.85 45.33 45.26 45.18 45.47 45.42 45.89 45.94 42.26 47.87 48.73 42.72 40.69 44.55 43.98 45.05 44.54 43.94 41.20 40.36 38.67 38.42 39.60 36.31 37.66 38.13 33.55 33.07 32.71 28.56 35.01 28.85 32.73 30.08 29.20 27.31 29.41 31.73 32.58 34.89 34.99 32.44 32.10

GFSGBSN_sfc_wetblb_120.txt.gz
Wetbulb
58.01 59.05 60.40 60.69 61.43 60.94 61.28 60.84 59.90 59.11 58.79 58.59 58.53 58.46 58.56 58.28 57.56 56.51 55.23 53.39 52.59 52.09 52.05 52.05 51.78 52.30 52.48 50.40 51.74 55.59 59.78 57.94 55.51 54.54 50.34 48.64 47.00 46.68 44.26 46.12 47.11 45.48 46.24 47.18 47.77 47.65 46.71
57.81 58.03 58.41 59.49 59.83 60.46 61.29 60.78 59.87 58.99 58.35 58.17 57.89 57.90 57.87 57.87 57.33 56.41 55.10 53.31 52.39 52.01 51.80 51.79 51.19 51.57 49.11 44.96 52.96 54.42 54.27 54.75 53.75 52.60 49.87 48.87 46.52 47.29 45.23 45.01 44.29 45.94 45.94 46.19 46.33 46.35 45.99
56.45 58.35 58.28 58.14 58.77 59.47 60.10 59.93 59.52 59.14 58.76 58.64 58.16 57.69 57.69 57.48 56.90 56.07 54.95 53.40 52.50 51.67 51.55 51.40 51.11 50.25 47.01 48.55 56.68 54.18 52.49 49.86 51.46 51.47 48.19 50.24 50.44 47.90 48.19 45.15 47.42 46.10 42.75 44.40 44.73 45.13 44.60
57.59 58.33 58.32 58.04 57.89 58.06 58.56 58.72 59.04 59.14 58.88 58.82 58.78 58.06 57.25 56.75 56.07 55.14 53.92 52.78 51.97 51.22 51.19 51.26 52.91 50.12 45.20 56.45 53.86 51.31 51.83 50.03 51.27 50.69 49.96 50.93 51.24 48.37 46.10 46.92 44.76 42.47 43.01 39.11 44.87 47.11 45.48
55.67 57.01 57.56 57.75 57.63 57.42 57.78 58.06 58.21 58.75 58.78 58.46 58.24 57.78 56.85 55.57 55.19 53.93 52.90 51.21 51.30 51.11 50.54 52.63 50.27 49.61 47.76 52.56 48.98 51.57 50.22 47.61 49.05 50.39 50.50 50.59 49.11 45.48 45.39 41.48 39.88 42.85 37.68 40.22 42.94 46.54 44.74
54.98 55.56 56.60 56.90 57.07 57.72 57.65 57.78 57.81 57.97 58.05 57.87 57.91 57.35 56.49 55.37 54.34 52.81 51.28 49.65 50.85 49.32 51.42 53.70 52.61 46.99 51.04 47.60 50.18 51.90 52.06 51.36 47.06 48.61 47.26 46.80 44.90 41.21 41.99 39.79 33.68 38.37 39.78 41.47 41.18 44.75 44.53
53.90 54.71 55.37 55.38 56.18 57.81 58.27 58.22 58.03 57.41 57.31 57.41 57.63 57.33 56.51 54.83 53.30 51.40 48.76 46.47 43.87 45.76 49.55 49.30 50.98 49.91 51.89 54.90 52.77 50.13 51.96 50.01 47.10 45.61 40.86 44.83 39.82 37.36 40.90 43.41 43.51 42.44 40.78 39.63 42.20 44.88 42.47
51.95 52.59 54.31 53.90 54.05 55.45 56.44 57.94 57.44 57.03 57.15 57.09 57.01 56.89 55.61 54.23 52.51 50.15 48.74 44.38 47.75 46.39 43.57 52.32 50.95 51.69 53.56 53.76 47.94 50.18 51.95 46.69 45.75 40.28 43.15 41.26 38.26 42.83 44.75 44.64 42.75 41.21 39.36 39.01 41.47 42.96 42.14
51.56 52.13 52.23 53.23 54.00 54.00 54.19 55.66 55.78 56.47 56.71 56.63 56.27 56.39 54.77 52.78 50.50 48.59 46.30 45.86 52.30 51.23 43.54 48.84 51.93 51.18 51.70 52.00 47.57 47.62 50.37 46.46 43.51 42.05 41.98 40.08 42.97 46.13 43.73 41.46 39.50 39.82 38.74 38.47 37.74 40.67 41.54
51.09 50.97 52.02 51.98 52.42 53.54 54.31 54.52 54.50 54.84 56.05 56.21 55.91 54.81 52.28 50.42 48.05 49.00 45.83 51.61 53.59 51.21 40.72 42.27 46.59 48.28 51.15 48.69 43.61 49.78 50.49 47.04 43.79 40.43 41.68 41.23 44.13 42.18 41.44 40.04 40.61 36.12 41.34 40.01 38.34 36.35 31.45
50.77 50.82 50.92 51.58 52.27 52.89 53.80 53.59 53.73 53.77 54.45 56.03 54.82 52.48 50.13 52.49 49.47 45.61 51.22 52.52 52.14 49.82 27.09 43.56 43.60 48.81 46.98 43.62 43.72 43.99 50.34 45.85 41.11 42.03 41.95 38.65 40.25 39.89 38.61 38.71 41.01 37.72 41.30 39.31 38.11 35.23 34.34
49.60 49.86 50.46 50.61 51.26 52.04 52.94 53.35 53.03 53.14 53.30 54.94 53.57 51.25 50.71 47.71 48.20 51.30 52.35 48.94 48.91 36.78 27.72 41.04 43.05 40.83 41.16 42.53 42.92 43.59 42.97 44.95 44.39 40.35 40.61 39.93 44.01 42.37 40.55 41.72 41.32 41.40 38.32 37.62 37.09 34.96 27.56
48.83 49.01 49.48 49.69 50.27 50.85 51.54 52.65 52.75 52.66 52.79 53.84 52.66 51.30 51.40 49.91 45.11 50.38 48.97 44.74 35.16 30.90 42.69 39.74 40.06 41.93 40.88 39.91 40.40 40.81 39.39 38.30 36.68 33.37 34.21 38.91 39.66 42.34 42.67 37.90 40.36 39.07 34.49 26.77 25.66 27.24 26.60
48.05 48.61 48.55 48.86 49.07 49.91 50.62 51.25 52.40 52.28 52.36 53.07 52.48 50.76 52.23 51.52 51.76 50.01 45.50 38.83 30.09 37.24 38.59 42.46 41.25 41.20 38.22 41.22 40.01 39.91 38.64 37.18 40.55 39.10 35.77 32.50 31.30 39.80 42.29 38.85 35.80 36.03 34.77 27.91 20.24 22.67 26.89
47.74 48.23 48.37 48.52 48.61 48.71 49.32 49.93 51.12 52.05 52.14 52.67 52.16 48.21 46.23 47.84 49.23 48.56 41.86 32.40 34.11 38.00 42.70 41.90 40.26 37.15 37.10 39.98 39.60 39.11 38.13 37.45 40.33 41.21 33.65 32.79 33.24 40.07 39.72 40.07 38.62 34.41 30.99 36.44 29.79 30.72 25.71
46.86 47.36 47.69 47.61 47.83 48.07 48.46 49.24 50.05 51.70 52.18 52.10 45.74 43.47 42.70 48.12 48.95 45.17 38.43 34.16 38.84 43.89 44.95 43.68 36.61 38.69 35.48 38.10 36.15 36.30 36.89 40.52 39.29 41.07 40.96 36.32 29.13 37.36 38.88 40.35 38.82 35.92 37.68 28.32 29.97 19.44 18.42
46.37 46.53 47.13 47.09 47.22 47.55 48.52 48.79 49.48 50.73 51.33 50.24 44.82 38.43 43.61 47.11 47.20 39.86 32.73 35.85 41.24 46.00 46.42 40.82 39.83 38.11 38.67 37.83 39.00 36.83 36.83 38.17 39.62 38.54 39.52 37.03 33.54 32.54 37.04 34.64 32.93 33.89 32.15 31.86 31.22 28.15 21.03
45.90 45.88 45.94 45.85 46.66 47.33 47.82 48.37 49.14 50.17 50.14 47.65 42.01 33.51 43.99 46.04 33.69 33.68 34.78 40.45 43.22 44.20 46.74 42.31 41.78 40.09 39.09 39.22 38.07 37.90 36.33 38.73 40.42 39.41 34.10 37.61 33.46 27.55 31.35 37.94 38.67 36.39 33.10 33.20 25.85 23.56 27.99
45.27 45.50 45.70 45.75 45.94 46.13 46.67 47.61 48.47 49.52 49.40 45.33 36.03 34.78 43.79 42.86 30.81 31.94 37.73 40.41 43.12 42.55 42.73 39.65 38.95 40.27 41.86 38.75 34.70 37.74 37.72 39.50 39.94 37.74 35.37 36.66 30.65 24.10 26.75 32.65 35.75 32.33 34.58 35.06 34.44 32.24 26.14
44.96 45.38 45.49 45.71 45.78 46.01 46.31 46.95 47.74 49.09 49.73 43.31 36.18 29.90 33.14 36.05 37.45 35.92 36.84 38.71 38.58 44.33 42.72 41.82 39.55 40.82 39.39 36.93 38.91 34.62 36.11 37.92 39.17 37.74 38.03 37.76 31.80 27.62 22.78 27.59 31.92 28.97 32.78 34.96 33.42 27.42 27.49
45.22 45.29 45.29 45.34 45.52 45.68 46.30 46.93 47.47 48.54 49.35 44.90 38.67 34.52 37.20 28.52 31.92 34.72 38.74 39.14 37.61 38.17 41.29 41.79 38.52 38.72 36.89 33.18 35.10 34.29 36.53 36.11 36.95 38.63 36.70 35.21 26.90 29.15 30.12 31.20 31.36 31.04 30.87 32.22 30.77 31.95 27.62
45.15 45.19 45.22 45.54 45.62 45.63 46.16 46.80 46.98 48.00 49.04 43.57 35.23 38.98 39.55 39.55 36.86 34.02 34.77 38.33 37.98 39.63 38.92 37.36 36.56 38.37 38.21 34.63 35.28 33.17 36.08 35.76 32.56 36.21 34.19 35.57 26.69 30.31 25.56 30.96 31.22 28.94 31.63 32.32 32.20 32.59 31.32
44.78 45.09 45.19 45.45 45.36 45.70 46.31 46.25 46.90 47.55 48.04 42.18 44.67 47.26 42.89 38.69 36.40 33.18 34.39 37.89 38.97 41.47 41.53 40.91 39.48 38.03 36.48 37.21 39.59 40.92 39.77 39.72 37.92 34.63 33.05 32.57 30.97 26.87 23.44 32.21 31.50 26.84 31.27 32.59 33.49 33.48 31.91
43.61 44.14 45.03 45.28 45.43 45.65 45.98 46.35 46.77 47.39 47.47 46.23 46.96 46.59 39.56 36.41 36.08 35.60 37.46 39.43 39.17 40.73 36.69 40.20 41.00 37.48 39.61 44.09 42.42 40.97 39.46 38.42 38.04 37.94 38.26 33.38 30.73 29.06 26.17 29.72 20.44 28.92 33.83 33.94 31.85 31.32 32.91
45.02 44.33 45.12 45.50 45.50 45.48 45.86 46.19 46.50 47.15 47.70 46.13 48.65 44.84 42.35 37.55 39.66 38.31 38.01 39.33 41.14 41.31 38.27 38.76 39.48 41.99 44.29 40.71 34.52 30.81 30.92 32.00 34.14 36.72 36.34 36.98 32.82 28.35 25.59 25.88 28.17 28.22 30.07 30.56 28.10 28.03 33.26
45.02 44.77 45.19 44.62 45.26 45.26 45.60 45.93 46.34 46.92 47.53 46.38 49.04 48.76 47.20 40.12 39.00 41.48 39.52 41.49 38.86 36.36 36.38 37.86 42.93 45.24 43.14 36.64 33.35 26.55 24.63 28.67 28.85 30.87 36.92 35.87 35.39 29.94 28.02 24.31 21.96 29.23 33.52 36.83 35.28 25.01 33.84
45.18 45.71 45.38 45.19 45.02 45.22 45.47 45.90 46.12 46.70 47.24 46.43 44.80 47.13 47.60 42.18 44.09 43.91 40.80 40.77 43.00 38.77 35.21 37.45 38.37 38.32 41.56 34.48 30.55 27.60 28.07 34.66 28.48 27.28 28.15 28.91 29.63 27.13 26.62 24.86 28.31 33.96 35.17 36.80 24.55 26.72 34.55
44.23 45.22 45.48 45.14 45.21 45.12 45.52 45.90 46.45 46.93 47.28 46.55 44.04 49.08 45.07 43.24 43.02 45.58 46.41 41.61 40.80 39.41 34.68 37.89 35.80 36.88 35.58 31.58 30.73 30.67 32.18 33.30 32.74 34.56 30.99 29.11 27.50 27.34 28.25 25.82 24.14 34.75 33.78 28.42 31.69 35.57 35.16
44.56 44.84 45.62 45.48 45.64 45.38 45.43 45.93 46.45 46.76 47.67 47.44 43.06 48.63 48.88 43.90 42.00 46.15 45.64 45.80 45.01 44.30 41.23 40.03 38.17 37.68 38.97 34.35 35.61 36.52 32.90 34.42 33.37 28.28 37.44 29.85 33.12 30.07 27.18 27.38 31.14 33.45 33.67 36.05 36.35 34.22 32.83

GFSGBSN_sfc_wetblb_123.txt.gz
Wetbulb
57.10 57.37 57.37 58.14 59.52 59.94 61.28 61.13 60.05 59.18 58.82 58.80 58.80 58.82 58.88 59.04 58.47 57.46 56.29 55.11 54.30 53.69 53.06 52.82 52.95 52.44 49.62 46.28 48.57 54.66 59.61 58.05 54.75 53.33 50.34 46.68 43.76 42.73 40.18 40.94 41.17 39.90 41.91 43.30 44.18 43.43 43.17
56.22 56.42 57.59 57.39 57.01 58.74 59.75 59.92 60.36 59.03 58.59 58.43 58.19 58.21 58.41 58.53 58.32 57.55 56.36 55.07 53.94 53.39 52.92 52.50 52.31 52.59 46.49 42.52 51.86 55.00 54.64 52.76 51.71 50.56 49.50 46.95 44.21 44.74 42.18 41.99 40.84 43.04 42.90 42.07 43.16 42.40 42.40
57.16 56.72 57.65 57.82 57.89 57.92 58.55 59.14 59.02 59.25 58.85 58.65 58.20 58.06 57.94 57.98 57.94 57.32 56.49 54.96 53.68 53.13 52.58 52.31 52.01 50.26 44.40 44.50 53.73 50.60 50.86 47.13 47.97 47.68 46.88 48.76 48.17 45.55 44.70 41.52 45.55 43.10 39.13 40.66 41.77 42.88 40.88
56.68 57.46 57.74 57.54 57.30 57.08 57.24 57.36 58.43 58.86 58.97 58.89 58.83 57.96 57.40 57.26 57.08 56.58 55.62 53.93 52.76 52.47 52.31 51.86 52.94 48.45 41.34 54.53 50.79 49.25 47.85 47.94 49.35 49.28 47.68 48.41 48.54 45.88 43.82 44.00 42.23 38.80 38.78 33.71 40.66 42.69 43.90
55.13 55.94 56.61 57.10 57.05 57.04 57.05 57.09 57.39 58.29 58.66 58.46 58.42 57.78 56.80 56.38 56.20 55.62 54.49 53.29 52.33 52.29 52.21 52.41 48.17 45.99 44.20 54.43 48.88 51.28 46.77 46.51 47.18 47.98 47.81 49.55 47.55 43.14 42.67 37.74 35.05 37.41 32.12 35.41 38.95 44.13 40.60
53.74 54.84 55.70 56.31 56.01 56.28 56.90 57.15 56.93 57.17 57.57 57.80 57.82 57.64 57.04 56.20 55.37 54.30 53.05 51.65 51.59 49.88 49.66 50.03 50.92 43.66 48.29 48.51 49.97 50.98 49.21 49.40 47.03 45.64 45.52 44.03 40.85 36.50 35.56 33.34 27.16 32.32 34.32 36.12 36.08 40.68 40.05
52.80 53.02 53.49 55.26 55.25 55.94 56.38 57.96 57.21 56.74 56.82 57.20 57.44 57.46 56.88 55.92 54.93 52.53 49.46 47.23 42.50 42.91 44.00 45.20 46.84 45.96 50.69 53.96 50.91 48.84 50.39 48.16 46.90 41.72 37.05 40.91 34.33 31.29 34.61 37.00 38.32 38.16 37.21 35.12 37.31 41.68 39.66
52.51 52.35 52.34 52.76 54.54 54.27 54.47 55.74 56.74 56.65 56.72 56.92 56.70 56.64 56.84 55.59 53.54 51.63 48.65 46.46 45.99 45.30 39.53 49.07 48.92 49.31 52.21 53.82 48.35 49.53 50.98 44.64 43.50 36.26 38.51 36.67 33.03 38.86 41.19 40.97 39.92 38.83 35.71 34.70 38.41 41.60 39.66
51.90 51.90 51.61 51.85 52.49 53.92 53.96 54.53 54.31 54.45 55.74 56.46 56.32 56.24 56.20 53.92 52.10 49.21 46.54 48.04 49.44 48.09 37.71 45.13 49.26 49.44 50.40 51.45 46.84 46.95 47.98 44.80 41.04 38.35 38.38 34.84 38.45 43.43 41.84 39.80 38.66 36.74 35.07 34.84 34.88 37.27 35.84
51.15 51.38 50.34 50.83 51.94 52.58 53.30 54.28 53.93 53.65 53.60 55.20 55.60 55.34 53.29 51.52 48.92 48.05 46.58 50.37 50.47 47.01 33.57 40.31 44.70 48.59 50.68 49.85 44.13 48.39 50.21 45.79 41.19 37.54 38.79 37.72 42.13 41.35 39.25 37.35 38.35 32.39 38.54 37.98 36.42 32.42 26.08
50.34 50.66 50.98 51.03 51.27 51.67 52.57 53.24 53.73 53.17 52.99 53.50 55.13 53.19 51.03 52.63 47.82 45.78 49.13 51.09 48.31 46.25 22.29 42.35 41.54 48.21 47.93 44.47 42.29 42.83 47.97 44.67 39.31 39.00 38.88 35.74 37.52 36.92 36.01 37.18 39.18 35.06 39.33 36.30 34.92 30.14 28.65
49.92 49.77 50.09 50.49 50.66 50.82 52.16 52.39 53.08 52.84 52.61 52.93 54.11 52.10 51.36 49.44 47.69 47.76 51.13 48.57 46.74 33.38 24.62 39.18 40.77 40.03 40.09 42.20 42.16 41.38 42.78 42.66 41.60 38.24 39.04 37.39 40.28 38.26 37.41 40.09 39.17 39.38 35.90 34.28 32.71 28.81 21.62
49.15 49.32 49.39 49.39 49.79 50.09 50.93 51.61 52.15 52.60 52.45 52.51 53.41 52.24 51.60 49.06 45.03 48.46 48.24 45.57 34.24 28.27 41.48 37.46 37.13 39.52 38.56 37.70 38.94 38.93 37.12 34.78 31.63 28.56 29.20 35.14 36.38 39.23 40.72 35.42 37.51 35.15 29.68 19.84 19.41 19.58 20.67
48.96 48.81 48.83 48.89 49.01 49.22 49.52 50.45 51.11 51.80 51.88 51.94 53.05 51.57 51.81 50.12 49.83 47.45 45.71 38.91 28.91 34.75 36.03 43.02 41.28 39.29 35.83 38.99 37.65 38.28 35.65 31.91 35.75 34.66 30.48 27.60 25.39 36.59 40.09 36.09 32.75 32.82 30.99 23.34 17.90 17.53 21.07
48.22 48.43 48.14 48.46 48.76 48.79 48.85 49.47 50.06 50.72 51.65 51.34 52.34 49.61 46.85 49.64 49.76 48.03 41.65 31.41 30.58 35.19 40.50 39.53 40.13 35.77 35.15 38.64 37.94 36.46 34.20 33.47 36.25 36.95 29.02 28.60 29.95 37.72 38.51 38.39 36.27 32.62 26.19 33.93 27.22 26.57 22.01
47.45 47.68 47.40 47.75 48.11 48.49 48.56 48.57 48.90 49.59 50.68 51.31 46.63 44.08 43.26 48.40 49.34 44.92 38.57 34.01 36.11 41.63 42.82 41.87 36.31 37.39 32.36 34.96 34.58 33.87 34.01 38.25 37.21 39.38 37.96 33.64 24.96 35.64 37.36 38.24 36.64 33.12 35.32 22.67 23.97 17.24 16.28
47.07 46.98 47.00 47.02 47.26 47.86 47.82 48.03 48.44 49.12 50.26 50.48 44.07 39.94 44.14 48.03 47.48 38.97 32.07 35.08 38.71 43.39 43.66 40.84 38.84 36.99 36.49 35.15 35.45 32.87 34.68 36.99 38.43 36.65 36.84 33.26 29.04 29.26 34.64 31.86 30.40 31.28 27.30 29.38 27.68 24.16 16.55
46.30 46.17 46.26 46.50 46.62 46.83 46.94 47.57 48.01 48.74 49.70 48.09 42.55 34.61 44.66 47.03 33.51 33.25 32.88 37.14 41.42 41.38 43.86 42.38 42.16 38.58 36.90 37.05 34.78 34.86 34.46 38.33 38.77 37.04 31.75 33.82 29.48 22.14 28.11 35.26 36.79 33.58 30.70 30.47 19.26 21.22 24.53
45.75 45.87 45.98 46.14 46.22 46.34 46.45 47.12 47.39 48.55 49.19 44.94 38.10 35.25 43.65 43.39 30.72 30.34 34.72 37.40 40.34 40.25 40.80 41.04 40.27 39.52 38.02 34.36 30.12 35.15 34.70 38.42 38.13 35.46 32.42 33.46 26.02 18.96 22.80 28.53 33.67 30.65 33.20 33.59 32.16 27.88 23.60
44.68 45.07 45.12 45.51 45.86 45.95 46.34 46.47 47.04 47.80 48.76 43.81 35.42 28.94 34.16 37.37 36.36 33.97 32.97 34.72 36.31 42.17 41.36 42.49 40.10 39.19 35.55 33.78 36.30 31.75 32.86 37.19 37.81 35.95 39.58 36.06 28.52 23.52 19.30 24.26 28.86 24.93 29.60 32.53 31.80 25.72 22.08
44.31 44.56 44.80 45.23 45.37 45.55 45.61 46.15 46.80 47.16 47.71 44.46 37.70 31.97 33.27 27.23 30.78 34.03 36.84 36.26 34.70 36.22 41.14 42.25 39.43 36.46 34.28 29.97 30.96 30.02 33.72 32.91 35.60 37.92 35.13 31.10 23.71 22.63 26.51 29.85 29.65 27.92 27.24 28.99 24.83 28.38 22.04
43.75 44.21 44.45 44.91 45.41 45.48 45.35 45.82 46.00 46.52 47.32 42.35 34.71 34.55 33.53 31.87 34.02 33.78 35.23 35.68 35.69 37.83 38.84 36.65 35.50 36.53 35.45 30.63 32.04 29.50 32.75 31.19 28.94 34.04 32.05 32.08 22.46 21.31 16.85 29.09 28.90 25.82 27.75 28.64 26.24 27.63 24.08
43.88 44.09 44.28 44.56 45.36 45.72 45.67 45.45 45.70 46.26 46.16 39.68 41.89 40.05 35.78 34.12 32.01 31.94 32.40 34.10 36.44 38.10 40.17 39.88 37.42 34.98 33.45 35.30 37.67 36.55 36.09 36.18 35.62 31.67 29.44 27.27 22.93 17.65 17.73 28.96 30.08 21.32 24.44 26.59 28.01 30.86 30.67
43.50 44.05 44.43 44.74 44.89 45.72 45.48 45.41 45.49 45.98 46.06 42.47 42.27 39.80 35.25 29.45 31.86 31.98 34.31 35.23 36.16 39.07 32.95 40.11 39.17 34.93 37.62 40.10 39.16 37.84 36.74 36.61 35.81 35.12 34.73 26.18 23.69 24.90 20.44 23.74 17.34 22.97 32.43 32.60 30.19 31.83 29.78
43.45 43.93 44.60 44.57 44.67 45.29 45.65 45.38 45.27 46.16 46.67 42.05 44.59 40.67 36.28 30.67 35.06 34.54 34.66 34.44 37.23 38.61 36.60 37.54 39.35 39.62 39.58 37.56 31.61 28.32 27.35 29.70 32.94 34.29 33.71 32.64 26.84 21.27 19.00 21.30 25.09 27.26 29.44 29.64 27.14 28.19 31.57
43.43 43.76 44.16 44.26 44.34 44.56 45.24 45.27 45.24 46.07 46.52 43.58 41.98 44.53 39.95 32.87 32.25 38.93 35.15 36.76 32.92 35.42 34.73 36.76 40.29 40.47 38.50 33.05 29.61 24.11 22.69 27.06 25.63 29.80 36.05 32.97 30.78 23.80 24.98 22.31 20.26 26.74 33.27 36.13 34.68 22.65 33.50
44.45 43.66 44.01 44.00 44.05 44.58 45.06 45.15 45.22 45.83 46.32 44.09 41.72 44.12 40.97 36.94 38.33 39.60 35.52 34.52 38.47 34.57 32.26 34.17 34.82 35.01 37.23 30.97 27.64 25.69 25.68 32.71 26.22 25.65 26.91 28.60 28.06 24.37 23.24 22.80 25.45 31.86 34.45 37.06 22.52 22.77 32.53
44.57 44.61 44.56 44.64 44.47 44.21 44.91 45.03 45.29 45.87 46.14 44.49 41.29 46.49 43.39 36.16 37.33 41.53 42.63 37.73 38.70 36.15 30.79 34.18 32.44 33.44 32.89 29.25 28.57 28.00 26.66 28.02 30.37 32.08 28.37 26.77 23.42 23.19 25.15 24.06 21.53 33.20 32.67 27.48 29.14 31.80 32.46
44.40 44.55 44.80 44.50 44.03 44.16 44.82 44.94 45.29 45.83 46.14 46.09 39.24 45.74 47.77 38.81 37.83 42.73 42.88 42.33 44.35 40.54 36.86 37.47 35.46 35.12 34.63 31.30 31.09 30.26 28.14 29.14 29.72 27.69 34.96 26.59 28.37 24.95 26.84 23.44 28.98 30.90 29.48 33.24 33.43 30.28 29.18

GFSGBSN_sfc_wetblb_126.txt.gz
Wetbulb
56.53 56.84 57.24 57.35 57.79 58.94 59.84 60.28 60.32 59.26 58.89 58.75 58.71 58.80 59.20 59.24 58.92 57.92 56.54 55.75 55.17 54.48 53.71 53.48 53.63 53.62 49.62 45.52 47.98 53.34 59.36 58.01 52.48 51.44 48.73 46.58 42.09 40.59 37.78 38.94 39.62 37.86 39.98 41.88 42.46 41.65 40.73
56.10 56.22 56.51 56.71 56.58 56.40 57.62 59.09 58.99 58.96 58.65 58.60 58.38 58.13 58.37 58.72 58.78 57.96 56.96 55.87 54.89 54.02 53.55 53.26 53.00 53.84 44.68 42.87 51.99 53.41 53.73 51.31 50.57 48.05 47.47 46.16 43.25 43.78 40.90 40.28 38.65 41.52 41.00 40.62 41.68 41.85 40.56
56.29 56.81 56.80 56.72 57.35 57.61 57.04 57.31 57.69 58.20 58.74 58.75 58.55 58.11 58.25 58.34 58.26 57.75 57.14 56.28 55.05 53.60 53.34 53.03 53.08 50.95 43.88 46.70 51.62 49.35 52.04 46.61 46.71 45.83 43.39 45.11 45.41 43.53 43.40 41.18 43.57 41.80 38.02 39.79 41.36 40.48 40.33
55.18 56.42 57.74 57.12 57.15 56.99 57.23 57.25 57.87 58.44 58.30 58.89 58.85 58.15 57.49 57.69 57.43 57.22 56.80 55.77 54.17 53.74 53.04 52.94 52.02 48.12 41.34 52.90 50.57 51.48 47.65 46.83 48.55 47.97 46.72 46.34 45.53 43.54 41.36 43.08 41.53 38.01 37.66 33.09 40.20 41.44 42.48
53.48 55.42 55.84 56.45 56.60 56.67 56.68 56.93 56.93 57.33 58.09 58.18 58.29 58.01 56.95 56.40 56.28 56.22 55.86 55.03 53.80 53.25 53.21 53.13 46.99 45.12 43.16 55.33 47.74 50.51 49.12 45.78 46.84 47.23 46.54 48.54 45.19 40.43 40.69 34.97 32.42 34.85 29.78 34.22 38.01 43.05 40.74
53.11 54.18 55.04 55.48 56.03 55.65 55.83 56.11 56.58 56.62 56.88 57.34 57.85 57.53 57.13 56.20 55.80 55.30 54.34 53.10 51.78 50.87 50.39 49.62 49.60 43.04 47.07 48.93 50.00 49.09 47.21 46.24 44.16 44.46 44.17 43.07 38.73 34.90 33.85 31.00 26.06 29.56 31.20 30.04 32.87 39.30 37.94
53.01 53.52 53.47 53.36 55.08 54.84 54.86 55.84 57.16 56.44 56.44 56.74 57.32 57.42 57.06 56.58 55.60 53.40 51.12 49.50 45.30 43.63 42.81 45.66 45.99 45.97 49.15 51.86 49.53 47.39 49.36 45.65 45.20 40.67 35.34 39.06 33.49 30.42 33.16 34.72 35.61 34.84 33.23 31.95 34.61 39.02 37.43
52.48 53.14 52.46 52.47 52.94 53.92 53.61 54.79 55.01 55.91 56.28 56.70 56.52 56.64 56.74 56.52 54.40 52.51 50.32 47.11 47.86 46.34 41.01 46.55 47.10 47.69 50.97 51.99 47.70 49.25 48.87 42.64 41.23 35.39 35.96 33.64 30.67 37.51 39.11 38.68 36.87 35.73 33.69 32.97 35.29 38.75 37.07
52.60 52.39 52.12 51.37 51.69 53.01 53.73 53.92 54.05 53.62 54.11 55.77 56.14 56.22 56.30 54.84 52.83 50.47 48.57 48.85 49.01 48.36 39.76 43.54 46.90 47.59 48.90 50.02 46.08 47.13 48.32 43.63 40.15 37.11 36.42 31.55 35.55 40.83 38.97 36.87 35.70 35.68 33.57 32.60 32.44 34.96 33.64
51.79 51.31 51.32 51.37 51.17 52.19 52.67 52.81 53.93 53.41 53.02 53.52 55.24 55.28 53.97 52.22 50.04 48.52 47.09 51.67 51.80 48.12 32.17 37.59 42.92 46.62 49.55 49.83 44.78 51.39 50.46 45.01 39.52 37.00 36.55 35.36 39.97 38.88 37.79 36.48 36.50 30.83 36.73 35.78 33.62 29.86 24.06
51.25 50.97 50.70 50.95 50.84 49.72 51.60 52.13 52.69 53.23 52.67 52.88 54.72 53.93 51.95 53.35 48.09 47.35 50.13 50.48 48.19 44.85 18.29 38.91 42.12 49.17 48.89 45.46 42.45 41.78 47.01 43.82 39.53 37.43 37.30 34.40 35.65 34.84 33.93 35.37 37.25 33.65 37.20 34.35 32.67 27.58 26.28
50.89 50.70 50.70 50.61 50.68 50.42 50.44 51.55 51.82 52.64 52.37 52.37 54.39 53.00 52.28 49.43 47.74 48.16 50.97 49.22 46.12 31.37 22.36 37.56 40.04 39.57 40.62 41.16 39.91 40.12 41.59 41.69 41.28 37.76 36.77 36.28 38.47 36.51 35.43 38.13 37.47 37.88 33.98 32.17 30.03 27.21 20.67
50.31 50.32 50.43 49.85 49.96 50.22 50.51 51.79 51.48 51.93 52.16 52.22 53.42 52.87 52.15 50.23 46.53 48.97 48.37 45.23 34.02 26.69 39.25 35.99 35.55 38.41 37.39 36.93 38.07 36.99 35.97 33.73 30.82 27.83 27.13 33.00 34.39 37.48 38.40 32.97 36.03 33.35 28.00 19.69 18.76 19.08 19.21
49.69 49.73 49.62 49.62 49.62 49.42 49.70 49.96 51.06 51.19 51.54 51.62 52.74 52.09 52.19 50.36 50.56 48.73 47.42 39.03 28.16 33.42 35.09 41.11 38.64 37.06 33.91 36.64 36.20 36.69 33.35 30.30 33.54 31.83 27.83 25.83 24.68 33.40 37.61 33.86 31.57 30.71 29.27 21.88 17.75 18.04 19.46
49.51 49.33 49.20 49.13 49.06 49.23 49.08 49.16 49.98 50.88 51.24 51.23 51.70 50.11 47.59 50.42 50.31 49.27 41.15 31.11 29.29 33.36 38.59 37.79 38.92 33.02 32.90 36.48 35.45 34.37 32.09 31.03 34.31 34.07 27.93 27.11 28.01 35.58 36.73 36.57 35.32 31.12 25.47 31.90 25.15 24.44 19.67
48.89 49.12 48.75 48.50 48.48 48.66 48.71 48.57 49.31 49.90 49.95 50.85 44.10 45.38 44.39 48.74 49.50 45.76 38.28 33.57 35.19 40.02 41.07 40.23 34.10 36.89 30.14 33.43 32.98 32.21 31.66 36.05 35.00 37.57 36.82 32.52 24.92 33.58 35.32 36.60 35.00 32.45 34.21 23.73 24.29 18.34 16.16
48.05 48.69 48.46 48.41 48.11 48.07 48.34 48.54 48.62 48.67 49.65 49.80 41.36 40.59 43.76 48.91 47.42 40.21 32.11 34.47 38.15 41.88 42.22 39.21 36.92 36.11 35.76 33.35 33.94 31.36 33.30 35.92 37.10 35.24 35.87 31.91 28.51 28.44 33.01 30.21 28.32 29.09 25.85 27.54 26.77 24.41 17.15
46.90 47.60 47.93 47.68 47.78 47.81 47.75 47.82 48.18 48.71 49.21 47.36 42.07 33.46 44.90 47.12 35.11 32.45 31.93 36.47 40.90 40.42 42.73 40.17 41.05 39.03 35.22 36.19 34.06 32.91 32.94 36.58 37.49 35.66 31.01 32.31 27.50 22.05 26.69 33.59 34.26 31.51 29.03 28.74 20.37 21.62 22.63
45.98 46.44 47.07 47.01 46.97 47.07 47.15 47.46 47.10 47.81 48.52 43.35 37.81 35.70 44.45 43.99 31.43 30.83 33.96 36.37 38.76 39.46 39.23 39.30 39.38 40.39 37.67 33.29 29.45 34.34 33.72 36.80 36.78 33.80 31.43 32.52 25.27 18.67 22.98 26.99 32.23 29.15 31.55 32.22 30.08 25.99 21.03
45.88 45.82 46.20 46.61 46.43 46.62 46.63 46.66 46.91 47.36 47.89 43.71 35.62 29.83 34.96 37.66 35.21 33.67 31.62 33.46 33.79 40.54 39.34 40.55 39.94 40.37 35.44 32.57 35.96 31.96 31.68 35.78 36.28 34.88 39.73 35.25 27.09 23.01 20.46 23.49 27.40 24.01 27.74 28.74 28.20 20.19 22.70
44.99 45.33 45.76 45.74 45.77 46.14 46.45 46.46 46.45 47.28 47.16 43.23 36.76 31.57 33.13 29.33 31.25 33.96 33.85 33.57 32.59 33.81 39.82 40.10 38.11 37.75 33.77 29.81 32.47 31.17 32.23 31.06 34.53 37.59 33.32 30.08 23.81 21.61 25.50 28.54 28.84 26.19 25.65 27.07 22.65 26.82 22.71
44.44 44.75 44.87 45.03 45.08 45.52 45.76 46.05 46.43 46.51 46.86 40.52 32.77 32.27 32.75 29.37 33.90 33.66 34.54 32.72 32.19 34.37 35.87 35.74 36.14 38.83 37.25 31.50 32.66 29.28 30.34 29.00 28.23 31.90 29.64 29.98 21.91 19.02 13.64 28.43 27.29 23.93 26.66 26.83 26.55 26.41 22.92
44.15 44.14 44.36 44.63 44.87 45.27 45.58 45.40 45.66 46.17 45.83 37.91 40.27 39.20 33.77 31.85 31.49 31.74 31.75 32.16 33.79 36.18 38.18 39.16 37.46 36.03 33.18 34.24 35.81 34.97 35.91 34.98 33.84 30.18 27.84 25.22 21.66 16.20 14.88 26.73 27.19 22.37 24.37 24.62 23.92 27.24 27.66
43.71 44.09 44.19 44.33 44.53 44.82 45.13 45.23 45.08 45.65 45.33 40.24 39.13 39.82 33.73 27.55 30.51 31.08 33.05 34.29 33.89 35.92 32.29 38.20 39.24 35.27 37.59 38.40 37.34 36.47 35.21 34.65 33.69 32.77 32.80 25.34 23.74 22.83 20.43 22.20 15.57 24.09 31.32 31.15 28.80 30.00 29.28
43.30 43.59 43.93 44.12 44.27 44.44 44.70 45.11 45.36 45.28 45.92 39.88 39.75 39.82 35.13 27.47 32.31 32.42 33.13 33.15 34.96 36.60 34.68 34.50 38.24 39.91 38.68 36.09 30.37 27.08 25.39 28.14 30.26 32.31 30.98 31.24 25.70 20.90 17.92 20.45 24.03 26.99 29.14 28.69 26.40 26.43 29.96
43.04 42.87 43.27 43.49 43.81 44.17 44.53 45.01 45.48 45.15 45.96 41.69 39.27 43.29 40.18 32.39 30.96 36.00 33.26 34.12 30.81 31.29 33.97 34.66 41.17 40.36 36.79 32.09 28.16 22.35 21.23 24.02 25.13 27.33 33.15 30.83 29.49 23.08 22.75 19.89 17.23 25.20 32.72 34.76 33.10 18.86 30.33
42.52 43.07 43.13 43.21 43.23 43.74 44.10 44.77 45.37 45.36 45.66 42.39 38.19 42.20 39.26 34.35 35.59 37.44 32.89 32.75 34.97 32.39 30.96 34.14 35.78 36.12 37.25 29.17 26.47 25.06 23.81 30.91 25.06 24.65 26.95 26.55 26.47 22.98 22.92 21.76 24.57 31.42 33.16 35.08 18.33 21.36 31.02
42.82 42.94 42.93 43.23 43.07 43.69 44.18 44.79 45.08 45.15 45.42 43.00 39.06 43.83 38.72 36.35 35.31 39.35 40.86 34.76 35.59 33.93 29.32 32.34 32.46 33.01 29.92 27.54 26.71 26.07 26.03 29.18 29.50 31.55 29.02 27.19 24.78 24.41 25.60 21.92 19.15 31.98 32.05 25.81 27.62 30.61 31.07
43.81 43.60 43.45 43.03 43.35 43.45 44.05 44.48 44.99 45.43 45.70 44.92 36.15 44.36 43.83 38.22 36.51 39.66 40.32 42.36 40.10 40.16 34.15 33.39 32.11 31.38 30.86 28.98 29.69 31.20 27.14 29.22 28.28 24.78 34.24 26.56 28.58 23.66 25.19 23.92 27.97 29.87 29.58 31.61 32.66 29.66 29.54

GFSGBSN_sfc_wetblb_129.txt.gz
Wetbulb
57.08 57.17 57.21 57.53 57.65 58.43 59.54 60.33 60.44 59.59 59.03 58.80 58.54 58.80 59.21 59.64 59.30 58.24 57.15 56.32 55.84 55.24 54.08 54.20 54.19 54.79 49.16 46.62 48.29 52.36 59.77 57.43 50.69 49.38 47.07 45.01 41.14 38.73 35.58 36.77 38.52 35.59 37.76 40.11 41.09 40.28 39.10
55.66 56.26 56.19 56.64 57.20 57.33 57.07 58.27 58.94 58.48 58.96 58.64 58.29 58.25 58.52 58.84 58.91 58.47 57.36 56.48 55.75 54.82 53.92 53.72 53.40 54.45 44.12 44.48 52.01 51.46 51.89 50.16 48.99 46.78 43.80 43.17 41.93 41.90 38.71 38.36 36.60 39.41 38.72 38.81 39.65 39.81 39.29
55.82 56.07 56.20 56.63 56.59 56.22 56.63 56.29 56.61 57.43 57.91 58.31 58.52 58.26 58.19 58.26 58.44 58.17 57.82 56.78 55.78 54.59 53.75 53.62 52.65 50.46 43.30 48.28 50.47 49.66 50.03 46.81 46.65 45.29 42.45 43.87 43.20 41.40 41.63 39.19 41.82 40.09 36.22 37.94 38.73 38.12 38.03
54.75 55.51 56.12 56.88 56.61 56.39 56.99 56.93 56.73 57.13 57.20 57.58 58.55 58.20 57.52 57.54 57.50 57.40 57.09 56.56 55.78 54.18 53.57 53.64 52.57 47.06 42.79 53.37 50.23 50.90 47.54 46.72 47.61 46.45 45.30 45.49 43.99 41.74 40.40 41.71 39.55 36.63 34.52 31.26 38.54 40.12 40.22
53.69 53.80 55.39 56.07 56.44 56.91 56.59 56.55 56.63 57.15 57.37 57.61 57.37 57.61 57.26 56.45 56.39 56.47 56.15 56.01 54.71 53.36 53.59 53.57 46.65 44.57 43.47 54.83 49.75 49.79 50.22 47.82 45.95 45.66 45.07 47.50 43.47 38.88 39.45 33.45 30.85 32.03 27.26 31.09 35.73 40.51 39.80
53.28 53.27 54.35 55.49 55.40 55.88 55.45 55.43 55.69 56.17 56.59 56.77 57.35 57.34 56.94 56.23 55.69 55.49 55.11 53.68 52.27 51.55 51.13 49.81 48.59 44.29 47.16 49.16 50.25 46.92 47.45 45.81 43.58 43.09 42.23 40.41 36.90 33.49 32.21 29.67 25.51 27.83 28.48 27.32 29.95 37.12 36.87
53.10 53.55 54.08 53.91 54.50 54.87 54.27 54.96 55.10 56.27 55.96 56.39 56.65 57.14 57.10 56.44 55.87 53.70 52.66 51.62 48.71 44.85 43.81 46.54 45.49 46.65 48.86 51.37 49.37 46.37 47.07 43.77 43.83 39.73 33.66 36.87 31.82 29.64 31.78 33.15 33.86 32.42 30.46 28.92 31.32 36.89 34.86
53.00 52.92 53.40 53.48 52.64 53.67 53.89 53.92 54.29 54.16 56.02 56.27 56.08 56.14 56.70 56.60 55.01 53.39 51.89 48.24 48.17 44.21 41.09 45.74 46.60 46.91 50.01 50.74 46.29 48.72 47.08 41.20 39.58 35.05 34.81 32.09 29.75 36.03 37.14 36.49 34.84 33.23 30.60 30.30 33.70 36.78 34.91
52.99 52.46 52.73 52.37 51.76 52.08 53.48 53.75 53.51 53.48 53.46 55.08 55.78 55.82 56.12 55.45 53.43 52.07 50.12 49.02 49.02 46.83 41.56 43.24 46.37 46.59 48.29 49.04 46.00 46.67 45.84 41.83 38.58 35.75 34.39 30.33 34.05 38.48 36.69 34.51 33.55 32.69 30.82 30.82 31.43 32.64 31.85
52.78 52.26 52.20 52.05 51.48 51.59 52.37 53.05 52.99 53.28 53.05 52.93 55.32 55.09 54.14 52.74 50.72 49.17 48.58 50.56 51.37 47.41 33.02 36.32 41.02 44.83 48.23 48.53 43.99 50.28 50.33 44.53 38.77 35.99 36.14 34.35 38.81 37.19 35.28 34.11 34.85 29.57 35.12 34.41 31.61 28.63 23.76
51.99 51.86 51.43 51.30 51.49 51.20 50.90 52.07 51.93 52.53 52.76 52.57 53.83 54.45 52.44 53.89 48.33 47.83 50.24 51.07 49.01 44.41 19.44 37.41 41.67 49.77 48.64 44.13 41.51 42.56 47.81 43.71 37.11 36.19 35.78 33.31 34.49 33.56 32.46 34.34 35.96 32.19 35.98 33.22 31.49 26.48 24.14
51.11 51.53 51.13 51.07 50.65 50.71 50.48 50.94 51.09 51.60 52.36 51.83 53.78 53.49 52.69 50.21 48.90 47.01 48.88 48.11 46.63 31.69 21.21 34.81 39.59 39.85 42.34 43.34 38.28 39.28 40.13 42.73 42.67 37.84 36.31 35.05 37.28 35.93 35.27 36.82 36.45 36.78 32.49 30.51 27.69 25.55 20.23
50.75 50.67 50.82 50.69 50.65 50.46 50.33 50.24 50.65 51.33 52.11 51.62 53.27 53.34 52.50 50.90 47.23 48.00 47.91 45.31 33.66 25.87 37.35 34.64 34.48 37.83 38.28 36.15 36.57 36.23 35.42 32.88 30.76 28.09 27.20 31.30 33.29 35.64 37.27 32.40 34.15 32.00 27.81 20.08 18.79 18.58 18.90
50.55 50.28 50.40 50.18 50.40 50.31 49.97 50.40 50.88 50.97 51.40 51.38 52.79 52.41 52.42 51.05 48.66 49.01 48.11 39.05 28.70 32.68 33.12 40.04 36.87 35.83 34.55 35.86 35.51 34.58 32.80 30.52 32.31 30.78 26.36 24.83 24.35 31.85 35.69 32.59 30.41 28.82 28.34 21.57 17.12 17.55 20.85
49.42 49.90 49.89 49.81 49.65 49.91 49.91 49.61 49.99 50.16 50.82 50.99 52.02 50.11 48.28 50.31 50.07 48.25 41.66 31.96 29.84 32.85 37.79 36.56 36.50 31.99 31.55 35.08 34.83 33.31 30.79 29.53 32.53 33.06 27.45 24.97 26.28 34.07 35.03 34.86 34.23 29.62 25.16 29.53 24.56 23.81 19.04
48.24 48.82 49.28 49.45 49.10 49.10 49.23 48.94 49.31 49.82 50.40 50.66 46.40 45.57 45.03 49.78 50.16 46.34 39.07 33.17 34.57 39.14 39.98 38.44 32.95 34.68 29.37 32.10 31.76 31.12 30.07 34.37 33.60 35.01 34.94 31.06 25.03 32.16 33.85 35.02 33.56 31.35 33.31 23.37 24.52 18.65 16.78
47.54 47.92 48.44 48.99 48.75 48.65 48.63 48.78 48.62 49.55 49.33 49.32 43.93 39.46 43.61 48.94 47.75 41.07 32.20 34.82 36.67 41.00 41.09 38.06 35.36 35.31 34.66 32.12 32.66 30.21 32.01 34.52 35.89 34.51 34.98 31.92 28.53 27.92 31.60 29.02 27.76 28.21 25.58 27.22 27.11 23.91 17.64
47.26 47.56 47.76 48.09 48.43 48.29 48.16 48.23 48.55 48.64 48.51 47.12 41.79 33.06 44.27 46.82 35.46 33.51 32.67 36.18 40.20 39.45 41.48 39.48 38.95 38.29 35.68 34.97 32.59 31.29 31.57 35.01 36.30 34.96 30.99 31.91 27.75 22.16 26.87 31.79 32.44 30.13 28.04 27.93 20.70 20.94 21.99
46.48 46.80 46.34 47.18 48.21 48.04 47.70 47.95 48.32 48.11 47.83 42.97 37.76 36.23 44.34 44.39 31.30 30.93 33.47 35.50 38.09 37.78 38.23 37.83 37.22 38.84 38.51 33.82 29.36 32.87 32.81 35.73 35.66 32.82 31.08 31.72 25.37 18.80 23.43 26.53 30.13 27.04 30.07 29.93 28.95 25.40 21.81
45.65 46.13 45.91 46.81 47.05 47.84 47.47 47.48 47.40 47.39 47.44 43.21 35.99 30.52 35.69 38.39 32.92 32.72 31.14 33.36 34.19 38.73 37.87 39.46 38.94 39.26 35.61 31.15 34.55 30.78 30.24 34.48 35.38 34.44 38.91 34.76 26.50 23.93 22.49 24.31 26.64 24.35 27.43 29.75 26.00 19.08 21.71
44.91 45.70 45.93 46.38 46.34 47.78 47.33 47.34 47.09 46.91 46.66 42.17 36.71 31.58 32.22 28.60 32.35 34.24 32.82 32.28 32.41 32.40 37.80 39.46 35.93 36.86 33.70 30.28 30.69 29.36 31.27 31.14 33.57 36.28 32.41 30.12 24.65 21.07 25.36 27.40 27.73 26.41 25.67 26.71 22.46 25.54 19.79
44.52 45.00 45.53 45.90 46.21 45.28 45.76 46.81 46.48 46.37 46.56 39.06 32.92 32.53 31.47 28.58 32.75 32.09 34.27 31.47 30.84 33.45 35.16 34.36 33.66 36.72 35.73 31.37 30.80 28.42 30.87 30.25 30.90 33.22 30.03 29.04 22.33 18.39 13.52 26.50 26.62 23.53 25.60 25.98 23.81 24.81 23.56
44.28 44.64 45.14 45.47 45.13 45.43 45.92 45.35 45.59 45.97 45.05 37.85 40.05 38.17 32.52 31.02 29.39 31.50 30.25 31.87 31.92 33.20 35.70 37.12 35.69 34.42 34.21 36.63 38.19 36.47 38.84 38.01 35.59 31.01 28.27 25.05 19.30 15.67 15.29 25.33 25.18 19.02 24.96 24.93 24.52 26.91 26.57
43.79 44.26 44.93 45.19 45.52 45.22 44.95 44.89 45.23 45.50 44.53 39.22 39.49 39.77 33.69 26.88 29.87 30.12 32.65 32.78 31.69 33.50 30.36 36.70 37.25 34.45 37.11 38.45 37.27 37.56 35.74 34.75 33.05 31.59 31.36 22.25 20.00 21.74 17.25 21.80 12.09 23.31 30.36 29.76 27.42 28.53 28.44
43.56 43.63 44.01 44.59 45.16 45.26 45.05 45.15 45.62 45.86 45.98 38.74 39.30 39.21 36.01 27.11 31.19 31.30 32.13 32.21 34.17 34.76 33.40 34.10 37.47 39.81 38.69 37.50 32.93 28.54 26.58 27.63 29.46 30.87 29.28 28.00 24.83 20.16 19.84 18.79 21.87 27.02 29.15 28.41 27.22 26.06 29.36
43.20 43.56 43.63 44.27 44.17 44.35 44.66 45.03 45.34 45.36 45.73 41.35 38.15 40.49 38.22 33.04 29.95 34.58 32.04 32.97 29.76 30.58 31.26 34.06 37.91 37.78 38.32 32.25 28.14 23.35 21.27 24.09 24.24 26.61 31.07 29.03 27.62 23.85 22.45 16.24 15.42 25.40 31.97 33.77 31.81 18.06 28.67
42.21 43.01 43.45 43.78 43.78 44.02 44.49 44.47 45.03 45.14 45.34 42.33 37.89 40.37 38.96 32.83 34.37 36.45 31.39 31.64 33.50 31.06 28.57 32.61 35.19 36.13 36.50 29.65 27.54 24.43 23.25 28.86 22.95 23.24 24.56 23.68 22.90 22.06 22.87 21.49 24.40 30.29 32.18 33.89 17.39 20.67 29.15
41.85 42.10 42.69 43.13 43.34 43.64 43.80 44.06 44.43 45.16 45.19 42.74 39.01 40.38 38.09 34.22 36.23 39.03 39.26 33.59 33.90 33.29 27.94 30.95 33.41 35.00 31.45 29.06 27.30 25.28 22.79 27.11 25.38 28.60 26.70 25.29 22.91 22.33 24.74 21.96 19.05 32.32 31.30 25.78 27.09 28.61 28.89
41.93 42.14 42.27 42.71 42.87 43.25 43.32 43.85 44.38 44.90 45.28 44.31 37.09 41.67 41.09 35.57 35.75 40.05 41.38 42.05 39.31 38.32 33.54 32.83 32.42 30.95 31.00 30.90 28.77 28.61 28.10 25.47 25.15 20.91 33.94 26.83 29.09 25.71 26.90 25.59 28.90 30.09 28.60 30.59 30.88 29.51 28.25